     2              OBSERVATION DATA    GPS                 RINEX VERSION / TYPE
srx v1.3 (5/19/93) STARR 93/10/11 17:38:41                  PGM / RUN BY / DATE
                                                            COMMENT
sig: 9 8 7 6 5 4 1 0                                        COMMENT
sig: 9 8 7 6 5 4 1 0                                        COMMENT
sig: 9 8 7 6 5 4 1 0                                        COMMENT
Original Marker Name: 3182                                  COMMENT
Campaign Name: Baja (Dixon) 1993                            COMMENT
4-Character Station Name: 3182                              COMMENT
6-Character Antenna Code: DMRCHT                            COMMENT
Vertical Measurement Point: BPA                             COMMENT
Vertical Offset to Rinex Ref. Point: 0.0000                 COMMENT
Radial Measurement Point: RRP                               COMMENT
Radial Offset to Rinex Ref. Point: 0.0000                   COMMENT
Antenna Height from Field Measurement: 0.0614 m             COMMENT
Additional Antenna Identification Info.:                    COMMENT
Turborogue and Ashtech Choke Ring                           COMMENT
Original XYZ: -2493309.0382 -4655182.3466 3565500.9443      COMMENT
New XYZ position is based on association with SCEC monument COMMENT
E1C2G8Z4+0011. Position of that monument is believed to be  COMMENT
valid to within 1 m horizontally; vertical accuracy         COMMENT
should be no worse than 3-times this value.                 COMMENT
                                                            COMMENT
Revised Rinex header created by UCSD GPS archive for        COMMENT
GSAC on 09-Nov-2004 (2004:314) 21:56:05 GMT                 COMMENT
For assistance contact dagnew@ucsd.edu                      COMMENT
or anderson@python.ucsd.edu                                 COMMENT
                                                            COMMENT
3182S                                                       MARKER NAME
THE OBSERVER WAS?___JET PROPULSION LABORATORY               OBSERVER / AGENCY
127 TURBOROGUE SNR-8000 100.1                               REC # / TYPE / VERS
127 DORNE-MARGOL. TYPE T                                    ANT # / TYPE
 -2414457.0000 -4904232.0000  3275542.0000                  APPROX POSITION XYZ
        0.0614        0.0000        0.0000                  ANTENNA: DELTA H/E/N
     1     1     0                                          WAVELENGTH FACT L1/2
     4    L1    L2    P1    P2                              # / TYPES OF OBSERV
   120                                                      INTERVAL
  1993     4     7     0     0    0.000000                  TIME OF FIRST OBS
  1993     4     7    23    58    0.000000                  TIME OF LAST OBS
    22                                                      # OF SATELLITES
          01   697   697   697   697                        PRN / # OF OBS
          02   848   848   848   848                        PRN / # OF OBS
          03   667   667   667   667                        PRN / # OF OBS
          11   887   887   887   887                        PRN / # OF OBS
          12   743   743   743   743                        PRN / # OF OBS
          13   614   614   614   614                        PRN / # OF OBS
          14   729   729   729   729                        PRN / # OF OBS
          15   845   845   845   845                        PRN / # OF OBS
          16   805   805   805   805                        PRN / # OF OBS
          17   721   721   721   721                        PRN / # OF OBS
          18   828   828   828   828                        PRN / # OF OBS
          19   924   924   924   924                        PRN / # OF OBS
          20   652   652   652   652                        PRN / # OF OBS
          21   722   722   722   722                        PRN / # OF OBS
          22   817   817   817   817                        PRN / # OF OBS
          23   650   650   650   650                        PRN / # OF OBS
          24   605   605   605   605                        PRN / # OF OBS
          25   748   748   748   748                        PRN / # OF OBS
          26   884   884   884   884                        PRN / # OF OBS
          27   870   870   870   870                        PRN / # OF OBS
          28   906   906   906   906                        PRN / # OF OBS
                                                            END OF HEADER
 93 04 07 00 00 00.0000000  0  6 27 12 24 13 26 02
  12640872.66608   9850024.82308  21857287.60308  21857292.42508
  -2725786.48907  -2123984.75907  23042394.15507  23042402.02007
  -7225359.54908  -5630115.95908  22242564.17708  22242571.47908
 -18545420.96609 -14450943.93108  18633746.55809  18633749.96308
 -12341649.13808  -9616860.12808  21584680.70308  21584686.12208
  -2667824.42508  -2078811.64008  19981106.25908  19981108.98308
 93 04 07 00 02 00.0000000  0  6 27 12 24 13 26 02
  13074094.88208  10187600.10208  21939727.22408  21939732.31708
  -3118222.18308  -2429778.30008  22967715.65208  22967723.43208
  -7654468.17808  -5964485.24908  22160906.76408  22160913.73208
 -18613399.78609 -14503914.37908  18620810.57309  18620813.96908
 -12144327.21908  -9463103.15608  21622230.07208  21622235.53008
  -2541897.39708  -1980686.75308  20005069.48008  20005072.19408
 93 04 07 00 04 00.0000000  0  6 27 12 24 13 26 02
  13511395.74908  10528353.52308  22022943.15808  22022948.46908
  -3509968.82908  -2735034.90308  22893168.42708  22893176.04308
  -8081831.94508  -6297494.97808  22079581.34408  22079588.10208
 -18671647.52909 -14549302.17708  18609726.37109  18609729.71808
 -11941295.16008  -9304896.74508  21660866.16208  21660871.67008
  -2411900.01108  -1879390.17908  20029807.27508  20029810.01108
 93 04 07 00 06 00.0000000  0  6 27 12 24 13 26 02
  13951895.64608  10871599.66608  22106767.87308  22106773.33708
  -3901348.08608  -3040005.20608  22818691.01208  22818698.50808
  -8507480.80008  -6629168.45108  21998582.44208  21998588.89308
 -18720664.71909 -14587497.33808  18600398.73109  18600401.99208
 -11733322.42308  -9142840.47308  21700442.38808  21700447.99008
  -2278411.19308  -1775373.01608  20055209.36608  20055212.12508
 93 04 07 00 08 00.0000000  0  6 27 12 24 13 26 02
  14395240.19508  11217062.39808  22191134.05208  22191139.45308
  -4292191.42908  -3344557.92108  22744315.65508  22744322.98108
  -8931426.20108  -6959514.61608  21917907.62108  21917913.92108
 -18760468.75509 -14618513.43208  18592824.26609  18592827.50508
 -11519986.72408  -8976605.28408  21741039.08708  21741044.90708
  -2141101.13508  -1668378.25508  20081338.67008  20081341.45908
 93 04 07 00 10 00.0000000  0  6 27 12 24 13 26 02
  14841162.15508  11564533.49008  22275990.64008  22275996.16008
  -4682497.40908  -3648691.92208  22670042.58008  22670049.68108
  -9353691.01208  -7288551.33708  21837552.68108  21837558.82008
 -18791252.54409 -14642500.75908  18586966.25909  18586969.50308
 -11301975.31408  -8806726.69608  21782525.59308  21782531.55108
  -2000058.58908  -1558475.04708  20108178.27108  20108181.07108
 93 04 07 00 12 00.0000000  0  6 27 12 24 13 26 02
  15289482.33508  11913873.29108  22361303.55508  22361309.22608
  -5072249.38808  -3952394.24808  22595874.89608  22595881.80708
  -9774131.51708  -7616166.60708  21757545.00008  21757550.94208
 -18813202.00609 -14659604.21108  18582789.39109  18582792.65708
 -11079294.79108  -8633209.88108  21824900.56808  21824906.75908
  -1855262.66808  -1445647.14008  20135732.09108  20135734.90508
 93 04 07 00 14 00.0000000  0  6 27 12 24 13 26 02
  15740376.18408  12265218.53108  22447106.28808  22447111.97708
  -5461355.42908  -4255593.25008  22521830.16208  22521836.84808
 -10192656.77208  -7942289.54108  21677901.78408  21677907.67008
 -18826438.50509 -14669918.34408  18580270.54209  18580273.85008
 -10852719.65308  -8456658.34408  21868016.74408  21868023.12308
  -1707104.80808  -1330199.54808  20163925.59908  20163928.44408
 93 04 07 00 16 00.0000000  0  6 27 12 24 13 26 02
  16193211.96408  12618076.94208  22533278.53008  22533284.46908
  -5849671.76108  -4558176.93108  22447935.63308  22447942.17708
 -10609194.12808  -8266863.54008  21598636.89708  21598642.65008
 -18831035.94009 -14673500.73808  18579395.65009  18579398.96608
 -10622043.95608  -8276911.59108  21911913.38808  21911919.80508
  -1555144.67408  -1211789.16808  20192842.70308  20192845.61008
 93 04 07 00 18 00.0000000  0  6 27 12 24 13 26 02
  16648137.07508  12972563.38408  22619848.51108  22619854.61908
  -6237080.56008  -4860053.48708  22374213.82708  22374220.28808
 -11023215.24008  -8589476.88708  21519850.93608  21519856.62808
 -18827105.63809 -14670438.16708  18580143.57109  18580146.87208
 -10387350.10508  -8094033.80508  21956574.54308  21956581.08108
  -1399605.65408  -1090590.05308  20222440.96808  20222443.89808
 93 04 07 00 20 00.0000000  0  6 27 12 24 26 13 02
  17104847.99008  13328441.37608  22706758.32308  22706764.48408
  -6623461.94808  -5161129.48108  22300687.54408  22300693.96408
 -11434671.63508  -8910091.77508  21441553.04508  21441558.48008
 -10149193.79308  -7908457.98908  22001894.51508  22001901.22308
 -18814762.65109 -14660820.26408  18582492.41209  18582495.68108
  -1240203.14408   -966380.42308  20252774.30408  20252777.27508
 93 04 07 00 22 00.0000000  0  6 24 27 12 26 13 02
 -11843592.65808  -9228731.03008  21363737.54008  21363742.94808
  17563054.94108  13685485.08608  22793952.63708  22793959.11908
  -7008659.43208  -5461282.93908  22227386.63508  22227392.86108
  -9907417.68008  -7720061.57208  22047903.43508  22047910.14408
 -18794093.48609 -14644714.41708  18586425.61809  18586428.87608
  -1077150.20508   -839326.29408  20283802.39308  20283805.36508
 93 04 07 00 24 00.0000000  0  6 24 27 12 26 13 02
 -12249797.80308  -9545254.03408  21286438.89308  21286444.21908
  18022877.75708  14043787.89108  22881454.55908  22881461.16208
  -7392550.66108  -5760418.54008  22154334.31608  22154340.41608
  -9662509.58508  -7529224.67708  22094508.41008  22094515.29008
 -18765225.11809 -14622219.56908  18591919.08009  18591922.33908
   -910531.55508   -709493.70008  20315508.98108  20315511.92708
 93 04 07 00 26 00.0000000  0  6 24 27 12 26 13 02
 -12653112.68808  -9859524.92908  21209690.25908  21209695.52108
  18484105.16708  14403185.17608  22969223.70708  22969230.47208
  -7775022.39508  -6058448.03108  22081552.04508  22081558.03208
  -9414586.90408  -7336038.77708  22141687.06908  22141693.99208
 -18728302.66209 -14593448.81008  18598945.15809  18598948.42808
   -740037.21008   -576641.09008  20347953.00108  20347956.03008
 93 04 07 00 28 00.0000000  0  6 24 27 12 26 13 02
 -13053155.73408 -10171246.38008  21133564.36708  21133569.47908
  18946149.98208  14763219.36908  23057148.48708  23057155.33908
  -8155906.73908  -6355240.59108  22009071.73408  22009077.71608
  -9163721.67608  -7140559.99208  22189425.66008  22189432.67408
 -18683424.86809 -14558479.10608  18607485.12809  18607488.42108
   -565757.06808   -440838.50408  20381117.50708  20381120.57908
 93 04 07 00 30 00.0000000  0  6 24 27 12 26 13 02
 -13449704.46908 -10480244.99808  21058103.41708  21058108.31108
  19409343.44808  15124148.59608  23145291.85208  23145298.86008
  -8535057.86708  -6650682.59208  21936921.24008  21936927.24108
  -8910279.62708  -6943073.30208  22237654.48508  22237661.68708
 -18630714.07509 -14517405.76308  18617515.66909  18617518.93508
   -387572.09708   -301993.18108  20415025.03108  20415028.06908
 93 04 07 00 32 00.0000000  0  6 12 27 26 13 02 24
  -8912359.48308  -6944683.40508  21865122.77208  21865128.68608
  19873481.47908  15485813.82608  23233614.96808  23233622.10708
  -8654287.20308  -6743599.32708  22286368.65308  22286376.06008
 -18570330.75209 -14470353.81408  18629006.22409  18629009.48808
   -205574.77608   -160177.18908  20449657.99408  20449661.06008
 -13843048.77508 -10786746.66508  20983252.15708  20983256.98608
 93 04 07 00 34 00.0000000  0  6 12 26 27 13 02 24
  -9287662.62408  -7237126.95608  21793704.66308  21793710.42308
  -8396254.30508  -6542535.38708  22335471.17108  22335478.73408
  20338187.68408  15847921.78408  23322046.10008  23322053.54508
 -18502410.03709 -14417428.55808  18641931.10909  18641934.36308
    -19815.21208    -15429.58108  20485006.98508  20485010.05208
 -14232857.49308 -11090493.34308  20909073.77808  20909078.47408
 93 04 07 00 36 00.0000000  0  6 12 26 27 13 02 24
  -9660856.61508  -7527927.02808  21722687.91508  21722693.51708
  -8136038.10408  -6339770.17208  22384989.15408  22384996.85608
  20803241.02308  16210300.29407  23410543.28308  23410551.00407
 -18427127.93909 -14358767.16208  18656256.77709  18656260.05408
    169811.24008    132331.15808  20521091.82108  20521094.92908
 -14618675.97308 -11391130.76108  20835654.72608  20835659.29408
 93 04 07 00 38 00.0000000  0  6 12 26 27 13 02 24
 -10031765.96608  -7816946.89408  21652105.85508  21652111.35708
  -7873975.55308  -6135566.26008  22434858.53208  22434866.28308
  21268751.32608  16573034.90307  23499127.48408  23499135.41107
 -18344604.16709 -14294462.92508  18671960.53609  18671963.80908
    363310.14208    283109.36208  20557913.50508  20557916.73908
 -15000695.60208 -11688808.07208  20762958.57208  20762963.08008
 93 04 07 00 40 00.0000000  0  6 12 26 27 13 02 24
 -10400186.23808  -8104027.22408  21581997.48508  21582002.87108
  -7610226.98908  -5930048.58608  22485048.60508  22485056.72908
  21734349.39508  16935837.93007  23587728.39408  23587736.47007
 -18254932.65809 -14224589.01608  18689024.48309  18689027.69608
    560585.17008    436830.01008  20595453.84308  20595457.09308
 -15378953.59508 -11983554.24108  20690978.21808  20690982.65008
 93 04 07 00 42 00.0000000  0  6 12 26 27 13 02 24
 -10765998.97308  -8389075.72408  21512385.33508  21512390.61108
  -7345127.41508  -5723478.20808  22535495.91008  22535504.21708
  22199934.88007  17298631.12107  23676326.85607  23676334.97707
 -18158297.42709 -14149288.82808  18707413.52809  18707416.75008
    762044.68708    593811.28908  20633790.40308  20633793.62808
 -15752908.94508 -12274947.70408  20619816.60208  20619820.99108
 93 04 07 00 44 00.0000000  0  6 12 26 27 13 02 24
 -11129007.32208  -8671938.96608  21443306.82508  21443312.06908
  -7078675.26008  -5515853.90808  22586200.65708  22586209.05308
  22665368.01607  17661305.50707  23764896.47707  23764904.82107
 -18054815.56409 -14068653.58508  18727105.44709  18727108.67908
    967252.86908    753713.62808  20672840.36208  20672843.62908
 -16122414.40308 -12562873.70708  20549501.75408  20549506.16508
 93 04 07 00 46 00.0000000  0  6 12 26 27 13 02 24
 -11489042.24308  -8952485.25008  21374794.22508  21374799.34608
  -6811200.63208  -5307432.91508  22637099.89508  22637108.61608
  23130754.61307  18023943.53607  23853457.11707  23853465.80507
 -17944626.58609 -13982792.02708  18748073.71609  18748076.92708
   1176491.63808    916756.72808  20712657.24908  20712660.55708
 -16487443.10108 -12847311.33508  20480038.84408  20480043.14308
 93 04 07 00 48 00.0000000  0  6 12 26 27 13 02 24
 -11845894.73208  -9230551.73708  21306887.15808  21306892.14508
  -6542837.05708  -5098319.22608  22688168.49508  22688177.32408
  23595714.71807  18386249.23407  23941936.77007  23941945.71007
 -17827840.87309 -13891790.18008  18770297.31609  18770300.50708
   1389682.10808   1082879.09208  20753226.14008  20753229.49008
 -16847351.79308 -13127759.34508  20411550.28708  20411554.49108
 93 04 07 00 50 00.0000000  0  6 12 26 27 13 02 24
 -12199436.59008  -9506038.56408  21239610.13008  21239615.07508
  -6273708.06408  -4888609.09708  22739382.60508  22739391.69208
  24060100.66307  18748107.55207  24030307.09307  24030316.19607
 -17704648.51309 -13795796.12208  18793740.04509  18793743.21408
   1606888.53708   1252130.76808  20794559.13708  20794562.50508
 -17202354.03708 -13404384.17808  20343995.35808  20343999.52508
 93 04 07 00 52 00.0000000  0  6 12 26 27 13 02 24
 -12549483.71108  -9778802.25208  21172998.16808  21173003.02508
  -6003971.80708  -4678425.75308  22790712.29708  22790721.52908
  24523739.25207  19109383.50407  24118535.32607  24118544.53307
 -17575187.87709 -13694917.68108  18818375.57009  18818378.74208
   1828200.11308   1424581.23208  20836673.42108  20836676.86508
 -17552239.66208 -13677022.03808  20277414.13608  20277418.22408
 93 04 07 00 54 00.0000000  0  5 12 26 13 24 02
 -12895863.07808 -10048707.95708  21107084.14308  21107088.88908
  -5733971.25508  -4468036.45208  22842092.24408  22842101.69508
 -17439616.00209 -13589277.24408  18844174.02309  18844177.17308
 -17897056.98808 -13945710.57808  20211797.37508  20211801.41708
   2053713.65808   1600305.93408  20879587.33808  20879590.80608
 93 04 07 00 56 00.0000000  0  5 12 26 13 24 02
 -13238374.19708 -10315599.43408  21041906.25708  21041910.86008
  -5463768.41908  -4257489.56508  22893510.74108  22893520.37308
 -17298057.74509 -13478972.07708  18871111.61809  18871114.79308
 -18236376.37208 -14210114.99508  20147226.84908  20147230.81208
   2283107.81008   1779054.51008  20923239.76408  20923243.23008
 93 04 07 00 58 00.0000000  0  5 02 26 13 24 12
   2516575.63508   1960977.37608  20967667.31208  20967670.74208
  -5193360.46408  -4046782.81608  22944968.17108  22944978.01708
 -17150747.04509 -13364184.49108  18899143.89609  18899147.05708
 -18570187.66808 -14470227.38708  20083704.40008  20083708.26808
 -13576919.08608 -10579400.32508  20977483.08608  20977487.53008
 93 04 07 01 00 00.0000000  0  5 02 26 13 24 12
   2754290.28308   2146209.44508  21012903.03008  21012906.50208
  -4923324.87108  -3836366.25708  22996354.63508  22996364.75408
 -16997854.21909 -13245047.20108  18928238.43109  18928241.59008
 -18898469.22308 -14726030.93508  20021234.30308  20021238.10008
 -13911335.03008 -10839983.88708  20913845.59108  20913849.97308
 93 04 07 01 02 00.0000000  0  5 02 26 13 24 12
   2995706.37408   2334325.78108  21058843.08208  21058846.53308
  -4653727.56607  -3626291.19108  23047657.80607  23047668.25608
 -16839504.00309 -13121657.35608  18958371.42709  18958374.54608
 -19221030.27908 -14977376.89608  19959852.77108  19959856.50008
 -14241412.89008 -11097187.11008  20851033.61308  20851037.98608
 93 04 07 01 04 00.0000000  0  5 02 26 13 24 12
   3241169.29408   2525595.48208  21105553.20208  21105556.71908
  -4384682.85507  -3416646.72508  23098855.96507  23098866.64108
 -16675875.17809 -12994154.31408  18989508.87309  18989511.99308
 -19537317.98308 -15223834.55108  19899664.97008  19899668.65808
 -14566996.54708 -11350888.36508  20789076.90308  20789081.12408
 93 04 07 01 06 00.0000000  0  5 02 26 13 24 12
   3491018.76708   2720283.27308  21153097.99308  21153101.58608
  -4116618.36607  -3207766.06608  23149867.52807  23149878.27608
 -16507106.87309 -12862646.48708  19021624.37609  19021627.49008
 -19847783.37708 -15465755.29608  19840585.11108  19840588.73408
 -14887885.48608 -11600931.38608  20728013.48208  20728017.72008
 93 04 07 01 08 00.0000000  0  5 02 26 24 12 13
   3744961.21008   2918160.40208  21201421.73508  21201425.35508
  -3849381.01907  -2999529.96708  23200721.52507  23200732.52008
 -20151929.36508 -15702751.84208  19782707.80108  19782711.30908
 -15203916.97808 -11847189.35108  20667874.43308  20667878.63008
 -16333372.00409 -12727268.58908  19054685.01109  19054688.08708
 93 04 07 01 10 00.0000000  0  5 02 26 24 12 13
   4002857.96208   3119118.81408  21250497.97608  21250501.62308
  -3583197.55507  -2792115.10108  23251375.35007  23251386.50008
 -20449545.15908 -15934659.93408  19726073.16608  19726076.56508
 -15514904.17108 -12089516.72608  20608695.29508  20608699.43908
 -16154821.67809 -12588138.39308  19088661.94109  19088665.00408
 93 04 07 01 12 00.0000000  0  5 02 26 24 12 13
   4264595.05408   3323069.68208  21300304.91508  21300308.57708
  -3318254.98907  -2585667.13108  23301793.03307  23301804.32908
 -20740668.42608 -16161508.92808  19670673.94808  19670677.33008
 -15820688.59508 -12327790.00608  20550506.28108  20550510.31908
 -15971632.41709 -12445393.46708  19123521.61009  19123524.70308
 93 04 07 01 14 00.0000000  0  5 02 26 12 24 13
   4530304.76908   3530116.05308  21350867.86708  21350871.54308
  -3054501.88507  -2380145.90607  23351984.03707  23351995.46007
 -16121090.32208 -12561868.98108  20493341.51008  20493345.45008
 -21025377.58208 -16383359.93108  19616495.42508  19616498.70808
 -15783961.39909 -12299156.29408  19159234.19409  19159237.29408
 93 04 07 01 16 00.0000000  0  5 02 26 12 24 13
   4800295.60308   3740498.37208  21402245.40508  21402249.14508
  -2792738.35307  -2176174.91007  23401796.31307  23401807.91207
 -16415940.47208 -12791622.03508  20437233.13108  20437237.02508
 -21303219.98908 -16599860.21008  19563623.55608  19563626.73508
 -15591974.84209 -12149556.33808  19195768.01909  19195771.05708
 93 04 07 01 18 00.0000000  0  5 02 26 12 24 13
   5074156.00708   3953895.95008  21454359.50808  21454363.28808
  -2532859.09507  -1973672.12607  23451250.00607  23451261.81007
 -16705039.64508 -13016893.81708  20382219.19108  20382222.90308
 -21574129.02608 -16810957.85608  19512071.07308  19512074.10208
 -15395808.28409 -11996699.24108  19233097.25209  19233100.29608
 93 04 07 01 20 00.0000000  0  5 02 26 12 24 13
   5352101.86708   4170476.98608  21507250.97608  21507254.73708
  -2274848.22107  -1772625.20007  23500348.26907  23500360.14807
 -16988250.90908 -13237577.62308  20328325.63208  20328329.25908
 -21838191.33408 -17016720.39608  19461821.43408  19461824.44708
 -15195653.68508 -11840734.57008  19271185.37308  19271188.39908
 93 04 07 01 22 00.0000000  0  5 02 26 12 24 13
   5634087.86708   4390206.15608  21560911.26808  21560915.11508
  -2018955.05007  -1573228.38907  23549043.62607  23549055.45907
 -17265472.67108 -13453594.33508  20275571.84608  20275575.46408
 -22095286.02508 -17217053.65208  19412897.75208  19412900.70208
 -14991743.13708 -11681843.20008  19309988.20808  19309991.27308
 93 04 07 01 24 00.0000000  0  5 02 26 12 24 13
   5919855.54108   4612882.09508  21615291.11708  21615295.07808
  -1765439.40007  -1375684.10007  23597286.34707  23597298.24007
 -17536504.86908 -13664788.02808  20223995.97408  20223999.59908
 -22344965.20408 -17411608.57808  19365385.17408  19365388.03308
 -14784204.58308 -11520124.81908  19349481.49208  19349484.47108
 93 04 07 01 26 00.0000000  0  5 02 26 12 24 13
   6209436.50908   4838529.42908  21670396.67908  21670400.67908
  -1514196.59407  -1179910.76807  23645096.38607  23645108.43807
 -17801161.98408 -13871014.14208  20173633.19108  20173636.81108
 -22587206.88608 -17600368.06008  19319287.85908  19319290.70008
 -14573175.90808 -11355686.87808  19389638.91308  19389641.86708
 93 04 07 01 28 00.0000000  0  5 02 26 12 24 13
   6502910.09708   5067209.96208  21726242.92008  21726246.95308
  -1265562.97307   -986170.32407  23692409.78207  23692421.90507
 -18059291.73308 -14072153.99008  20124512.56408  20124516.13908
 -22822347.76208 -17783594.47708  19274541.83808  19274544.64708
 -14358827.34508 -11188662.00308  19430428.01008  19430431.04108
 93 04 07 01 30 00.0000000  0  5 02 26 12 24 13
   6800484.52808   5299085.95108  21782869.57408  21782873.65108
  -1020031.24506   -794846.82807  23739132.64806  23739144.94207
 -18310708.11708 -14268062.63908  20076669.43708  20076672.97908
 -23050140.22108 -17961094.86008  19231194.19208  19231196.93208
 -14141291.23108 -11019153.31508  19471823.73208  19471826.73808
 93 04 07 01 32 00.0000000  0  4 02 12 24 13
   7101722.24108   5533816.43208  21840193.39608  21840197.53208
 -18555286.05608 -14458642.62908  20030127.59708  20030131.10908
 -23270384.24208 -18132713.35508  19189283.01608  19189285.66308
 -13920758.84408 -10847309.85108  19513789.64008  19513792.64408
 93 04 07 01 34 00.0000000  0  4 02 12 24 13
   7406571.08708   5771360.80608  21898204.39408  21898208.53508
 -18792845.19808 -14643753.45308  19984921.45908  19984924.90408
 -23482999.02608 -18298386.98608  19148823.59508  19148826.19208
 -13697358.80808 -10673231.86008  19556301.24108  19556304.18508
 93 04 07 01 36 00.0000000  0  4 02 12 24 13
   7715208.55808   6011857.35608  21956936.37108  21956940.49008
 -19023274.61808 -14823308.68908  19941072.13308  19941075.50708
 -23687732.85508 -18457919.61708  19109863.86708  19109866.43908
 -13471288.25608 -10497072.94108  19599321.03908  19599323.89508
 93 04 07 01 38 00.0000000  0  4 02 12 24 13
   8027340.16308   6255076.62508  22016333.07808  22016337.30808
 -19246428.87108 -14997194.98208  19898607.24008  19898610.54308
 -23884778.85308 -18611461.74508  19072367.14608  19072369.64008
 -13242701.36908 -10318953.24008  19642819.66008  19642822.48308
 93 04 07 01 40 00.0000000  0  4 02 24 12 13
   8343260.63308   6501248.27808  22076450.96708  22076455.18708
 -24073890.85908 -18758821.58608  19036380.15908  19036382.61308
 -19462161.68508 -15165298.35408  19857554.55708  19857557.82508
 -13011749.37108 -10138990.61508  19686768.29308  19686771.16808
 93 04 07 01 42 00.0000000  0  4 02 12 24 13
   8663117.23708   6750487.02508  22137317.76508  22137322.12608
 -19670311.80009 -15327493.07908  19817944.78409  19817948.02808
 -24255089.20309 -18900014.91308  19001899.15309  19001901.54608
 -12778561.79308  -9957285.98008  19731142.39108  19731145.25008
 93 04 07 01 44 00.0000000  0  4 02 12 24 13
   8986216.97008   7002252.82208  22198801.72008  22198806.07808
 -19870740.36709 -15483671.01208  19779804.36609  19779807.54508
 -24428617.38009 -19035231.50708  18968877.72709  18968880.06508
 -12543284.79308  -9773953.21908  19775914.06708  19775916.91308
 93 04 07 01 46 00.0000000  0  5 02 20 24 12 13
   9312689.87508   7256647.04208  22260927.65208  22260932.03808
        -0.38616        -0.38417  23474409.88516  23474416.13717
 -24593966.45609 -19164074.75308  18937412.65509  18937414.98308
 -20063298.13309 -15633715.84808  19743161.63909  19743164.84008
 -12306047.74908  -9589093.14908  19821058.76108  19821061.56808
 93 04 07 01 48 00.0000000  0  4 02 24 12 13
   9642809.70308   7513883.00708  22323747.57208  22323751.96608
 -24751127.18409 -19286537.46008  18907505.82109  18907508.12508
 -20247849.49809 -15777521.92508  19708042.50709  19708045.71908
 -12066987.92208  -9402812.71808  19866550.29608  19866553.07608
 93 04 07 01 50 00.0000000  0  4 02 24 12 13
   9976469.18108   7773877.09908  22387241.06108  22387245.56708
 -24900412.50309 -19402863.52108  18879097.62609  18879099.88708
 -20424271.22209 -15914993.22108  19674470.43009  19674473.57208
 -11826249.60208  -9215224.36508  19912361.25408  19912364.02708
 93 04 07 01 52 00.0000000  0  6 02 20 16 24 12 13
  10313328.69408   8036364.79008  22451343.49708  22451348.07308
         0.06117         0.31517  23252542.82917  23252548.72517
        -0.13118        -0.93517  23621213.63018  23621221.64817
 -25041445.29209 -19512759.00308  18852259.82809  18852262.03108
 -20592428.06509 -16046024.37308  19642471.11009  19642474.18808
 -11583956.15608  -9026424.23208  19958468.11708  19958470.88108
 93 04 07 01 54 00.0000000  0  6 02 20 16 12 24 13
  10653406.06008   8301359.95908  22516058.15408  22516062.88208
   -391297.37607   -304906.04507  23178080.74807  23178086.47507
   -337996.93808   -263374.03707  23556894.30808  23556901.85407
 -20752192.17009 -16170515.73708  19612068.91709  19612071.96508
 -25174126.46809 -19616146.75108  18827011.31109  18827013.43208
 -11340229.99408  -8836507.67808  20004847.57708  20004850.37008
 93 04 07 01 56 00.0000000  0  6 02 20 16 12 24 13
  10996839.64008   8568970.36208  22581411.58508  22581416.33908
   -783766.37007   -610725.29607  23103395.83507  23103401.39307
   -679638.12808   -529586.95507  23491881.41208  23491888.62407
 -20903411.95709 -16288349.19108  19583292.63009  19583295.65508
 -25298845.79109 -19713330.46209  18803277.84209  18803279.94909
 -11095165.15808  -8645547.99308  20051481.77108  20051484.55508
 93 04 07 01 58 00.0000000  0  6 02 20 12 16 24 13
  11343434.48408   8839044.13808  22647366.40208  22647371.24208
  -1177328.26307   -917396.18007  23028503.01807  23028508.25707
 -21045972.61909 -16399435.27008  19556164.12809  19556167.10908
  -1024416.22108   -798244.29607  23426271.57008  23426278.61907
 -25415150.40709 -19803957.23909  18781145.66009  18781147.74209
 -10848883.41308  -8453640.07408  20098347.59408  20098350.36108
 93 04 07 02 00 00.0000000  0  6 02 20 12 16 24 13
  11693429.95308   9111767.77008  22713968.37008  22713973.26208
  -1571928.33207  -1224876.00407  22953412.53007  22953417.70207
 -21179790.83609 -16503709.03908  19530699.24409  19530702.17008
  -1372296.00808  -1069318.63807  23360071.69908  23360078.48707
 -25523208.50809 -19888158.17109  18760582.79509  18760584.82209
 -10601529.36408  -8260896.60908  20145417.45408  20145420.18008
 93 04 07 02 02 00.0000000  0  6 02 20 12 16 24 13
  12046383.20308   9386796.19608  22781133.23108  22781138.05008
  -1967509.17708  -1533120.21607  22878135.55508  22878140.36107
 -21304788.09309 -16601109.35108  19506912.95509  19506915.83708
  -1723442.21508  -1342938.25307  23293250.06908  23293256.88807
 -25623070.52509 -19965972.57209  18741579.54409  18741581.51209
 -10353244.88108  -8067428.14708  20192664.46008  20192667.14008
 93 04 07 02 04 00.0000000  0  6 02 20 12 16 24 13
  12402028.76508   9663922.55608  22848810.47208  22848815.26208
  -2363956.25708  -1842039.44407  22802693.68808  22802698.31907
 -21420839.32509 -16691538.75108  19484829.00409  19484831.90308
  -2077429.57508  -1618771.78408  23225887.87208  23225894.63208
 -25714674.96109 -20037352.49309  18724147.72609  18724149.63809
 -10104117.27208  -7873302.69908  20240071.85508  20240074.50808
 93 04 07 02 06 00.0000000  0  6 02 20 12 16 24 13
  12760731.06408   9943430.82508  22917069.25008  22917074.08808
  -2761190.99808  -2151572.38507  22727102.01008  22727106.44607
 -21527863.59709 -16774934.16008  19464462.86209  19464465.73008
  -2434202.43508  -1896775.82908  23157995.72908  23158002.26208
 -25797816.93809 -20102138.29309  18708326.14709  18708328.03009
  -9854266.28708  -7678613.56708  20287616.86408  20287619.50408
 93 04 07 02 08 00.0000000  0  6 02 20 12 16 24 13
  13122237.14308  10225123.85208  22985861.53108  22985866.36308
  -3159131.08308  -2461654.92807  22651376.03908  22651380.30207
 -21625783.83909 -16851235.52808  19445829.17409  19445831.99408
  -2793583.68208  -2176812.33108  23089607.04808  23089613.35208
 -25872586.38709 -20160400.05409  18694097.84209  18694099.69009
  -9603809.31908  -7483452.22608  20335277.17308  20335279.86108
 93 04 07 02 10 00.0000000  0  6 02 20 16 12 24 13
  13486860.52408  10509245.96408  23055247.03808  23055251.75808
  -3557690.70808  -2772220.28108  22575532.11908  22575536.50108
  -3155449.72608  -2458785.00408  23020745.60008  23020751.74308
 -21714528.91009 -16920387.42108  19428941.45809  19428944.25308
 -25939451.99209 -20212502.94409  18681373.66109  18681375.45109
  -9352862.13008  -7287908.88208  20383030.76008  20383033.38908
 93 04 07 02 12 00.0000000  0  6 02 20 16 12 24 13
  13854079.49608  10795390.64008  23125126.42408  23125131.18308
  -3956762.75508  -3083185.03008  22499590.91508  22499595.21908
  -3519377.46908  -2742364.15308  22951491.76508  22951497.56108
 -21794014.89609 -16982324.43008  19413815.69309  19413818.44508
 -25997924.46209 -20258065.72109  18670246.59009  18670248.30509
  -9101514.01008  -7092053.13008  20430860.61708  20430863.22608
 93 04 07 02 14 00.0000000  0  6 02 20 16 12 24 13
  14223902.78908  11083564.62207  23195501.50108  23195506.27907
  -4356230.49508  -3394458.19408  22423574.42408  22423578.59708
  -3885423.76408  -3027594.15408  22881834.76208  22881840.31208
 -21864157.85209 -17036981.13708  19400467.84109  19400470.54308
 -26047998.62309 -20297084.37709  18660717.68109  18660719.35209
  -8849847.33008  -6895949.16008  20478751.14008  20478753.73908
 93 04 07 02 16 00.0000000  0  6 02 20 16 12 24 13
  14596347.70508  11373781.45307  23266375.38408  23266380.17407
  -4755994.18608  -3705961.92308  22347501.55308  22347505.69808
  -4253630.05108  -3314507.22508  22811766.84008  22811772.19908
 -21924902.31809 -17084314.34808  19388908.41909  19388911.13908
 -26090119.17709 -20329905.42209  18652702.21309  18652703.88409
  -8597963.00908  -6699675.59708  20526683.08608  20526685.70408
 93 04 07 02 18 00.0000000  0  6 02 20 16 12 24 13
  14971185.62208  11665863.00407  23337704.67408  23337709.34707
  -5155970.62108  -4017631.37208  22271388.19808  22271392.07608
  -4623372.32508  -3602617.12208  22741406.55608  22741411.60008
 -21976214.63209 -17124297.85708  19379143.93209  19379146.60108
 -26124009.22709 -20356313.09809  18646253.06209  18646254.68009
  -8345975.08108  -6503321.29908  20574634.75308  20574637.33108
 93 04 07 02 20 00.0000000  0  6 20 02 16 24 12 13
  -5556062.41308  -4329390.69208  22195252.90408  22195256.54908
  15348579.14707  11959935.98307  23409520.02707  23409524.96907
  -4994803.82708  -3892043.30208  22670724.71008  22670729.54508
 -26149790.62209 -20376402.35309  18641346.90709  18641348.49609
 -22018059.49709 -17156904.14208  19371181.02709  19371183.67908
  -8093984.65708  -6306965.05008  20622586.87108  20622589.38108
 93 04 07 02 22 00.0000000  0  6 20 02 16 24 12 13
  -5956178.97508  -4641169.32708  22119112.86508  22119116.38808
  15727934.98207  12255538.03907  23481709.12407  23481713.72107
  -5367969.22808  -4182820.63108  22599713.02108  22599717.70608
 -26167244.82309 -20390002.89709  18638025.36309  18638026.93609
 -22050417.77409 -17182118.28808  19365023.37209  19365026.02908
  -7842097.02208  -6110688.91508  20670519.53708  20670521.93108
 93 04 07 02 24 00.0000000  0  6 20 16 02 24 12 13
  -6356212.20408  -4952883.03908  22042988.66808  22042992.12308
  -5742476.71708  -4474643.77408  22528445.98108  22528450.41008
  16109466.02307  12552835.14807  23554311.91807  23554316.66907
 -26176950.10109 -20397565.32009  18636178.40109  18636179.92809
 -22073261.46109 -17199918.44408  19360676.26609  19360678.90108
  -7590399.98708  -5914561.29208  20718415.84908  20718418.21608
 93 04 07 02 26 00.0000000  0  5 20 16 24 12 13
  -6756011.88908  -5264414.76908  21966908.95908  21966912.29708
  -6117872.19408  -4767158.84608  22457009.90308  22457014.19208
 -26178689.20509 -20398920.33809  18635847.38509  18635848.89409
 -22086531.03009 -17210258.24108  19358151.06909  19358153.63308
  -7338942.85108  -5718620.59508  20766266.47908  20766268.76708
 93 04 07 02 28 00.0000000  0  5 20 16 24 12 13
  -7155429.37608  -5575648.64608  21890901.95008  21890905.07908
  -6494362.38408  -5060526.95908  22385365.42608  22385369.49908
 -26172641.75609 -20394207.91409  18636998.05609  18636999.54809
 -22090177.98209 -17213099.90708  19357457.00209  19357459.55108
  -7087770.88508  -5522902.09108  20814062.76608  20814065.23108
 93 04 07 02 30 00.0000000  0  5 20 16 24 12 13
  -7554396.67808  -5886531.71608  21814980.56708  21814983.62208
  -6871617.89908  -5354491.54608  22313575.43708  22313579.46208
 -26158512.17909 -20383197.74309  18639686.78209  18639688.22809
 -22084243.89209 -17208475.84808  19358586.12709  19358588.70408
  -6837010.27308  -5327504.14008  20861780.90708  20861783.28308
 93 04 07 02 32 00.0000000  0  5 20 16 24 12 13
  -7952826.72008  -6196996.19608  21739161.40908  21739164.39308
  -7249196.33908  -5648707.88508  22241724.33108  22241728.09108
 -26136586.78609 -20366112.92909  18643858.96509  18643860.38509
 -22068761.95709 -17196411.92508  19361532.16609  19361534.74808
  -6586771.17408  -5132512.59508  20909399.88608  20909402.16808
 93 04 07 02 34 00.0000000  0  5 20 16 24 12 13
  -8350585.41708  -6506937.60308  21663470.12408  21663473.04408
  -7627368.11608  -5943386.57808  22169760.22108  22169763.74908
 -26106914.87409 -20342991.85009  18649505.23009  18649506.63509
 -22043727.59409 -17176904.53908  19366295.99409  19366298.51908
  -6337110.56508  -4937971.81008  20956908.54508  20956910.99908
 93 04 07 02 36 00.0000000  0  5 20 16 13 24 12
  -8747550.24308  -6816260.47808  21587929.93608  21587932.79708
  -8006041.65508  -6238456.25708  22097700.63208  22097703.95608
  -6088101.08308  -4743938.42008  21004293.35408  21004295.86308
 -26070016.26509 -20314239.59309  18656526.71509  18656528.12709
 -22009158.26009 -17149967.32608  19372874.27309  19372876.75508
 93 04 07 02 38 00.0000000  0  5 20 16 13 24 12
  -9143611.95408  -7124879.63908  21512561.65308  21512564.42808
  -8384763.70408  -6533563.73008  22025631.64808  22025634.95708
  -5839824.29708  -4550475.95208  21051538.84208  21051541.36308
 -26025743.39509 -20279741.16109  18664951.49209  18664952.86509
 -21965093.00109 -17115630.67808  19381259.55009  19381262.02608
 93 04 07 02 40 00.0000000  0  5 20 16 13 24 12
  -9538594.57008  -7432657.96308  21437398.73508  21437401.44208
  -8763024.88508  -6828312.09708  21953650.46408  21953653.57008
  -5592297.97008  -4357598.23908  21098641.42608  21098644.01308
 -25974009.56409 -20239429.00009  18674796.09109  18674797.42209
 -21911517.27409 -17073883.27808  19391454.61109  19391457.06008
 93 04 07 02 42 00.0000000  0  5 20 16 13 24 12
  -9932346.49008  -7739477.35108  21362470.05208  21362472.64408
  -9141145.74808  -7122951.17708  21881696.13208  21881698.99608
  -5345558.84508  -4165333.93908  21145594.34908  21145596.80608
 -25914616.58009 -20193148.67409  18686098.12109  18686099.45209
 -21848445.62609 -17024736.46908  19403456.69209  19403459.12108
 93 04 07 02 44 00.0000000  0  5 20 16 13 24 12
 -10324765.96208  -8045258.52208  21287794.95808  21287797.45808
  -9518810.65308  -7417235.03008  21809828.51208  21809831.29508
  -5099697.10008  -3973753.33308  21192380.35808  21192382.73008
 -25848089.27009 -20141309.13609  18698757.77009  18698759.11409
 -21775953.99709 -16968249.42208  19417251.33009  19417253.76708
 93 04 07 02 46 00.0000000  0  5 20 16 13 24 12
 -10715675.80108  -8349863.37308  21213407.10108  21213409.52108
  -9895572.94808  -7710815.62708  21738132.69808  21738135.36508
  -4854723.43908  -3782864.75308  21238997.16008  21238999.64608
 -25774497.05709 -20083964.48109  18712761.81009  18712763.16309
 -21694054.66309 -16904431.70208  19432836.19609  19432838.63108
 93 04 07 02 48 00.0000000  0  5 20 16 13 24 12
 -11104948.90708  -8653192.82208  21139330.67708  21139333.07208
 -10271622.47408  -8003840.86908  21666572.60408  21666575.25008
  -4610700.68108  -3592717.12208  21285433.08308  21285435.64308
 -25693847.60709 -20021120.68809  18728108.83909  18728110.20709
 -21602817.11809 -16833337.45308  19450198.06309  19450200.48108
 93 04 07 02 50 00.0000000  0  5 20 16 13 24 12
 -11492412.30308  -8955112.07808  21065598.60208  21065600.93108
 -10646505.65708  -8295957.29408  21595234.38208  21595237.06308
  -4367643.22708  -3403321.67508  21331685.36108  21331687.88808
 -25606095.35909 -19952742.26009  18744807.49809  18744808.80009
 -21502274.83008 -16754992.76008  19469330.58208  19469332.98808
 93 04 07 02 52 00.0000000  0  5 16 13 24 12 20
 -11020168.87708  -8587123.11808  21524128.43608  21524131.03708
  -4125630.17208  -3214740.04208  21377738.94708  21377741.39808
 -25511703.54109 -19879190.14109  18762769.62309  18762770.93309
 -21392536.44808 -16669482.27008  19490213.06708  19490215.41008
 -11877959.48408  -9255538.17108  20992231.16108  20992233.50108
 93 04 07 02 54 00.0000000  0  5 16 13 12 24 20
 -11392413.44808  -8877183.51208  21453292.41908  21453294.85808
  -3884683.91008  -3026989.68008  21423589.47308  21423591.91908
 -21273661.39208 -16576852.31408  19512834.18708  19512836.53608
 -25410409.48509 -19800259.65809  18782045.18809  18782046.49509
 -12261427.21808  -9554343.92408  20919259.44308  20919261.74108
 93 04 07 02 56 00.0000000  0  5 16 13 24 12 20
 -11762979.74508  -9165936.17708  21382775.81508  21382778.08908
  -3644833.41108  -2840093.16608  21469231.47708  21469233.98308
 -25302316.12109 -19716031.01409  18802614.66409  18802615.93609
 -21145728.87308 -16477164.59308  19537178.90708  19537181.23508
 -12642658.75408  -9851407.20608  20846713.35808  20846715.59208
 93 04 07 02 58 00.0000000  0  5 16 13 12 24 20
 -12131434.21608  -9453043.27308  21312660.99808  21312663.21708
  -3406065.08008  -2654039.91508  21514667.56908  21514670.02908
 -21008785.32508 -16370455.30608  19563238.36708  19563240.72008
 -25187830.63709 -19626821.50309  18824400.48009  18824401.74309
 -13021461.27208 -10146577.77808  20774629.53308  20774631.65008
 93 04 07 03 00 00.0000000  0  5 16 13 24 12 20
 -12497719.86908  -9738460.37508  21242958.92108  21242961.12208
  -3168417.89808  -2468860.27808  21559890.23508  21559892.76408
 -25067115.65609 -19532757.82909  18847371.72409  18847372.98709
 -20862934.04908 -16256804.93808  19590992.93408  19590995.29008
 -13397688.72508 -10439741.80908  20703035.70708  20703037.72108
 93 04 07 03 02 00.0000000  0  6 16 13 03 24 12 20
 -12862178.97408 -10022454.22508  21173604.41808  21173606.60208
  -2931989.56908  -2284630.39408  21604881.00508  21604883.53508
        -0.02017        -0.39817  23940931.12717  23940936.22217
 -24940089.83609 -19433776.62009  18871543.90009  18871545.18009
 -20708353.79708 -16136352.76608  19620408.57708  19620410.90708
 -13771261.21608 -10730837.03408  20631947.05808  20631948.99508
 93 04 07 03 04 00.0000000  0  6 16 13 03 24 12 20
 -13223941.47308 -10304346.89008  21104763.18208  21104765.26608
  -2696750.33408  -2101327.07908  21649645.68108  21649648.09008
   -280535.17107   -218598.48607  23887546.19707  23887551.45607
 -24806825.62609 -19329934.33009  18896903.15009  18896904.42609
 -20545098.05308 -16009140.48308  19651475.11008  19651477.39508
 -14141966.58208 -11019698.14708  20561404.08208  20561405.90808
 93 04 07 03 06 00.0000000  0  6 16 13 03 24 12 20
 -13582741.59408 -10583931.18408  21036485.60508  21036487.65208
  -2462664.44308  -1918922.46708  21694190.80108  21694193.22908
   -559646.49507   -436087.16707  23834432.86107  23834437.75407
 -24667486.29409 -19221358.18709  18923418.51509  18923419.74809
 -20373226.42008 -15875214.54608  19684181.20308  19684183.46708
 -14509592.02808 -11306159.32608  20491447.09508  20491448.86208
 93 04 07 03 08 00.0000000  0  6 13 03 24 20 12 16
  -2229758.60208  -1737437.38608  21738511.28408  21738513.69608
   -837377.17207   -652500.04207  23781581.97607  23781586.58607
 -24522491.74309 -19108375.38009  18951010.03909  18951011.27909
 -14873990.55608 -11590106.02408  20422104.18908  20422105.89608
 -20192871.87208 -15734678.54208  19718501.54608  19718503.77808
 -13938753.74908 -10861342.99408  20968738.53408  20968740.57608
 93 04 07 03 10 00.0000000  0  6 13 03 24 20 12 16
  -1998067.17708  -1556898.58908  21782600.60508  21782602.98508
  -1113779.98807   -867878.29207  23728983.68207  23728988.21907
 -24371398.49209 -18990640.34909  18979762.10609  18979763.30109
 -15235020.31708 -11871427.70708  20353402.30008  20353404.01408
 -20004182.32308 -15587647.73108  19754407.98108  19754410.20808
 -14291982.93108 -11136586.23208  20901521.07808  20901522.95908
 93 04 07 03 12 00.0000000  0  6 13 03 24 20 12 16
  -1767570.17608  -1377290.52007  21826462.74008  21826465.10407
  -1388856.86407  -1082223.38307  23676638.13907  23676642.40407
 -24214385.52009 -18868292.55608  19009640.69309  19009641.84908
 -15592488.38708 -12149974.04508  20285378.20608  20285379.85208
 -19807258.36008 -15434200.52408  19791881.40308  19791883.64008
 -14641661.85608 -11409063.11408  20834979.20208  20834981.08808
 93 04 07 03 14 00.0000000  0  6 13 03 24 20 12 16
  -1538296.19408  -1198635.46408  21870092.27308  21870094.47908
  -1662661.13607  -1295576.84007  23624534.60407  23624538.62907
 -24052162.72409 -18741885.16108  19040510.66009  19040511.82908
 -15946249.94608 -12425632.20208  20218059.48008  20218061.04608
 -19602256.35108 -15274458.73108  19830892.01908  19830894.21708
 -14987883.73208 -11678846.34108  20769095.32208  20769097.23008
 93 04 07 03 16 00.0000000  0  6 13 03 24 20 12 16
  -1310202.39708  -1020900.02508  21913496.97508  21913499.26808
  -1935181.31407  -1507929.67407  23572675.32507  23572679.15107
 -23884378.81809 -18611144.43608  19072438.85809  19072440.02508
 -16296094.76208 -12698238.35908  20151486.05808  20151487.57908
 -19389272.13908 -15108497.03208  19871421.59208  19871423.82108
 -15330377.04308 -11945724.16308  20703920.97908  20703922.88008
 93 04 07 03 18 00.0000000  0  6 13 03 24 20 12 16
  -1083293.89908   -844088.20608  21956676.14208  21956678.53708
  -2206455.70707  -1719311.75207  23521052.90407  23521056.95207
 -23711162.64108 -18476170.77708  19105400.76308  19105401.91608
 -16641858.67408 -12967664.61608  20085689.25308  20085690.77508
 -19168455.91508 -14936432.51108  19913441.52908  19913443.84508
 -15668966.02608 -12209559.56708  20639489.58808  20639491.41708
 93 04 07 03 20 00.0000000  0  6 13 03 24 20 12 16
   -857600.83108   -668223.46808  21999624.13008  21999626.50308
  -2476554.72007  -1929778.03207  23469654.38807  23469658.33007
 -23533199.29508 -18337498.02408  19139266.07908  19139267.19808
 -16983408.56708 -13233807.24308  20020694.39208  20020695.82808
 -18939992.04008 -14758408.80508  19956916.76508  19956919.16508
 -16003495.19208 -12470231.47108  20575830.68608  20575832.48408
 93 04 07 03 22 00.0000000  0  6 13 03 24 20 12 16
   -633133.85308   -493314.11908  22042338.80708  22042341.07308
  -2745528.27307  -2139367.40007  23418470.18707  23418473.96407
 -23350058.95708 -18194791.24708  19174116.50108  19174117.64208
 -17320588.80908 -13496544.95008  19956531.02808  19956532.41208
 -18704049.39408 -14574557.50408  20001815.23608  20001817.64008
 -16333509.10108 -12727384.98208  20513030.91308  20513032.67908
 93 04 07 03 24 00.0000000  0  6 13 03 20 12 16 24
   -409884.88708   -319353.87608  22084821.65008  22084823.98308
  -3013415.52807  -2348110.37007  23367492.72207  23367496.32507
 -17653233.32908 -13755748.34808  19893230.78808  19893232.14908
 -18460788.58208 -14385003.73108  20048106.29908  20048108.71908
 -16659030.60008 -12981037.90808  20451086.14708  20451087.79308
 -23162164.18608 -18048379.72208  19209871.66108  19209872.84108
 93 04 07 03 26 00.0000000  0  6 13 03 20 12 16 24
   -187793.38708   -146295.55508  22127084.20408  22127086.58208
  -3280201.81707  -2555995.50307  23316724.81307  23316728.23907
 -17981119.81008 -14011244.18908  19830835.94508  19830837.26008
 -18210321.11108 -14189834.38108  20095768.82408  20095771.15708
 -16979938.04908 -13231095.52508  20390019.35708  20390020.98008
 -22969528.14708 -17898273.70708  19246529.12408  19246530.26108
 93 04 07 03 28 00.0000000  0  6 13 03 20 12 16 24
     33133.12208     25854.97307  22169125.06708  22169127.43007
  -3545946.40608  -2763068.95307  23266155.14508  23266158.41307
 -18304100.13808 -14262917.05608  19769374.74808  19769376.03508
 -17952835.46908 -13989196.27508  20144766.80608  20144769.13708
 -17296143.00408 -13477488.89108  20329847.48808  20329848.98608
 -22772029.39708 -17744378.57308  19284111.87208  19284112.98708
 93 04 07 03 30 00.0000000  0  6 13 03 20 12 16 24
    252917.02608    197115.16507  22210948.49508  22210950.88607
  -3810682.05508  -2969356.23107  23215777.48008  23215780.65907
 -18621997.19008 -14510628.92408  19708880.83008  19708882.14008
 -17688495.58208 -13783217.18708  20195069.06608  20195071.40108
 -17606957.32108 -13719681.78108  20270701.43508  20270702.93908
 -22570125.11008 -17587050.56008  19322532.95608  19322534.09308
 93 04 07 03 32 00.0000000  0  6 13 03 20 12 16 24
    471582.60008    367503.91607  22252559.16308  22252561.60607
  -4074441.39708  -3174882.76907  23165585.44208  23165588.67907
 -18934634.28708 -14754242.11208  19649387.83508  19649389.13608
 -17417469.24308 -13572027.90108  20246643.71108  20246646.05308
 -17912618.77308 -13957859.44108  20212535.88808  20212537.43608
 -22363956.79808 -17426399.93308  19361765.49508  19361766.61708
 93 04 07 03 34 00.0000000  0  6 13 03 20 12 16 24
    689148.19208    537035.52807  22293960.55808  22293962.99807
  -4337268.61008  -3379682.99808  23115570.91708  23115574.11208
 -19241848.65608 -14993629.81008  19590926.80608  19590928.06508
 -17139938.73808 -13355770.43508  20299456.01108  20299458.41508
 -18212752.32808 -14191729.64808  20155422.21708  20155423.79708
 -22153232.71508 -17262199.34408  19401864.94608  19401866.07108
 93 04 07 03 36 00.0000000  0  6 13 03 20 12 16 24
    905622.56908    705716.86907  22335154.18108  22335156.65907
  -4599215.34108  -3583797.18708  23065724.02108  23065727.17608
 -19543478.86208 -15228666.21908  19533528.42108  19533529.67008
 -16856096.60008 -13134594.82808  20353469.43108  20353471.91108
 -18507352.36008 -14421288.01708  20099361.62008  20099363.19408
 -21938557.54908 -17094919.98408  19442716.24508  19442717.37008
 93 04 07 03 38 00.0000000  0  6 03 13 20 12 16 24
  -4860340.14208  -3787270.92508  23016033.49308  23016036.77708
   1121013.14208    873553.69807  22376141.59508  22376144.14407
 -19839375.97008 -15459235.28408  19477220.97708  19477222.20908
 -16566143.63408 -12908657.53608  20408645.72208  20408648.20308
 -18796015.16608 -14646219.99608  20044430.82908  20044432.42708
 -21720024.08108 -16924634.15708  19484301.78808  19484302.88308
 93 04 07 03 40 00.0000000  0  6 03 13 20 12 16 24
  -5120660.40508  -3990117.74508  22966496.24408  22966499.37908
   1335373.69708   1040587.91607  22416933.16708  22416935.48007
 -20129349.86008 -15685188.88508  19422040.71108  19422041.93308
 -16270243.23308 -12678085.88308  20464953.78808  20464956.26908
 -19078502.44808 -14866339.87708  19990675.20208  19990676.78808
 -21497515.76608 -16751251.03808  19526643.73408  19526644.80108
 93 04 07 03 42 00.0000000  0  6 03 13 20 12 16 24
  -5380232.53408  -4192381.56708  22917101.01808  22917104.32608
   1548717.63708   1206829.95307  22457531.14008  22457533.54407
 -20413250.80008 -15906410.33708  19368016.11208  19368017.32008
 -15968600.31708 -12443039.53908  20522354.60408  20522357.08108
 -19355102.63108 -15081872.40608  19938039.89708  19938041.47008
 -21271502.70808 -16575136.94608  19569652.55308  19569653.63908
 93 04 07 03 44 00.0000000  0  6 03 13 20 12 16 24
  -5639102.79308  -4394098.46108  22867839.52408  22867842.64008
   1761069.14608   1372298.66307  22497940.23208  22497942.68807
 -20690918.11708 -16122774.41108  19315177.71008  19315178.92608
 -15661411.52108 -12203671.73108  20580810.72408  20580813.26408
 -19625326.02308 -15292436.00408  19886617.95008  19886619.53908
 -21042116.42008 -16396394.37108  19613303.24308  19613304.29908
 93 04 07 03 46 00.0000000  0  6 03 13 20 12 16 24
  -5897335.32808  -4595318.42108  22818699.34808  22818702.35008
   1972439.87508   1537003.13307  22538162.82508  22538165.13007
 -20962211.08108 -16334171.43408  19263552.31808  19263553.50808
 -15348893.23208 -11960151.07808  20640281.08008  20640283.58208
 -19889014.58008 -15497907.53808  19836439.69808  19836441.17308
 -20809200.08008 -16214901.09708  19657625.76608  19657626.78008
 93 04 07 03 48 00.0000000  0  7 03 17 13 20 12 16 24
  -6154920.64408  -4796034.06508  22769682.25008  22769685.38108
        -0.99317        -0.73617  23476603.67117  23476607.78817
   2182917.08408   1701011.35307  22578215.31408  22578217.65607
 -21226916.83208 -16540435.56708  19213180.42608  19213181.57308
 -15031190.48408 -11712590.58908  20700738.00108  20700740.47108
 -20145987.25408 -15698145.91708  19787539.40708  19787540.82708
 -20572986.52608 -16030838.57208  19702575.69708  19702576.74608
 93 04 07 03 50 00.0000000  0  7 03 17 13 20 12 16 24
  -6411908.11508  -4996283.87708  22720779.10408  22720782.12808
   -419781.60207   -327101.51707  23396721.37007  23396725.15507
   2392530.08807   1864346.17607  22618103.20107  22618105.69907
 -21484884.34308 -16741449.10808  19164090.74808  19164091.88008
 -14708508.76708 -11461150.37808  20762142.31808  20762144.90008
 -20396012.26108 -15892970.53008  19739961.17308  19739962.64408
 -20333640.32908 -15844335.02608  19748121.72008  19748122.79108
 93 04 07 03 52 00.0000000  0  7 03 17 13 20 12 16 24
  -6668372.41608  -5196126.05608  22671975.53908  22671978.46108
   -837752.13407   -652791.98507  23317183.64507  23317187.14107
   2601283.51507   2027011.19507  22657827.67507  22657830.11807
 -21735989.78208 -16937115.59108  19116306.92508  19116308.02708
 -14381080.77908 -11206011.78208  20824449.84408  20824452.48308
 -20639058.65108 -16082357.25008  19693710.96508  19693712.36708
 -20091108.24508 -15655348.97508  19794274.05908  19794275.14208
 93 04 07 03 54 00.0000000  0  7 03 17 13 20 12 16 24
  -6924323.69508  -5395568.49808  22623269.50508  22623272.49008
  -1253885.10707   -977050.68007  23237995.64507  23237998.99407
   2809247.19707   2189060.83507  22697401.88407  22697404.21807
 -21980046.65708 -17127289.70608  19069864.37908  19069865.46808
 -14049077.25608 -10947307.82808  20887628.09708  20887630.73008
 -20875007.86308 -16266213.70008  19648811.21408  19648812.65108
 -19845687.13908 -15464111.73708  19840976.08208  19840977.21808
 93 04 07 03 56 00.0000000  0  7 03 17 13 20 12 16 24
  -7179795.34108  -5594637.20408  22574654.76308  22574657.68308
  -1667895.00407  -1299655.13307  23159211.62707  23159214.91107
   3016472.64007   2350535.20507  22736835.58707  22736837.92407
 -22216895.98608 -17311847.53908  19024793.38808  19024794.46608
 -13712693.09108 -10685190.38708  20951639.94108  20951642.57908
 -21103677.93808 -16444398.09208  19605296.69208  19605298.07808
 -19597549.83308 -15270757.97008  19888195.03808  19888196.13608
 93 04 07 03 58 00.0000000  0  7 12 03 17 13 20 16 24
 -13372179.44508 -10419855.17908  21016437.65508  21016440.25008
  -7434875.87508  -5793401.13208  22526114.44408  22526117.21408
  -2080002.68607  -1620777.41607  23080789.74207  23080792.67507
   3222954.76807   2511430.39507  22776127.78207  22776130.08907
 -22446435.11108 -17490709.10608  18981113.48108  18981114.51308
 -21324828.13308 -16616722.83508  19563213.17008  19563214.50308
 -19346851.17708 -15075408.33508  19935901.40008  19935902.45108
 93 04 07 04 00 00.0000000  0  7 12 03 17 13 20 16 24
 -13027701.29008 -10151430.74808  21081989.78108  21081992.40608
  -7689565.85808  -5991860.71708  22477648.46508  22477651.30208
  -2489763.79308  -1940071.26607  23002814.45308  23002817.15107
   3428781.59507   2671814.94507  22815295.36607  22815297.70407
 -22668478.22108 -17663729.64108  18938860.04408  18938861.02108
 -21538305.67408 -16783068.88308  19522589.73808  19522591.03208
 -19093745.69208 -14878183.24808  19984065.71608  19984066.78208
 93 04 07 04 02 00.0000000  0  7 12 03 17 13 20 16 24
 -12679427.15408  -9880048.41608  21148264.16308  21148266.84708
  -7943868.11808  -6190018.20608  22429256.21608  22429259.17308
  -2897361.80208  -2257679.65107  22925250.72508  22925253.32707
   3634032.38407   2831750.62807  22854353.23407  22854355.62907
 -22882846.48109 -17830769.78108  18898067.11209  18898068.02908
 -21743900.38208 -16943272.46908  19483466.29508  19483467.53108
 -18837960.16408 -14678869.82508  20032740.06308  20032741.14508
 93 04 07 04 04 00.0000000  0  7 12 03 17 13 20 16 24
 -12327636.43308  -9605925.89308  21215207.76908  21215210.49908
  -8197894.92608  -6387960.96908  22380916.31508  22380919.30508
  -3302714.15207  -2573538.21907  22848114.31307  22848116.93207
   3838681.27107   2991217.30907  22893296.65307  22893298.80807
 -23089472.50409 -17991777.02308  18858747.44509  18858748.36508
 -21941568.83708 -17097299.74908  19445851.16808  19445852.36508
 -18579678.72908 -14477611.54208  20081889.36508  20081890.47208
 93 04 07 04 06 00.0000000  0  7 12 03 17 13 20 16 24
 -11972551.87908  -9329236.73808  21282778.19108  21282780.89808
  -8451700.91108  -6585731.61808  22332618.50308  22332621.37108
  -3705516.01407  -2887409.46208  22771463.39307  22771465.97308
   4042762.40107   3150241.58407  22932131.93507  22932134.19207
 -23288237.35609 -18146658.67108  18820923.70009  18820924.61708
 -22131378.80408 -17245203.54908  19409731.42808  19409732.70208
 -18319330.06108 -14274742.42508  20131432.06508  20131433.15308
 93 04 07 04 08 00.0000000  0  7 12 03 17 13 20 16 24
 -11614376.65008  -9050139.27808  21350936.71508  21350939.49208
  -8705320.18008  -6783356.76708  22284356.21508  22284358.95508
  -4106093.75107  -3199547.67708  22695235.87607  22695238.31408
   4246327.77507   3308863.96807  22970869.19407  22970871.46907
 -23479003.73309 -18295307.74208  18784622.04109  18784622.92608
 -22312959.38908 -17386694.84908  19375177.73608  19375179.00208
 -18057151.34208 -14070447.29608  20181323.06708  20181324.11008
 93 04 07 04 10 00.0000000  0  7 12 03 17 13 20 16 24
 -11253349.76008  -8768819.72708  21419637.94008  21419640.69508
  -8958821.42908  -6980889.93108  22236116.38708  22236119.02508
  -4504079.91908  -3509666.54808  22619501.54408  22619503.82508
   4449398.53907   3467101.01707  23009512.28507  23009514.51307
 -23661675.64509 -18437649.44308  18749860.69809  18749861.59108
 -22486238.29208 -17521717.28708  19342203.80808  19342205.03308
 -17793023.33408 -13864633.24408  20231584.89108  20231585.92508
 93 04 07 04 12 00.0000000  0  6 03 12 17 20 16 24
  -9212236.05008  -7178355.57708  22187892.94508  22187895.49208
 -10889673.49408  -8485435.72408  21488843.33408  21488846.06308
  -4899645.16308  -3817899.03108  22544227.88408  22544230.08508
 -23836126.35209 -18573585.01108  18716663.75509  18716664.68408
 -22651308.94508 -17650343.67208  19310791.81408  19310793.01808
 -17527318.13708 -13657590.21408  20282146.87908  20282147.88008
 93 04 07 04 14 00.0000000  0  6 03 12 17 20 16 24
  -9465582.76708  -7375768.29108  22139682.28608  22139684.91208
 -10523538.06208  -8200135.47208  21558516.65808  21558519.40108
  -5292369.94008  -4123918.16908  22469494.67408  22469496.98708
 -24002217.92809 -18703006.96708  18685057.55809  18685058.44908
 -22808157.18708 -17772562.98808  19280944.51808  19280945.71908
 -17259859.33408 -13449180.74108  20333042.56208  20333043.54108
 93 04 07 04 16 00.0000000  0  6 03 12 17 20 16 24
  -9718875.78608  -7573139.18108  22091481.99008  22091484.59708
 -10155131.54708  -7913065.56408  21628622.15508  21628624.93108
  -5682424.05408  -4427856.29008  22395269.62608  22395271.98708
 -24159816.40309 -18825810.93608  18655067.55409  18655068.39308
 -22956409.73608 -17888084.38708  19252732.88808  19252734.09308
 -16990656.27108 -13239412.10008  20384270.21908  20384271.22408
 93 04 07 04 18 00.0000000  0  7 03 12 20 16 17 24 13
  -9972172.44208  -7770512.95908  22043281.23408  22043283.62108
  -9784684.42408  -7624405.56808  21699115.93208  21699118.78808
 -24308835.02809 -18941929.30408  18626710.21909  18626711.03608
 -23095991.47208 -17996849.31108  19226171.36208  19226172.54308
  -6069718.29008  -4729643.87008  22321569.89308  22321572.16608
 -16720042.24008 -13028544.00008  20435766.41008  20435767.36408
        -0.22517        -0.40016  23163377.27317  23163379.54916
 93 04 07 04 20 00.0000000  0  7 03 20 12 16 24 17 13
 -10225501.37108  -7967911.89908  21995074.08308  21995076.42508
 -24449165.22409 -19051277.47308  18600006.22409  18600007.05908
  -9412398.88908  -7334313.04308  21769959.61408  21769962.49508
 -23226617.18908 -18098635.52608  19201314.08108  19201315.20208
 -16447832.98508 -12816432.86008  20487566.07308  20487566.97508
  -6454146.77008  -5029198.39608  22248415.48708  22248417.58708
    201495.86207    157009.51006  23201720.64007  23201722.93406
 93 04 07 04 22 00.0000000  0  7 03 20 12 16 24 17 13
 -10478946.81508  -8165401.66508  21946844.79308  21946847.14908
 -24580762.35809 -19153820.66708  18574964.09809  18574964.94908
  -9038534.69708  -7042990.39808  21841103.70708  21841106.62208
 -23348624.45708 -18193706.07408  19178096.79308  19178097.89508
 -16174493.74508 -12603441.21508  20539580.72708  20539581.64308
  -6835806.04808  -5326595.08608  22175788.13108  22175790.18608
    402787.69407    313860.25706  23240025.40607  23240027.36206
 93 04 07 04 24 00.0000000  0  8 03 20 12 16 24 17 13 25
 -10732493.94208  -8362970.68208  21898596.28008  21898598.54308
 -24703486.34009 -19249449.71608  18551610.48909  18551611.30308
  -8663252.31408  -6750562.67108  21912517.69408  21912520.62708
 -23461682.02208 -18281802.80808  19156582.68808  19156583.78708
 -15900129.32208 -12389650.73008  20591790.54508  20591791.51708
  -7214438.63608  -5621633.33308  22103736.61108  22103738.45708
    603976.64307    470630.81306  23278310.35007  23278312.54106
         0.39217         0.46617  23110027.98217  23110029.74217
 93 04 07 04 26 00.0000000  0  8 03 20 12 16 24 17 13 25
 -10986109.22508  -8560592.81108  21850334.72408  21850337.02908
 -24817188.54709 -19338048.82608  18529973.63809  18529974.45508
  -8286694.71608  -6457141.28008  21984174.32508  21984177.22408
 -23565742.35908 -18362888.72208  19136780.54108  19136781.66508
 -15624598.23508 -12174951.15508  20644222.30408  20644223.28408
  -7590122.97208  -5914374.23208  22032246.15108  22032248.09908
    805180.29906    627412.84706  23316598.18506  23316600.27406
   -120084.27007    -93571.92107  23087176.47707  23087178.07807
 93 04 07 04 28 00.0000000  0  7 03 12 20 16 17 25 24
 -11239837.18608  -8758302.73208  21802051.88408  21802054.06508
  -7909083.07908  -6162898.53608  22056031.50708  22056034.42508
 -24921803.65509 -19419567.08408  18510066.00409  18510066.85908
 -23660904.58808 -18437041.04008  19118671.75008  19118672.79008
  -7962650.94808  -6204655.61208  21961356.18308  21961358.19608
   -232553.26907   -181210.00007  23065774.19307  23065775.98607
 -15347786.25008 -11959253.47608  20696897.80208  20696898.87608
 93 04 07 04 30 00.0000000  0  7 03 12 20 16 17 25 24
 -11493676.55708  -8956099.45708  21753747.75108  21753749.79108
  -7530592.76508  -5867971.11108  22128055.82408  22128058.80208
 -25017228.40209 -19493924.02008  18491907.29709  18491908.14508
 -23746809.24008 -18503979.65708  19102324.58908  19102325.61508
  -8331768.42208  -6492279.47208  21891115.39308  21891117.41108
   -337244.33706   -262787.30607  23045851.93906  23045853.49907
 -15070266.90408 -11743004.61408  20749707.91408  20749709.04308
 93 04 07 04 32 00.0000000  0  7 03 12 20 16 17 25 24
 -11747678.49308  -9154022.84808  21705412.51108  21705414.60408
  -7151453.44908  -5572537.97608  22200203.59308  22200206.66608
 -25103419.08409 -19561085.59308  18475505.76409  18475506.62608
 -23823475.91708 -18563719.85108  19087735.28908  19087736.29608
  -8697742.24808  -6777453.73708  21821472.74708  21821474.81008
   -434208.91107   -338343.95307  23027400.30007  23027401.64007
 -14792198.61808 -11526328.01808  20802622.60408  20802623.65308
 93 04 07 04 34 00.0000000  0  7 03 12 20 16 17 25 24
 -12001872.56308  -9352095.94908  21657040.97308  21657042.85708
  -6771872.13208  -5276760.43708  22272435.53808  22272438.73808
 -25180316.89409 -19621005.97008  18460872.63509  18460873.46408
 -23890992.81408 -18616330.36608  19074887.23708  19074888.21208
  -9060755.42708  -7060321.00908  21752393.55108  21752395.59508
   -523348.93307   -407803.56607  23010437.35207  23010438.67007
 -14512993.37908 -11308765.48808  20855753.64508  20855754.62008
 93 04 07 04 36 00.0000000  0  7 03 12 20 16 17 25 24
 -12256322.66408  -9550368.57508  21608620.64008  21608622.41708
  -6392091.79708  -4980827.79508  22344705.45108  22344708.61508
 -25247907.75809 -19673674.18408  18448010.52809  18448011.32608
 -23949402.13708 -18661844.06408  19063772.30308  19063773.27108
  -9420273.74408  -7340465.01508  21683979.31708  21683981.49508
   -604774.69607   -471252.10407  22994942.62207  22994943.98407
 -14233170.83108 -11090721.94208  20909002.11908  20909003.00408
 93 04 07 04 38 00.0000000  0  7 03 20 12 16 24 17 25
 -12511046.35408  -9748854.40508  21560148.19708  21560150.03108
 -25306139.20309 -19719049.34208  18436929.45909  18436930.27108
  -6012308.71508  -4684893.02208  22416975.86608  22416979.08908
 -23998512.57108 -18700111.87908  19054426.80908  19054427.79208
 -13952954.32708 -10872371.42108  20962325.55608  20962326.45708
  -9776479.36908  -7618027.70008  21616195.51308  21616197.64508
   -678552.65607   -528741.32207  22980902.95507  22980904.45907
 93 04 07 04 40 00.0000000  0  7 03 20 12 16 24 17 25
 -12766028.24908  -9947541.50308  21511626.68308  21511628.53808
 -25354933.60709 -19757070.96208  18427644.17709  18427645.00408
  -5632687.31408  -4389084.23208  22489215.43408  22489218.70708
 -24038192.29808 -18731031.10108  19046876.01208  19046876.99008
 -13671878.55408 -10653351.34308  21015812.41308  21015813.41908
 -10129233.39008  -7892900.81208  21549068.57608  21549070.56908
   -744909.13107   -580447.57707  22968275.35007  22968277.05607
 93 04 07 04 42 00.0000000  0  7 03 20 12 16 24 17 25
 -13021332.55808 -10146479.84008  21463043.88708  21463045.56908
 -25394301.90709 -19787747.57508  18420152.66309  18420153.48108
  -5253470.85408  -4093590.96908  22561378.01408  22561381.33708
 -24068754.44308 -18754845.71908  19041060.21308  19041061.13608
 -13390552.01108 -10434135.86008  21069347.02908  21069348.08408
 -10478539.26908  -8165087.05208  21482597.86608  21482599.60308
   -803706.56507   -626263.64707  22957086.73407  22957088.08407
 93 04 07 04 44 00.0000000  0  7 03 12 20 16 24 17 25
 -13276985.23308 -10345689.57508  21414394.65008  21414396.26808
  -4874865.81108  -3798574.16608  22633424.29408  22633427.51308
 -25424224.34909 -19811063.78308  18414458.60909  18414459.43008
 -24090141.57708 -18771510.97008  19036990.33008  19036991.25308
 -13109001.73408 -10214746.04508  21122924.31408  21122925.38108
 -10824600.47708  -8434744.99508  21416744.44508  21416746.17408
   -854768.67707   -666052.22007  22947370.02607  22947370.92707
 93 04 07 04 46 00.0000000  0  7 03 20 12 16 24 17 25
 -13533002.33308 -10545183.31208  21365676.08608  21365677.79408
 -25444679.88309 -19827003.18908  18410566.07909  18410566.90908
  -4497068.96108  -3504187.11408  22705316.80408  22705319.98808
 -24102139.34108 -18780859.83408  19034707.20208  19034708.09708
 -12827394.48008  -9995311.83808  21176512.47808  21176513.47608
 -11167121.81208  -8701644.59908  21351564.71408  21351566.44908
   -898420.06707   -700066.22507  22939063.29707  22939064.45307
 93 04 07 04 48 00.0000000  0  7 03 20 12 16 24 17 25
 -13789386.19508 -10744962.81708  21316887.73008  21316889.47708
 -25455643.61009 -19835546.36408  18408479.75409  18408480.59808
  -4120263.46108  -3210572.59608  22777020.52108  22777023.86008
 -24104618.44508 -18782791.56008  19034235.45008  19034236.32708
 -12545612.08708  -9775741.16108  21230133.92808  21230134.89508
 -11506065.40008  -8965756.35708  21287065.73108  21287067.41808
   -934763.13107   -728385.44907  22932147.31007  22932148.56207
 93 04 07 04 50 00.0000000  0  7 03 12 20 16 24 17 25
 -14046199.57008 -10945077.03808  21268017.68908  21268019.44308
  -3744693.31408  -2917920.67707  22848489.27108  22848492.58407
 -25457160.07509 -19836728.02008  18408191.18309  18408192.02408
 -24097960.43708 -18777603.47208  19035502.39108  19035503.26708
 -12263922.39508  -9556242.72508  21283737.62608  21283738.62308
 -11841776.63708  -9227349.41208  21223181.88008  21223183.68708
   -963481.02607   -750762.96607  22926682.26607  22926683.93307
 93 04 07 04 52 00.0000000  0  7 03 20 12 16 24 17 25
 -14303442.59608 -11145526.04608  21219065.85208  21219067.60808
 -25449219.83009 -19830540.81108  18409702.17709  18409702.99608
  -3370540.29208  -2626373.03307  22919688.32708  22919691.70607
 -24082506.77208 -18765561.63008  19038443.14008  19038443.96308
 -11982011.27308  -9336571.74008  21337383.58808  21337384.58308
 -12173735.46708  -9486018.54108  21160012.16308  21160013.94908
   -985020.94807   -767547.30807  22922583.53107  22922584.71807
 93 04 07 04 54 00.0000000  0  8 03 20 12 16 24 17 26 25
 -14561130.17708 -11346321.47708  21170029.50608  21170031.18408
 -25431836.88109 -19816995.67208  18413010.04009  18413010.86408
  -2998001.11908  -2336082.94507  22990580.20908  22990583.68907
 -24057872.35308 -18746365.96408  19043130.93608  19043131.75108
 -11700220.15308  -9116994.25808  21391006.74608  21391007.69008
 -12502426.12008  -9742141.05008  21097464.40208  21097466.08708
         0.43817        -0.24918  23030053.66117  23030055.12418
   -999373.58107   -778731.20207  22919852.35307  22919853.44207
 93 04 07 04 56 00.0000000  0  8 03 20 12 16 24 17 26 25
 -14819237.38608 -11547443.89808  21120913.23508  21120914.94708
 -25404997.13209 -19796081.60709  18418117.48009  18418118.34309
  -2627233.77407  -2047173.55607  23061134.98907  23061138.62507
 -24023761.99808 -18719786.44108  19049621.84008  19049622.67308
 -11418603.93508  -8897553.06408  21444596.54808  21444597.55808
 -12827533.71508  -9995471.57108  21035598.42608  21035600.07008
   -307002.65407   -239223.41308  22971632.84907  22971634.37308
  -1006507.92807   -784290.45107  22918494.59907  22918495.93907
 93 04 07 04 58 00.0000000  0  8 03 24 20 12 16 26 25 17
 -15077747.87808 -11748880.56308  21071720.16308  21071721.94008
 -11137275.52908  -8678336.13308  21498131.49208  21498132.52008
 -25368701.09409 -19767799.00509  18425024.37609  18425025.30709
  -2258403.97607  -1759773.95907  23131321.14607  23131324.75907
 -23980496.51708 -18686073.05908  19057854.95908  19057855.80208
   -616332.81807   -480259.88008  22912769.30307  22912770.78908
  -1006562.07707   -784332.69507  22918484.36507  22918485.78407
 -13148754.48308 -10245773.39008  20974472.08508  20974473.76508
 93 04 07 05 00 00.0000000  0  8 03 24 20 12 16 26 25 17
 -15336651.52508 -11950623.56008  21022452.39508  21022454.09608
 -10856411.19008  -8459480.80608  21551578.26408  21551579.24908
 -25322966.71509 -19732161.86208  18433727.39609  18433728.29008
  -1891684.46107  -1474018.70607  23201105.71507  23201109.49407
 -23928290.00508 -18645392.64408  19067789.48708  19067790.36608
   -927661.67907   -722853.76308  22853525.30307  22853526.83408
   -999427.17107   -778773.14007  22919842.20307  22919843.48507
 -13466453.90808 -10493331.30308  20914015.86308  20914017.49208
 93 04 07 05 02 00.0000000  0  8 24 20 12 16 26 25 03 17
 -10575693.00908  -8240739.38008  21604997.21008  21604998.14508
 -25267828.91409 -19689197.37508  18444219.80309  18444220.63608
  -1527257.18607  -1190049.63307  23270454.09507  23270457.97307
 -23867093.43908 -18597706.99008  19079434.78208  19079435.65908
  -1240800.29307   -966857.82408  22793936.87807  22793938.33308
   -985509.31607   -767928.14407  22922490.79807  22922492.13907
 -15595947.08608 -12152671.94608  20973110.08908  20973111.68208
 -13780387.11508 -10737954.48908  20854276.25708  20854277.88608
 93 04 07 05 04 00.0000000  0  8 24 20 12 16 26 25 03 17
 -10295010.97708  -8022026.11508  21658409.27908  21658410.05108
 -25203326.72509 -19638935.97108  18456494.19209  18456495.03508
  -1165296.75307   -908002.77107  23339333.12207  23339336.93307
 -23796659.16708 -18542823.11708  19092838.01508  19092838.83308
  -1555768.57807  -1212287.58608  22734000.30207  22734001.79008
   -964528.89807   -751579.81607  22926483.42707  22926484.83407
 -15855625.60108 -12355018.73208  20923694.82808  20923696.45908
 -14090694.81008 -10979752.58508  20795226.60508  20795228.20708
 93 04 07 05 06 00.0000000  0  8 24 20 12 16 26 03 17 25
 -10014771.05308  -7803657.34108  21711737.07108  21711737.98808
 -25129509.55609 -19581416.15308  18470541.17809  18470542.03508
   -805982.09707   -628017.52907  23407708.64807  23407712.42507
 -23717281.36208 -18480970.26308  19107943.12808  19107943.94208
  -1872366.77807  -1458987.41508  22673753.25407  22673754.92608
 -16115681.77108 -12557659.82508  20874207.69608  20874209.40508
 -14397682.11808 -11218963.35408  20736808.75608  20736810.32008
   -936811.02507   -729981.51307  22931758.12707  22931759.15007
 93 04 07 05 08 00.0000000  0  8 24 20 12 16 26 03 17 25
  -9735077.74808  -7585714.50608  21764960.83908  21764961.91108
 -25046491.30209 -19516726.65108  18486339.05409  18486339.92008
   -449544.49707   -350274.14807  23475536.53807  23475540.40907
 -23629671.18608 -18412702.56908  19124614.72808  19124615.58208
  -2190223.15207  -1706667.61608  22613267.26707  22613269.00308
 -16376163.02508 -12760632.15908  20824639.76908  20824641.38808
 -14700892.36908 -11455230.94408  20679109.64508  20679111.20008
   -902638.03507   -703353.21207  22938260.82407  22938261.85807
 93 04 07 05 10 00.0000000  0  8 24 20 12 16 26 03 17 25
  -9455956.80108  -7368217.66908  21818075.77708  21818076.89108
 -24954303.90009 -19444892.36608  18503881.75309  18503882.70108
    -96124.18107    -74881.90107  23542790.36707  23542794.36507
 -23533116.97508 -18337465.50708  19142988.32908  19142989.21808
  -2509358.65107  -1955344.53308  22552537.82607  22552539.32808
 -16637025.56708 -12963901.61408  20774999.28408  20775000.84208
 -15000304.80708 -11688539.17808  20622133.29308  20622134.70308
   -861762.43307   -671502.13507  22946039.20407  22946040.32207
 93 04 07 05 12 00.0000000  0  7 24 26 25 20 16 03 17
  -9177518.27508  -7151252.57508  21871060.91908  21871061.98108
  -2829548.49207  -2204843.04108  22491607.70207  22491609.11508
   -814597.90607   -634750.58707  22955014.62007  22955015.46607
 -24852989.38309 -19365946.05408  18523161.30509  18523162.29108
 -23427668.89708 -18255298.15308  19163054.47308  19163055.35208
 -16898227.57608 -13167435.60308  20725294.11608  20725295.72408
 -15295971.95208 -11918929.00208  20565869.57308  20565870.94308
 93 04 07 05 14 00.0000000  0  7 24 20 16 26 03 17 25
  -8899715.56508  -6934782.92108  21923925.05308  21923925.99908
 -24742642.79209 -19279961.75808  18544159.61309  18544160.60108
 -23313799.60008 -18166568.81308  19184722.99608  19184723.87308
  -3150791.56407  -2455162.26008  22430477.08007  22430478.49708
 -17159772.10408 -13371236.49108  20675523.78408  20675525.39208
 -15587983.74508 -12146470.53908  20510301.47108  20510302.88308
   -761223.72107   -593160.36207  22965171.23007  22965172.54207
 93 04 07 05 16 00.0000000  0  8 23 20 16 24 03 17 26 25
         0.33717        -0.07117  22978418.81617  22978421.59617
 -24623368.75609 -19187021.02308  18566856.77009  18566857.74708
 -23191353.88508 -18071156.55108  19208023.64308  19208024.46508
  -8622510.61708  -6718779.04908  21976675.43908  21976676.37308
 -17421662.16308 -13575306.63008  20625687.84408  20625689.32108
 -15876574.73308 -12371346.52408  20455384.42608  20455385.78408
  -3472595.53807  -2705918.54408  22369239.59207  22369241.22508
   -701373.21407   -546523.67107  22976560.27107  22976561.79907
 93 04 07 05 18 00.0000000  0  7 24 26 25 20 16 03 17
  -8346257.49808  -6503516.84508  22029244.55408  22029245.60708
  -3794921.74507  -2957081.71508  22307902.94607  22307904.56908
   -635538.34707   -495223.79207  22989088.22107  22989089.68307
 -24495228.07109 -19087171.20408  18591241.18809  18591242.16208
 -23060617.51408 -17969284.04108  19232902.03908  19232902.76508
 -17683845.50708 -13779605.25708  20575795.96208  20575797.38008
 -16161298.53608 -12593209.11708  20401203.25108  20401204.57008
 93 04 07 05 20 00.0000000  0  7 24 26 25 20 16 03 17
  -8070507.01808  -6288646.32408  22081718.14208  22081719.18608
  -4117559.29407  -3208487.39708  22246507.04307  22246508.51208
   -563872.62607   -439380.36607  23002725.89707  23002727.26907
 -24358269.92809 -18980450.63708  18617303.52009  18617304.50308
 -22921452.15408 -17860843.48708  19259384.22308  19259384.99608
 -17946250.99608 -13984077.02008  20525861.75008  20525863.19108
 -16442220.63608 -12812109.36308  20347745.45208  20347746.77108
 93 04 07 05 22 00.0000000  0  7 24 20 03 16 17 26 25
  -7795301.95008  -6074200.78908  22134087.83108  22134088.85808
 -24212614.12009 -18866952.67508  18645020.94409  18645021.96608
 -18208868.48208 -14188713.95008  20475887.28108  20475888.63608
 -22774304.36608 -17746182.85308  19287385.57008  19287386.34708
 -16719663.36508 -13028298.45608  20294949.80508  20294951.09808
  -4440312.15008  -3459982.89708  22185089.33208  22185090.41608
   -486234.41107   -378883.02507  23017499.79007  23017501.35607
 93 04 07 05 24 00.0000000  0  8 23 24 20 03 16 17 26 25
         0.33818         0.04518  22626393.22318  22626395.79418
  -7520950.10808  -5860420.10108  22186295.19108  22186296.20208
 -24058377.44109 -18746768.32308  18674371.27809  18674372.31108
 -18471675.99808 -14393498.96308  20425876.68408  20425877.97408
 -22619021.03308 -17625182.83408  19316934.97708  19316935.79708
 -16993005.98408 -13241292.58208  20242934.28208  20242935.53408
  -4762931.44108  -3711374.32308  22123696.86308  22123697.62208
   -402762.02907   -313839.64307  23033384.46007  23033385.29807
 93 04 07 05 26 00.0000000  0  8 23 24 20 03 16 17 26 25
   -460965.22208   -359193.70008  22538674.21608  22538676.84408
  -7247535.50808  -5647369.73308  22238324.15908  22238325.18308
 -23895619.57009 -18619944.07408  18705343.10709  18705344.16908
 -18734584.54108 -14598362.69908  20375846.73208  20375848.04308
 -22455598.98908 -17497840.96408  19348033.10908  19348033.94408
 -17263059.75208 -13451723.88608  20191544.53808  20191545.76208
  -5085491.04108  -3962719.30008  22062315.56308  22062316.51208
   -313725.12207   -244460.25007  23050327.50307  23050328.69707
 93 04 07 05 28 00.0000000  0  8 23 24 20 03 16 17 26 25
   -921110.98308   -717748.63908  22451111.29908  22451113.86808
  -6974645.38208  -5434728.05308  22290253.38108  22290254.51408
 -23724463.36009 -18486575.66708  18737913.14309  18737914.19508
 -18997561.16608 -14803279.51008  20325803.91408  20325805.31008
 -22284333.76708 -17364387.52008  19380623.79208  19380624.58408
 -17529378.71608 -13659244.99208  20140865.61108  20140866.75808
  -5407509.75108  -4213642.86908  22001037.26708  22001038.28708
   -219397.25707   -170958.08507  23068277.40907  23068278.62207
 93 04 07 05 30 00.0000000  0  8 23 24 20 03 16 17 26 25
  -1380213.41808  -1075490.59008  22363746.84908  22363749.33508
  -6702643.69008  -5222778.65808  22342013.73108  22342014.70908
 -23544998.50609 -18346732.99308  18772064.23109  18772065.29708
 -19260531.35808 -15008191.30508  20275762.31808  20275763.68108
 -22105067.51808 -17224699.50808  19414736.97908  19414737.74108
 -17791782.05508 -13863714.99408  20090931.83508  20090932.96308
  -5728848.38708  -4464036.42708  21939888.46508  21939889.53108
   -119458.83407    -93084.04707  23087295.16007  23087296.42007
 93 04 07 05 32 00.0000000  0  8 23 24 26 03 20 16 17 25
  -1838211.05208  -1432371.66208  22276592.62208  22276595.05608
  -6431746.10708  -5011689.61008  22393563.69608  22393564.72408
  -6049551.82708  -4713934.99208  21878860.48808  21878861.39808
 -19523461.24908 -15213071.68208  20225728.38508  20225729.68108
 -23357365.37008 -18200525.38908  18807769.65708  18807770.71808
 -21918487.94308 -17079312.81008  19450241.88708  19450242.62408
 -18050502.29408 -14065315.07008  20041698.91908  20041700.02608
    -14425.92307    -11240.29006  23107282.26607  23107283.51706
 93 04 07 05 34 00.0000000  0  8 23 24 26 03 20 16 17 25
  -2295024.54908  -1788329.97208  22189663.76908  22189666.16108
  -6161619.09908  -4801201.00108  22444967.10308  22444968.20308
  -6369261.94508  -4963059.52708  21818021.49408  21818022.38608
 -19786377.75408 -15417941.62508  20175696.96208  20175698.25508
 -23161770.34508 -18048113.73508  18844990.18508  18844991.24108
 -21724665.99808 -16928282.70708  19487124.95408  19487125.73608
 -18305296.54808 -14263855.93708  19993213.09808  19993214.16808
     95499.39307     74415.74806  23128200.37307  23128201.62606
 93 04 07 05 36 00.0000000  0  8 23 24 26 25 03 20 16 17
  -2750491.90208  -2143239.35108  22102991.07808  22102993.42008
  -5892409.83808  -4591427.52308  22496195.95308  22496196.96808
  -6687890.33508  -5211341.15808  21757388.38808  21757389.31808
    210162.78107    163763.82906  23150020.29207  23150021.62906
 -20049260.34008 -15622785.14108  20125672.02008  20125673.27308
 -22958384.74708 -17889631.51908  18883693.22308  18883694.31208
 -21523219.84208 -16771311.66208  19525458.91208  19525459.67208
 -18556753.86008 -14459796.58608  19945362.21808  19945363.25708
 93 04 07 05 38 00.0000000  0  8 23 24 26 25 03 20 16 17
  -3204634.27208  -2497116.28008  22016570.48408  22016572.66808
  -5623941.07408  -4382231.09608  22547283.83908  22547284.86008
  -7004980.45008  -5458424.35308  21697047.92208  21697048.99208
    329404.13206    256679.09706  23172711.00906  23172712.25306
 -20312000.14608 -15827517.39008  20075674.24808  20075675.50708
 -22747295.20608 -17725146.23808  18923862.28808  18923863.38508
 -21314864.31408 -16608956.69308  19565107.59708  19565108.37608
 -18804770.82908 -14653056.44608  19898166.16308  19898167.16408
 93 04 07 05 40 00.0000000  0  7 23 24 26 20 03 16 17
  -3657307.85008  -2849848.75208  21930429.46208  21930431.60208
  -5356582.15108  -4173899.48608  22598160.58808  22598161.63208
  -7320636.00108  -5704389.71808  21636980.61008  21636981.61508
 -22528627.42708 -17554755.82408  18965473.43308  18965474.51308
 -20574516.22408 -16032075.31108  20025719.07908  20025720.34908
 -21099351.83808 -16441024.87608  19606118.23408  19606118.98808
 -19049206.17608 -14843525.45708  19851651.61808  19851652.56708
 93 04 07 05 42 00.0000000  0  7 23 24 26 20 03 16 17
  -4107605.65908  -3200729.98008  21844740.53308  21844742.47008
  -5090262.11708  -3966377.41708  22648839.57808  22648840.70108
  -7634540.92808  -5948990.86908  21577246.51508  21577247.45108
 -22302526.74408 -17378573.54408  19008499.02108  19008500.10808
 -20836741.72408 -16236406.81908  19975819.22308  19975820.39108
 -20876868.43308 -16267661.16308  19648455.40808  19648456.14708
 -19289676.54508 -15030904.90408  19805891.63408  19805892.53408
 93 04 07 05 44 00.0000000  0  7 23 24 26 03 20 16 17
  -4555927.29708  -3550071.34208  21759427.53508  21759429.50808
  -4824944.59408  -3759636.52408  22699327.84708  22699328.91008
  -7946490.78108  -6192068.53108  21517884.41608  21517885.34508
 -21098615.18908 -16440464.00608  19925986.29008  19925987.43508
 -22069152.21608 -17196723.33408  19052908.75408  19052909.90208
 -20647562.00508 -16088980.82108  19692090.97708  19692091.73108
 -19526527.27808 -15215463.89508  19760820.41508  19760821.31908
 93 04 07 05 46 00.0000000  0  7 23 24 26 03 20 16 17
  -5002438.66608  -3898002.09608  21674459.10408  21674461.03308
  -4560620.86108  -3553670.00708  22749627.24108  22749628.05308
  -8256319.22008  -6433493.12108  21458925.92708  21458926.77808
 -21360095.16808 -16644214.58408  19876228.26008  19876229.46708
 -21828691.39608 -17009351.34308  19098667.00508  19098668.14808
 -20411537.25808 -15905065.43408  19737004.95308  19737005.75908
 -19760253.71108 -15397588.32508  19716343.68508  19716344.57208
 93 04 07 05 48 00.0000000  0  7 23 24 26 03 20 16 17
  -5446862.21608  -4244305.99308  21589887.90008  21589889.88708
  -4297175.35408  -3348387.83008  22799759.21108  22799760.14108
  -8563620.44208  -6672948.40108  21400448.20408  21400449.00808
 -21621135.78108 -16847622.80208  19826553.88308  19826555.06208
 -21581331.40608 -16816603.37408  19145738.10408  19145739.23608
 -20169118.31108 -15716167.55308  19783135.75708  19783136.54008
 -19990424.66708 -15576942.24008  19672543.54708  19672544.46108
 93 04 07 05 50 00.0000000  0  7 23 26 24 03 20 16 17
  -5888886.57608  -4588740.41208  21505773.35108  21505775.34908
  -8868818.57608  -6910764.89808  21342370.83408  21342371.50008
  -4034869.85207  -3143993.97207  22849674.14307  22849675.34507
 -21881623.93808 -17050600.54308  19776984.62708  19776985.76908
 -21327201.48808 -16618580.14908  19194097.44908  19194098.65208
 -19920882.01008 -15522736.66708  19830373.55908  19830374.37808
 -20216767.28408 -15753313.01208  19629471.94708  19629472.77908
 93 04 07 05 52 00.0000000  0  7 23 26 24 03 20 16 17
  -6328098.53108  -4930983.34608  21422194.04408  21422195.91708
  -9171455.13308  -7146585.40708  21284780.76608  21284781.52808
  -3773498.40307  -2940327.96607  22899411.59107  22899412.66007
 -22141503.38208 -17253103.97308  19727531.14008  19727532.28308
 -21066493.11008 -16415430.83808  19243708.65208  19243709.90608
 -19666286.16708 -15324350.29108  19878821.54108  19878822.36108
 -20439722.86908 -15927044.53708  19587044.73108  19587045.59008
 93 04 07 05 54 00.0000000  0  7 23 26 24 03 20 16 17
  -6764819.37108  -5271285.16708  21339088.69708  21339090.53808
  -9470811.28108  -7379849.77708  21227815.05708  21227815.76408
  -3513133.54807  -2737446.30707  22948957.43307  22948958.50507
 -22400648.63408 -17455035.31908  19678217.38408  19678218.53508
 -20799335.68408 -16207256.29508  19294547.10808  19294548.37508
 -19405719.76308 -15121311.53008  19928405.63908  19928406.46908
 -20659239.15008 -16098096.05508  19545272.06208  19545272.90208
 93 04 07 05 56 00.0000000  0  8 23 26 24 22 03 20 16 17
  -7198770.72108  -5609428.93608  21256510.42508  21256512.15208
  -9767264.25908  -7610851.99908  21171401.87808  21171402.48008
  -3253813.53907  -2535378.82907  22998304.50107  22998305.48507
        -0.27417        -0.03517  23122305.20417  23122306.04317
 -22658944.19408 -17656304.57108  19629065.38008  19629066.55908
 -20525874.98608 -15994170.11708  19346584.96608  19346586.28108
 -19139288.79308 -14913702.98008  19979105.81708  19979106.58508
 -20875598.56308 -16266687.69408  19504100.13008  19504101.01108
 93 04 07 05 58 00.0000000  0  8 23 26 24 22 03 20 16 17
  -7629840.31008  -5945327.17608  21174480.54708  21174482.28508
 -10060546.13808  -7839383.25308  21115592.06508  21115592.75808
  -2995526.17807  -2334115.99507  23047454.96107  23047456.00307
   -379118.52807   -295416.80407  23050161.28007  23050162.17307
 -22916293.61008 -17856836.57408  19580093.47608  19580094.60408
 -20246280.25008 -15776304.16608  19399790.10808  19399791.43208
 -18867024.71908 -14701549.14808  20030915.94708  20030916.72308
 -21088434.00508 -16432533.36308  19463598.82408  19463599.68208
 93 04 07 06 00 00.0000000  0  8 23 26 24 22 03 20 16 17
  -8057620.94208  -6278662.59608  21093076.50708  21093078.20108
 -10350239.34308  -8065118.12208  21060465.29608  21060465.87808
  -2737848.20807  -2133328.05707  23096489.46407  23096490.58407
   -753928.94807   -587476.82707  22978837.22607  22978838.05807
 -23172524.44608 -18056496.97408  19531334.38408  19531335.47108
 -19960653.20408 -15553737.72208  19454143.22208  19454144.56108
 -18589393.50808 -14485213.13008  20083747.41308  20083748.22008
 -21297415.80808 -16595376.22108  19423830.81908  19423831.61408
 93 04 07 06 02 00.0000000  0  8 24 22 03 20 23 16 17 26
  -2480985.67907  -1933175.51006  23145368.97007  23145369.96306
  -1124266.73007   -876051.67907  22908364.38407  22908365.03107
 -23427526.23408 -18255199.67308  19482809.11708  19482810.23708
 -19669161.69708 -15326601.56808  19509612.25708  19509613.64508
  -8482128.35608  -6609447.47908  21012295.33308  21012297.00008
 -18306303.25908 -14264623.32608  20137617.69308  20137618.51808
 -21503035.56408 -16755599.28208  19384702.58608  19384703.35708
 -10636101.65908  -8287867.88708  21006067.46108  21006067.95808
 93 04 07 06 04 00.0000000  0  8 24 22 03 20 23 16 17 26
  -2225185.53107  -1733850.86206  23194046.12707  23194047.42806
  -1489976.03607  -1161019.87907  22838772.15707  22838772.81707
 -23681194.68308 -18452863.39308  19434537.59908  19434538.75408
 -19371984.58008 -15095035.06708  19566163.22008  19566164.63708
  -8903197.53908  -6937553.22708  20932168.42908  20932170.07908
 -18017588.04608 -14039650.42808  20192558.31108  20192559.12508
 -21705251.43508 -16913169.99008  19346222.15908  19346222.88508
 -10917803.38308  -8507375.61508  20952461.32608  20952461.85908
 93 04 07 06 06 00.0000000  0  8 24 22 03 20 23 16 17 26
  -1970310.80107  -1535247.31006  23242547.34107  23242548.66306
  -1850909.03208  -1442266.31007  22770088.80808  22770089.46907
 -23933427.42308 -18649408.37308  19386539.31908  19386540.45508
 -19069309.48308 -14859184.42308  19623760.48008  19623761.89308
  -9320780.93508  -7262942.77608  20852704.79708  20852706.50208
 -17723807.55508 -13810730.55708  20248462.94708  20248463.74508
 -21903869.52408 -17067937.25908  19308426.28408  19308427.04708
 -11195257.54308  -8723573.57208  20899663.42908  20899663.98108
 93 04 07 06 08 00.0000000  0  8 24 22 03 20 23 16 17 26
  -1716153.25006  -1337202.45606  23290911.84106  23290912.91906
  -2206920.68008  -1719677.93507  22702341.96408  22702342.65007
 -24184123.54408 -18844755.98208  19338833.42908  19338834.51208
 -18761329.09608 -14619199.78308  19682367.30808  19682368.68408
  -9734396.52208  -7585240.52308  20773996.33108  20773998.00608
 -17425171.41408 -13578027.06208  20305291.41108  20305292.22108
 -22099348.75508 -17220258.66008  19271227.75908  19271228.49108
 -11468447.62208  -8936448.82508  20847677.01108  20847677.51308
 93 04 07 06 10 00.0000000  0  7 22 03 20 23 16 17 26
  -2557904.84008  -1993172.04307  22635551.88608  22635552.57107
 -24433213.27308 -19038851.84908  19291433.15708  19291434.31308
 -18448272.64608 -14375259.77808  19741940.01908  19741941.45708
 -10143898.00008  -7904332.46908  20696070.73808  20696072.36008
 -17121815.10008 -13341645.50808  20363018.25608  20363019.05408
 -22291455.09208 -17369951.86708  19234671.14808  19234671.79108
 -11737469.50908  -9146076.17508  20796483.77908  20796484.25808
 93 04 07 06 12 00.0000000  0  7 22 03 20 23 16 17 26
  -2903693.54708  -2262617.70608  22569750.35608  22569751.15408
 -24680561.88608 -19231590.98908  19244364.20608  19244365.41308
 -18130308.42008 -14127495.52108  19802446.63308  19802448.12608
 -10549764.28208  -8220591.79408  20618836.88708  20618838.49308
 -16813847.83208 -13101671.00608  20421622.40408  20421623.23908
 -22479810.87008 -17516722.54708  19198828.18708  19198828.85308
 -12001553.17308  -9351855.58608  20746230.28608  20746230.72008
 93 04 07 06 14 00.0000000  0  7 22 03 20 23 16 17 26
  -3244205.84908  -2527951.87708  22504953.07708  22504953.70508
 -24926115.78308 -19422931.64608  19197636.86708  19197637.96808
 -17807690.09708 -13876104.70508  19863838.93208  19863840.42208
 -10951848.29608  -8533903.90108  20542322.75608  20542324.34508
 -16501437.30708 -12858234.23308  20481072.16708  20481073.00808
 -22664981.73408 -17661011.48808  19163591.25508  19163591.93508
 -12260778.60308  -9553849.31508  20696901.37708  20696901.74508
 93 04 07 06 16 00.0000000  0  7 22 03 20 23 16 17 26
  -3579268.77008  -2789039.77008  22441192.65308  22441193.27308
 -25169726.72708 -19612758.31408  19151279.23908  19151280.27508
 -17480581.27108 -13621214.80008  19926085.77808  19926087.24708
 -11349824.20708  -8844014.89508  20466590.43908  20466591.93008
 -16184988.08408 -12611650.41808  20541290.48208  20541291.29608
 -22847073.74008 -17802901.31308  19128940.30608  19128941.01008
 -12515022.00908  -9751960.95708  20648520.29408  20648520.67908
 93 04 07 06 18 00.0000000  0  7 22 03 20 23 16 17 26
  -3908715.63908  -3045751.54108  22378500.97708  22378501.52808
 -25411246.55208 -19800955.53808  19105319.49908  19105320.55808
 -17149149.52708 -13362956.38808  19989155.21008  19989156.67708
 -11743086.77908  -9150453.15308  20391754.94308  20391756.36708
 -15864226.19908 -12361706.08608  20602329.43708  20602330.23108
 -23025881.09908 -17942231.68608  19094914.41508  19094915.04108
 -12764147.84908  -9946084.90008  20601113.09508  20601113.49108
 93 04 07 06 20 00.0000000  0  7 22 03 20 23 16 17 26
  -4232460.46908  -3298020.18308  22316894.29908  22316894.88308
 -25650602.00908 -19987466.24308  19059771.59708  19059772.67008
 -16813639.37408 -13101519.98508  20053000.67108  20053002.18608
 -12132192.29708  -9453652.14408  20317710.50008  20317711.96608
 -15539444.43708 -12108629.37508  20664133.28408  20664134.08808
 -23201509.05708 -18079084.60608  19061493.46808  19061494.08508
 -13007876.09408 -10136002.92908  20554733.09608  20554733.50608
 93 04 07 06 22 00.0000000  0  7 22 03 20 23 16 17 26
  -4550382.22608  -3545751.37408  22256395.73708  22256396.29408
 -25887681.26408 -20172203.29108  19014656.92208  19014657.98208
 -16474262.21508 -12837070.34308  20117581.94608  20117583.61508
 -12517099.11708  -9753579.42108  20244465.13508  20244466.49308
 -15210821.75308 -11852559.74308  20726668.07908  20726668.94908
 -23373776.18008 -18213318.66808  19028712.06808  19028712.71408
 -13245942.13208 -10321508.85008  20509430.44208  20509430.83008
 93 04 07 06 24 00.0000000  0  7 22 03 20 23 16 17 26
  -4862325.62708  -3788824.11608  22197034.82508  22197035.39008
 -26122332.36208 -20355048.27608  18970004.32508  18970005.34308
 -16131192.09108 -12569743.05108  20182866.11608  20182867.77908
 -12897142.80608 -10049717.24608  20172145.17408  20172146.53008
 -14878782.09608 -11593827.53208  20789853.05808  20789853.96508
 -23542870.63508 -18345080.54108  18996534.49508  18996535.14108
 -13478356.67008 -10502610.99308  20465203.52108  20465203.81008
 93 04 07 06 26 00.0000000  0  7 22 03 20 23 16 17 26
  -5168223.16708  -4027185.79508  22138824.47708  22138824.98508
 -26354485.63308 -20535946.90608  18925827.02608  18925828.02108
 -15784687.32408 -12299739.42108  20248803.85708  20248805.53708
 -13272458.30908 -10342170.76808  20100724.92208  20100726.31508
 -14543671.24008 -11332702.18408  20853622.56408  20853623.44308
 -23708984.05908 -18474519.53308  18964924.10808  18964924.72108
 -13704876.64408 -10679119.97808  20422098.08208  20422098.44308
 93 04 07 06 28 00.0000000  0  7 22 03 20 23 16 17 26
  -5467960.59308  -4260747.37208  22081786.17408  22081786.82408
 -26584019.89608 -20714804.75108  18882148.08808  18882149.01608
 -15434958.05408 -12027223.19308  20315355.23408  20315356.89308
 -13642904.15108 -10630829.75308  20030231.29008  20030232.70408
 -14205059.57608 -11068848.92608  20918058.23108  20918059.06408
 -23872144.06308 -18601657.19908  18933875.80108  18933876.36808
 -13925573.00508 -10851091.08708  20380100.75508  20380101.07808
 93 04 07 06 30 00.0000000  0  7 16 22 03 20 23 17 26
 -13863338.12308 -10802572.45708  20983085.63908  20983086.48308
  -5761395.51608  -4489397.90408  22025947.30808  22025948.02108
 -26810780.33508 -20891501.18008  18838996.98308  18838997.94308
 -15082183.12108 -11752333.72008  20382486.09308  20382487.78908
 -14008636.73608 -10915816.07808  19960634.67808  19960636.06208
 -24032338.82408 -18726484.24808  18903391.69408  18903392.30808
 -14140089.20608 -11018246.48808  20339279.74708  20339280.02208
 93 04 07 06 32 00.0000000  0  7 16 22 03 20 23 17 26
 -13518902.12208 -10534180.77008  21048629.62508  21048630.50008
  -6048448.51308  -4713075.50508  21971322.94008  21971323.53908
 -27034669.51808 -21065960.26108  18796392.21708  18796393.22508
 -14726601.12608 -11475256.93708  20450151.18208  20450152.88708
 -14369345.02808 -11196887.36608  19891994.02508  19891995.35108
 -24189671.58808 -18849081.18408  18873452.20408  18873452.84108
 -14348406.58808 -11180571.64208  20299638.14608  20299638.43308
 93 04 07 06 34 00.0000000  0  8 16 22 21 03 20 23 17 26
 -13171852.73608 -10263752.67308  21114670.98308  21114671.81408
  -6328938.80708  -4931639.33908  21917947.37708  21917947.98108
        -0.38317        -0.69017  23181662.49617  23181665.79717
 -27255483.72408 -21238023.25508  18754372.64608  18754373.65608
 -14368345.70608 -11196096.96308  20518325.01608  20518326.74508
 -14725020.47608 -11474036.96508  19824311.14808  19824312.42708
 -24343895.95508 -18969255.98508  18844104.25308  18844104.90408
 -14550189.20708 -11337804.76608  20261240.21408  20261240.53808
 93 04 07 06 36 00.0000000  0  8 16 22 21 03 20 23 17 26
 -12821991.00908  -9991133.15208  21181247.46608  21181248.32308
  -6602768.62008  -5145013.19908  21865839.24808  21865839.92508
   -441882.52307   -344323.99507  23097574.69207  23097577.88807
 -27473095.67708 -21407590.98408  18712962.43308  18712963.46208
 -14007628.96108 -10915019.07608  20586967.17008  20586968.89408
 -15075428.01608 -11747081.70408  19757630.75808  19757632.02208
 -24495112.45408 -19087086.97008  18815328.74308  18815329.34908
 -14745524.78408 -11490014.22408  20224069.08408  20224069.28608
 93 04 07 06 38 00.0000000  0  8 16 22 21 03 20 23 17 26
 -12469634.79308  -9716569.88008  21248298.54508  21248299.41808
  -6869821.51708  -5353106.34208  21815020.73308  21815021.37408
   -882645.30807   -687775.13507  23013700.01907  23013703.24607
 -27687356.27108 -21574547.26308  18672189.97708  18672191.01808
 -13644642.37208 -10632172.48508  20656041.31108  20656043.09708
 -15420620.87508 -12016063.04608  19691942.62208  19691943.89408
 -24643534.05008 -19202740.11008  18787084.95208  18787085.51908
 -14934086.83908 -11636945.62308  20188186.80308  20188186.99408
 93 04 07 06 40 00.0000000  0  8 16 21 22 03 20 23 17 26
 -12115248.62408  -9440424.80808  21315736.04008  21315736.87308
  -1322125.05507  -1030226.55107  22930069.53507  22930072.67207
  -7129965.43108  -5555815.88008  21765517.08108  21765517.54308
 -27898093.42908 -21738758.01208  18632088.04608  18632089.03408
 -13279557.36108 -10347690.75308  20725514.71308  20725516.48208
 -15760435.81508 -12280853.80908  19627277.94508  19627279.16608
 -24788811.07908 -19315942.94308  18759439.60508  18759440.20108
 -15115466.42108 -11778280.29008  20153671.38108  20153671.54108
 93 04 07 06 42 00.0000000  0  8 16 21 22 03 20 23 17 26
 -11758597.80908  -9162515.08308  21383604.44008  21383605.25708
  -1760321.06207  -1371677.69407  22846683.54307  22846686.41807
  -7383070.63608  -5753040.71508  21717352.72008  21717353.23908
 -28105132.15508 -21900086.86908  18592689.87808  18592690.83008
 -12912539.22108 -10061702.68708  20795355.94908  20795357.78508
 -16094743.34808 -12541353.09108  19563661.24508  19563662.45708
 -24931340.45008 -19427004.74708  18732317.19408  18732317.77208
 -15289803.34708 -11914127.17508  20120496.24908  20120496.36508
 93 04 07 06 44 00.0000000  0  8 16 21 22 03 20 23 17 26
 -11399788.00608  -8882923.02208  21451883.70408  21451884.48808
  -2197175.87207  -1712083.77607  22763552.59507  22763555.50107
  -7629081.61908  -5944737.56208  21670538.34108  21670538.87108
 -28308367.14308 -22058451.76908  18554015.53108  18554016.47408
 -12543829.09708  -9774396.18208  20865519.25408  20865521.06208
 -16423403.84908 -12797452.08508  19501119.12708  19501120.35808
 -25071059.77008 -19535876.89708  18705729.45308  18705730.04108
 -15457111.82808 -12044497.35708  20088658.43808  20088658.49608
 93 04 07 06 46 00.0000000  0  8 16 21 22 03 20 23 17 26
 -11039316.64508  -8602036.24408  21520479.07008  21520479.95508
  -2632462.35007  -2051267.76508  22680720.05207  22680723.05308
  -7867928.71208  -6130852.16708  21625087.18608  21625087.85308
 -28507672.62308 -22213754.71208  18516088.94208  18516089.86508
 -12173643.36608  -9485939.87008  20935963.36408  20935965.14108
 -16746467.12208 -13049189.60908  19439642.16008  19439643.32908
 -25207994.72508 -19642579.42508  18679671.54508  18679672.13908
 -15617140.61308 -12169195.04908  20058205.87908  20058205.93408
 93 04 07 06 48 00.0000000  0  8 20 16 21 22 03 23 17 26
 -11802231.65008  -9196528.23508  21006640.80908  21006642.56108
 -10677545.81208  -8320136.89408  21589321.72508  21589322.58208
  -3066501.84607  -2389480.12107  22598124.81407  22598127.72507
  -8099577.95108  -6311358.06508  21581005.93508  21581006.40508
 -28702952.25508 -22365920.65108  18478928.46108  18478929.36308
 -17063826.54808 -13296482.56808  19379250.68708  19379251.74308
 -25341924.57808 -19746940.31908  18654185.52708  18654186.07808
 -15769967.18708 -12288280.62108  20029123.91808  20029124.00508
 93 04 07 06 50 00.0000000  0  8 20 16 21 22 03 23 17 26
 -11429702.58208  -8906245.93508  21077530.78908  21077532.58208
 -10313985.24208  -8036842.94008  21658505.04308  21658505.90008
  -3498630.56007  -2726203.55607  22515893.18007  22515896.10007
  -8323860.78308  -6486123.91108  21538326.27308  21538326.80808
 -28893971.36908 -22514766.69808  18442578.68608  18442579.64508
 -17375569.69708 -13539399.20708  19319927.82108  19319928.92508
 -25473038.46808 -19849106.95008  18629235.35008  18629235.88608
 -15915105.07808 -12401375.01208  20001505.00708  20001505.07008
 93 04 07 06 52 00.0000000  0  8 20 16 21 03 23 17 26 22
 -11056250.38408  -8615244.32208  21148596.49408  21148598.23908
  -9948773.27708  -7752262.16408  21728002.61108  21728003.48008
  -3929041.04507  -3061588.05907  22433988.64107  22433991.37807
 -29080580.03308 -22660176.03408  18407068.21908  18407069.19808
 -17681559.78108 -13777832.94508  19261699.72008  19261700.82608
 -25601529.46108 -19949229.77408  18604784.36708  18604784.89008
 -16052613.97208 -12508524.73708  19975337.74408  19975337.85508
  -8540698.75408  -6655088.55908  21497063.27508  21497063.94908
 93 04 07 06 54 00.0000000  0  8 20 16 21 03 23 17 26 22
 -10682064.82508  -8323671.24008  21219801.72208  21219803.43508
  -9582606.85308  -7466937.66908  21797681.66208  21797682.59008
  -4357653.38907  -3395571.40108  22352426.28807  22352428.93208
 -29262623.72008 -22802028.24308  18372426.46308  18372427.42308
 -17981316.60108 -14011409.59308  19204657.86308  19204658.91808
 -25727163.57308 -20047126.44608  18580876.89208  18580877.39908
 -16182028.42308 -12609367.10908  19950711.03208  19950711.07908
  -8750014.18708  -6818191.46908  21457232.05008  21457232.46208
 93 04 07 06 56 00.0000000  0  8 20 16 21 03 23 17 26 22
 -10307346.04208  -8031682.66308  21291108.37308  21291110.17708
  -9215154.91008  -7180611.48408  21867605.43008  21867606.37308
  -4784047.82608  -3727826.50108  22271286.03608  22271288.46708
 -29439959.46408 -22940211.92808  18338680.61708  18338681.56008
 -18275313.87508 -14240498.26208  19148711.88108  19148712.98708
 -25850151.13108 -20142960.86708  18557473.11908  18557473.61908
 -16303720.15108 -12704191.77708  19927553.84608  19927553.81808
  -8951749.58708  -6975387.85308  21418843.07408  21418843.47108
 93 04 07 06 58 00.0000000  0  8 20 16 21 03 23 17 26 22
  -9932287.44108  -7739429.28008  21362479.57408  21362481.60308
  -8846873.96807  -6893639.32408  21937686.92007  21937687.89208
  -5208558.81108  -4058614.00808  22190504.02408  22190506.49108
 -29612440.85808 -23074612.99808  18305858.47908  18305859.40008
 -18563145.91608 -14464782.85908  19093939.16608  19093940.27808
 -25970431.91408 -20236686.10908  18534584.41408  18534584.92908
 -16417902.94708 -12793165.33208  19905825.59508  19905825.50808
  -9145844.36608  -7126630.51908  21381908.07908  21381908.42908
 93 04 07 07 00 00.0000000  0  8 20 16 21 03 23 17 26 22
  -9557022.52208  -7447015.16308  21433890.22808  21433892.24308
  -8477746.36507  -6606007.43307  22007929.49807  22007930.60107
  -5630797.77108  -4387631.13008  22110154.44708  22110156.76308
 -29779859.93408 -23205069.41208  18273999.67208  18274000.58608
 -18844895.76508 -14684328.09308  19040323.92708  19040324.96308
 -26087672.44408 -20328042.32408  18512274.20908  18512274.76808
 -16523625.36208 -12875546.38908  19885707.19908  19885707.18808
  -9332183.80808  -7271830.07408  21346448.88708  21346449.18908
 93 04 07 07 02 00.0000000  0  8 20 16 21 03 23 17 26 22
  -9181779.81208  -7154618.33508  21505296.59608  21505298.71208
  -8107767.13207  -6317711.94507  22078334.19307  22078335.31607
  -6050478.18308  -4714654.59508  22030291.76208  22030294.06408
 -29942105.86508 -23331494.81108  18243125.25708  18243126.22308
 -19120416.66308 -14899019.60808  18987893.97408  18987894.98308
 -26202375.25108 -20417421.09208  18490446.93908  18490447.51308
 -16621070.89708 -12951477.92708  19867163.87808  19867163.88008
  -9510755.86008  -7410977.12308  21312467.74708  21312468.07308
 93 04 07 07 04 00.0000000  0  8 20 16 03 23 21 17 26 22
  -8806695.83208  -6862345.19308  21576672.81108  21576674.85408
  -7737352.90707  -6029077.51507  22148821.73607  22148822.83907
 -30098977.86108 -23453732.72308  18213273.55608  18213274.47208
 -19389650.02708 -15108811.75408  18936660.55308  18936661.47708
  -6467959.17808  -5039964.24008  21950847.75308  21950849.82408
 -26314352.65608 -20504676.15708  18469138.38908  18469138.88208
 -16710363.54608 -13021056.56408  19850172.02108  19850172.02808
  -9681462.27108  -7543995.12208  21279983.48108  21279983.73408
 93 04 07 07 06 00.0000000  0  7 20 21 22 03 23 17 26
  -8431950.54408  -6570335.98808  21647984.63308  21647986.60708
  -6883223.45608  -5363546.58008  21871825.51308  21871827.49008
  -9844257.84208  -7670848.84708  21249004.47408  21249004.76308
 -30250321.19109 -23571662.59508  18184473.89309  18184474.75608
 -19652678.69808 -15313769.08708  18886607.81408  18886608.70308
 -26423415.65008 -20589660.26408  18448384.40108  18448384.80208
 -16791335.34008 -13084151.43008  19834763.56808  19834763.52208
 93 04 07 07 08 00.0000000  0  7 20 21 22 03 23 17 26
  -8057714.96608  -6278723.95908  21719199.48108  21719201.31508
  -7295802.42808  -5685036.51308  21793314.14008  21793316.09808
  -9999092.02808  -7791498.90808  21219540.54208  21219540.84508
 -30395975.48608 -23685159.44708  18156756.79308  18156757.65308
 -19909463.40708 -15513860.99908  18837743.25008  18837744.11908
 -26529886.61108 -20672624.59708  18428123.58808  18428124.02108
 -16864143.81908 -13140885.27308  19820908.57008  19820908.46808
 93 04 07 07 10 00.0000000  0  7 20 21 03 23 17 26 22
  -7684219.16208  -5987688.36908  21790273.48608  21790275.43608
  -7705531.96808  -6004306.12808  21715345.05308  21715347.05608
 -30535840.38108 -23794145.08308  18130141.38308  18130142.27008
 -20159854.87608 -15708971.17908  18790095.39608  18790096.23508
 -26633898.87908 -20753673.08108  18408330.68608  18408331.11708
 -16928388.36608 -13190945.92308  19808683.20108  19808683.07708
 -10145983.30008  -7905959.68308  21191588.07408  21191588.33808
 93 04 07 07 12 00.0000000  0  8 20 16 03 23 21 17 26 22
  -7311653.22608  -5697377.36908  21861170.46908  21861172.42708
        -0.04817         0.33617  22431347.74617  22431348.49817
 -30669778.64608 -23898512.57208  18104653.74408  18104654.67808
 -20403780.33208 -15899042.93008  18743677.80508  18743678.61808
  -8112655.03208  -6321544.73308  21637871.95508  21637873.92508
 -26735304.67508 -20832690.54808  18389033.76608  18389034.18108
 -16983950.18108 -13234240.80808  19798110.09808  19798109.98108
 -10284916.12808  -8014219.07908  21165150.00608  21165150.33408
 93 04 07 07 14 00.0000000  0  8 20 16 03 23 21 17 26 22
  -6940178.26408  -5407916.46507  21931859.84008  21931861.77907
    371592.82107    289553.17607  22502059.63007  22502060.16307
 -30797629.37408 -23998136.51708  18080324.59108  18080325.47708
 -20641249.60108 -16084083.81008  18698488.82608  18698489.61308
  -8517042.89808  -6636652.03308  21560919.45808  21560921.31908
 -26833698.87808 -20909361.32908  18370309.97708  18370310.37108
 -17031088.84008 -13270972.19608  19789139.86608  19789139.79808
 -10415853.76908  -8116248.45908  21140233.31808  21140233.85608
 93 04 07 07 16 00.0000000  0  7 20 21 22 03 23 17 26
  -6569946.64908  -5119424.40607  22002312.59508  22002314.70107
  -8918624.00008  -6949572.25208  21484501.04008  21484502.98508
 -10538759.06408  -8212018.87008  21116845.30708  21116845.82308
 -30919223.29108 -24092885.03308  18057186.04808  18057186.91208
 -20872367.57508 -16264175.58908  18654508.40808  18654509.17408
 -26929548.40008 -20984049.24408  18352070.38208  18352070.75308
 -17069930.95108 -13301238.74608  19781748.46208  19781748.36608
 93 04 07 07 18 00.0000000  0  7 20 21 22 03 23 17 26
  -6201186.15008  -4832078.69807  22072485.51008  22072487.61507
  -9317291.32408  -7260221.99008  21408637.07708  21408638.98208
 -10653675.12508  -8301563.90008  21094977.59108  21094978.13908
 -31034470.59808 -24182688.14108  18035255.20308  18035256.09508
 -21097001.29108 -16439214.72108  18611761.96508  18611762.70908
 -27022734.53808 -21056661.79308  18334337.63408  18334337.99108
 -17099994.09408 -13324664.53708  19776027.59508  19776027.50908
 93 04 07 07 20 00.0000000  0  7 20 21 22 03 23 17 26
  -5834056.53408  -4546003.79407  22142348.09808  22142350.12707
  -9712982.49808  -7568552.64808  21333339.44408  21333341.35808
 -10760587.15608  -8384872.03008  21074632.95808  21074633.55708
 -31143218.63609 -24267426.88208  18014561.13709  18014562.06008
 -21315418.98308 -16609410.23108  18570198.37808  18570199.13108
 -27113352.99108 -21127273.54708  18317093.47508  18317093.84408
 -17121370.29008 -13341321.28008  19771959.82308  19771959.68808
 93 04 07 07 22 00.0000000  0  7 20 21 03 23 17 26 22
  -5468703.40708  -4261313.17107  22211872.50508  22211874.55907
 -10105483.80608  -7874397.69608  21258648.73008  21258650.69008
 -31245305.35209 -24346974.98308  17995134.71509  17995135.60908
 -21527589.55608 -16774737.79908  18529823.52308  18529824.29308
 -27201413.33608 -21195891.97708  18300336.13308  18300336.50608
 -17134016.80908 -13351175.68108  19769553.28208  19769553.16308
 -10859474.03908  -8461926.81108  21055815.42808  21055815.99808
 93 04 07 07 24 00.0000000  0  7 20 21 22 03 23 17 26
  -5105339.83808  -3978172.85507  22281018.46908  22281020.52707
 -10494882.85008  -8177825.40008  21184548.51708  21184550.37708
 -10950389.72808  -8532770.26308  21038514.82308  21038515.33208
 -31340639.00409 -24421260.96208  17976993.33309  17976994.24008
 -21733004.37708 -16934801.16308  18490734.24508  18490734.96908
 -27286785.75408 -21262415.92408  18284090.31108  18284090.65808
 -17138043.77208 -13354313.55308  19768786.99708  19768786.88508
 93 04 07 07 26 00.0000000  0  7 21 20 22 03 23 17 26
 -10881236.08908  -8478879.77108  21111027.91008  21111029.71208
  -4744074.57508  -3696667.58307  22349765.00508  22349767.19107
 -11033290.41608  -8597368.25108  21022739.31308  21022739.89808
 -31429028.60109 -24490135.98508  17960173.34009  17960174.26608
 -21932056.07108 -17089906.31308  18452855.94808  18452856.62708
 -27369536.21008 -21326896.78108  18268343.42808  18268343.72508
 -17133447.08808 -13350731.70408  19769661.64208  19769661.52108
 93 04 07 07 28 00.0000000  0  7 21 20 22 03 23 17 26
 -11264080.39608  -8777199.92208  21038175.05308  21038176.76708
  -4385068.45807  -3416922.68107  22418081.57807  22418083.89307
 -11108194.69508  -8655735.26808  21008485.54708  21008486.14108
 -31510341.36809 -24553496.59608  17944700.07809  17944700.96608
 -22124477.12308 -17239844.74508  18416239.41108  18416240.05708
 -27449810.43308 -21389448.10408  18253067.67008  18253068.01708
 -17120418.01008 -13340579.15008  19772141.03008  19772140.90308
 93 04 07 07 30 00.0000000  0  7 22 20 03 23 17 21 26
 -11175165.41108  -8707920.29408  20995741.54208  20995742.19908
  -4028518.58007  -3139091.74507  22485930.80707  22485933.29007
 -31584486.08309 -24611271.71808  17930590.82509  17930591.73208
 -22310579.52209 -17384859.54308  18380825.28309  18380825.88908
 -27527323.78308 -21449848.09808  18238317.34308  18238317.72208
 -11643633.76808  -9072955.72608  20965948.41108  20965950.01808
 -17098429.40208 -13323445.15208  19776325.24808  19776325.14608
 93 04 07 07 32 00.0000000  0  7 20 03 23 17 21 26 22
  -3674613.05107  -2863321.32907  22553277.02607  22553279.32607
 -31651366.00909 -24663385.96808  17917864.01809  17917864.95508
 -22490221.22109 -17524840.02708  18346640.60809  18346641.18808
 -27602036.88908 -21508066.09008  18224099.90508  18224100.30208
 -12020070.67708  -9366283.12208  20894314.85008  20894316.32608
 -17067862.91908 -13299627.09408  19782141.92808  19782141.75308
 -11234261.19908  -8753969.03008  20984496.04808  20984496.78108
 93 04 07 07 34 00.0000000  0  7 20 03 23 17 21 26 22
  -3323457.32307  -2589693.62007  22620099.93007  22620102.11907
 -31710808.63509 -24709704.92108  17906552.47209  17906553.42208
 -22663399.56709 -17659784.15208  18313685.81209  18313686.36108
 -27674243.14708 -21564330.70408  18210359.49208  18210359.89808
 -12393159.16008  -9657001.36208  20823318.42308  20823319.87908
 -17028757.72508 -13269155.49508  19789583.32408  19789583.11808
 -11285469.73708  -8793871.86708  20974751.45408  20974752.17808
 93 04 07 07 36 00.0000000  0  7 20 03 23 21 17 26 22
  -2975235.51307  -2318352.09807  22686364.41807  22686366.59407
 -31762726.82109 -24750160.68108  17896672.81309  17896673.73408
 -22830104.88409 -17789684.36208  18281962.79509  18281963.40008
 -12762374.40408  -9944701.50108  20753058.98008  20753060.55608
 -27743987.73308 -21618677.12908  18197087.54408  18197087.96908
 -16980927.93008 -13231885.50908  19798685.00408  19798684.90408
 -11328862.90108  -8827684.83608  20966494.01008  20966494.79108
 93 04 07 07 38 00.0000000  0  7 03 20 23 21 17 26 22
 -31807050.37809 -24784698.54508  17888238.35409  17888239.24008
  -2630143.59007  -2049449.46507  22752033.31707  22752035.50907
 -22990857.68909 -17914946.23908  18251372.49209  18251373.05508
 -13128106.62308 -10229687.59408  20683462.42908  20683464.06308
 -27811200.48508 -21671050.69608  18184297.42408  18184297.80008
 -16924559.26208 -13187961.87008  19809411.55808  19809411.49008
 -11364533.89608  -8855480.59708  20959706.24208  20959707.06408
 93 04 07 07 40 00.0000000  0  8 20 03 23 28 21 17 26 22
  -2288308.70007  -1783084.81207  22817082.50207  22817084.91607
 -31843648.25709 -24813216.40708  17881274.00309  17881274.94608
 -23145114.42909 -18035146.27808  18222018.35009  18222018.91708
        -0.43117        -0.89717  22699225.25917  22699225.48617
 -13490453.80508 -10512035.99108  20614509.90108  20614511.69208
 -27875485.15908 -21721142.64008  18172064.48808  18172064.85608
 -16859859.62008 -13137546.54808  19821723.55908  19821723.47608
 -11392515.86408  -8877284.94308  20954381.59408  20954382.41308
 93 04 07 07 42 00.0000000  0  7 28 03 23 21 17 26 22
   -472975.43407   -368552.85407  22609221.05607  22609221.41507
 -31872394.47709 -24835616.09108  17875803.82609  17875804.73508
 -23293175.16509 -18150518.21608  18193843.35109  18193843.92708
 -13848973.95208 -10791402.27808  20546285.72208  20546287.52508
 -27937293.16108 -21769304.71308  18160302.76808  18160303.18308
 -16786709.27608 -13080546.27408  19835643.56008  19835643.52108
 -11412847.05208  -8893127.65908  20950512.93608  20950513.73508
 93 04 07 07 44 00.0000000  0  7 28 03 23 21 17 26 22
   -945710.10907   -736917.52407  22519262.60407  22519262.97507
 -31893094.52809 -24851746.03608  17871864.76209  17871865.67508
 -23434793.47809 -18260870.10408  18166894.24209  18166894.81108
 -14203743.92908 -11067846.35108  20478775.21408  20478776.93808
 -27996336.01308 -21815312.12308  18149067.22808  18149067.69108
 -16704914.85208 -13016810.35308  19851208.57508  19851208.44608
 -11425499.55608  -8902987.00808  20948105.46208  20948106.33808
 93 04 07 07 46 00.0000000  0  7 28 03 23 21 17 26 22
  -1418035.67207  -1104963.40407  22429382.12307  22429382.42407
 -31905692.71509 -24861562.83508  17869467.41009  17869468.34708
 -23569739.77909 -18366022.98908  18141214.77309  18141215.26808
 -14555018.57608 -11341566.79508  20411929.82408  20411931.52808
 -28052747.46108 -21859269.08708  18138332.48408  18138332.91008
 -16614577.55108 -12946417.64308  19868399.21708  19868399.07308
 -11430585.65508  -8906950.44808  20947137.77208  20947138.74308
 93 04 07 07 48 00.0000000  0  7 28 03 23 21 17 26 22
  -1890048.80707  -1472765.81107  22339560.90307  22339561.22507
 -31910144.94709 -24865032.15308  17868620.21009  17868621.16708
 -23698744.57609 -18466546.13008  18116665.91809  18116666.39408
 -14902699.20408 -11612486.70308  20345768.40108  20345770.04708
 -28106462.30008 -21901124.80108  18128110.91608  18128111.30708
 -16515993.68508 -12869599.04108  19887159.05408  19887158.97908
 -11428228.57608  -8905113.94908  20947586.44408  20947587.43108
 93 04 07 07 50 00.0000000  0  7 28 03 23 21 17 26 22
  -2361470.37408  -1840107.24507  22249852.34608  22249852.65007
 -31906358.07409 -24862081.38508  17869340.86709  17869341.81608
 -23821524.98809 -18562219.11308  18093301.52409  18093301.95608
 -15246162.52808 -11880120.39708  20280409.43208  20280411.03208
 -28157278.10308 -21940721.52808  18118440.97108  18118441.37108
 -16409287.56308 -12786451.41208  19907464.37808  19907464.37808
 -11418503.97508  -8897536.43008  20949437.03808  20949437.98708
 93 04 07 07 52 00.0000000  0  7 28 03 23 21 17 26 22
  -2832244.94808  -2206944.51107  22160266.76708  22160267.20007
 -31894239.76609 -24852638.58408  17871646.93909  17871647.89108
 -23938135.94209 -18653084.75708  18071111.19309  18071111.61908
 -15585914.34108 -12144862.00508  20215756.78408  20215758.34008
 -28205585.26008 -21978363.46708  18109248.38908  18109248.83608
 -16294132.64908 -12696720.30508  19929377.69508  19929377.59508
 -11401487.91908  -8884277.24408  20952675.11508  20952676.18508
 93 04 07 07 54 00.0000000  0  7 28 03 23 21 17 26 22
  -3302060.66508  -2573034.59908  22070863.71308  22070864.07308
 -31873738.72309 -24836663.79008  17875548.17309  17875549.16608
 -24048911.01309 -18739402.95108  18050031.38409  18050031.80008
 -15921803.28308 -12406593.58008  20151839.19008  20151840.67508
 -28251002.07608 -22013753.18908  18100605.90908  18100606.30908
 -16170978.48208 -12600756.01308  19952813.15908  19952813.04108
 -11377296.33808  -8865426.75608  20957278.64708  20957279.70308
 93 04 07 07 56 00.0000000  0  7 28 03 23 21 17 26 22
  -3771385.39108  -2938742.09908  21981554.24008  21981554.54208
 -31844794.41509 -24814109.82108  17881056.11309  17881057.11308
 -24153489.56009 -18820892.66108  18030130.63809  18030131.06608
 -16253765.64308 -12665265.47908  20088668.74808  20088670.19108
 -28293591.37308 -22046939.65208  18092501.39208  18092501.76108
 -16040021.84308 -12498711.87008  19977733.42708  19977733.30308
 -11346036.65508  -8841068.62008  20963227.19208  20963228.29808
 93 04 07 07 58 00.0000000  0  7 28 03 23 21 17 26 22
  -4239243.77608  -3303307.01608  21892523.69408  21892523.92108
 -31807305.10909 -24784897.41008  17888190.11509  17888191.13808
 -24252158.65509 -18897777.61008  18011354.51409  18011354.92108
 -16581673.19108 -12920777.77708  20026269.94808  20026271.40308
 -28333552.12808 -22078077.90208  18084897.19208  18084897.58108
 -15900898.73408 -12390304.24308  20004207.69208  20004207.48808
 -11307773.31508  -8811253.05108  20970508.38608  20970509.59408
 93 04 07 08 00 00.0000000  0  7 28 03 23 21 17 26 22
  -4705541.22908  -3666655.59608  21803790.18708  21803790.42808
 -31761178.71709 -24748954.80908  17896967.72009  17896968.71508
 -24345007.29409 -18970127.15308  17993685.92809  17993686.35208
 -16905583.07808 -13173175.01308  19964631.85908  19964633.40208
 -28370639.31008 -22106977.00708  18077839.71408  18077840.14408
 -15753936.74808 -12275788.40408  20032173.57508  20032173.44308
 -11262581.11208  -8776038.39008  20979108.33708  20979109.46508
 93 04 07 08 02 00.0000000  0  7 28 22 03 23 21 17 26
  -5170546.40408  -4028997.19608  21715302.49008  21715302.71808
 -11210635.53608  -8735561.38108  20988993.34208  20988994.44008
 -31706425.21708 -24706289.78908  17907386.95108  17907387.98108
 -24431906.28809 -19037840.60608  17977149.54409  17977149.96208
 -17225627.84008 -13422560.44208  19903729.31608  19903730.88708
 -28404723.63608 -22133536.22608  18071353.69108  18071354.06108
 -15599237.12508 -12155243.23908  20061612.00708  20061611.92608
 93 04 07 08 04 00.0000000  0  7 28 22 03 23 21 17 26
  -5633963.89208  -4390101.65608  21627117.08708  21627117.24508
 -11151946.39208  -8689829.65008  21000161.53708  21000162.68108
 -31642893.28108 -24656784.41908  17919476.71008  17919477.76108
 -24512598.19309 -19100717.34108  17961794.36809  17961794.73308
 -17541367.03008 -13668590.87908  19843646.07008  19843647.60708
 -28436121.89808 -22158002.40708  18065378.79208  18065379.19808
 -15436583.12508 -12028499.85608  20092564.01408  20092563.88308
 93 04 07 08 06 00.0000000  0  7 28 22 03 23 21 17 26
  -6095672.18108  -4749874.28708  21539256.86208  21539256.98308
 -11086641.60108  -8638942.89008  21012588.77008  21012589.69508
 -31570547.31308 -24600410.97908  17933243.75508  17933244.76608
 -24587833.65709 -19159342.34208  17947477.53409  17947477.87008
 -17852826.78808 -13911286.70608  19784377.21308  19784378.67208
 -28464442.56608 -22180070.45708  18059989.57108  18059989.94208
 -15266326.33408 -11895832.21608  20124962.76508  20124962.59208
 93 04 07 08 08 00.0000000  0  7 28 22 03 23 21 17 26
  -6555315.27708  -5108037.70608  21451789.62508  21451789.84108
 -11014863.35908  -8583011.87208  21026247.72908  21026248.69408
 -31489370.14508 -24537156.09308  17948691.27008  17948692.35908
 -24657323.30209 -19213490.07408  17934254.00609  17934254.36308
 -18160486.71008 -14151021.59408  19725831.42408  19725832.82208
 -28489719.57608 -22199766.83008  18055179.53208  18055179.91908
 -15088629.86008 -11757367.41708  20158777.27308  20158777.18208
 93 04 07 08 10 00.0000000  0  7 28 22 03 23 21 17 26
  -7012385.78808  -5464196.51908  21364811.95608  21364812.10608
 -10936715.41008  -8522117.44708  21041118.83108  21041119.84508
 -31399307.56808 -24466977.50708  17965829.61708  17965830.75008
 -24721052.68309 -19263149.29508  17922126.74709  17922127.06808
 -18463920.84108 -14387463.66408  19668089.76808  19668091.12608
 -28511948.40008 -22217087.99708  18050949.47908  18050949.87108
 -14903587.14008 -11613178.27508  20193989.60408  20193989.43808
 93 04 07 08 12 00.0000000  0  7 28 22 03 23 21 17 26
  -7467537.71908  -5818860.34908  21278199.40008  21278199.63608
 -10852313.39808  -8456349.71008  21057180.05508  21057181.16808
 -31300320.11908 -24389844.48008  17984666.34808  17984667.47408
 -24779250.44009 -19308498.16308  17911052.00809  17911052.30808
 -18762954.38308 -14620476.71908  19611185.41308  19611186.79108
 -28531243.01908 -22232122.77208  18047277.86908  18047278.24708
 -14711121.10908 -11463204.74008  20230614.78608  20230614.64108
 93 04 07 08 14 00.0000000  0  7 28 22 03 23 21 17 26
  -7920290.57308  -6171654.76408  21192043.48108  21192043.62608
 -10761851.80208  -8385860.21108  21074394.33308  21074395.55508
 -31192449.83708 -24305789.76108  18005193.40908  18005194.52608
 -24831910.81709 -19349532.19609  17901031.06209  17901031.38009
 -19057839.62708 -14850257.33508  19555070.65208  19555071.89608
 -28547600.63508 -22244868.96608  18044165.10208  18044165.43908
 -14511555.63608 -11307699.16708  20268590.82208  20268590.71208
 93 04 07 08 16 00.0000000  0  7 28 22 03 23 21 17 26
  -8370045.66608  -6522113.26608  21106457.88808  21106458.01008
 -10665442.02708  -8310735.76808  21092740.53708  21092741.86408
 -31075658.70908 -24214783.73408  18027418.06008  18027419.21008
 -24879008.98209 -19386232.03609  17892068.56509  17892068.90609
 -19348509.70208 -15076753.37408  19499757.88908  19499759.15008
 -28560513.80108 -22254931.17608  18041707.79908  18041708.17508
 -14304925.03508 -11146688.29708  20307911.27208  20307911.15808
 93 04 07 08 18 00.0000000  0  7 22 03 23 28 21 17 26
 -10563188.06508  -8231057.41508  21112198.87808  21112200.20408
 -30949901.43608 -24116791.10808  18051348.94508  18051350.06308
 -24920886.10809 -19418863.53409  17884099.60909  17884099.93909
  -8816978.67608  -6870372.71908  21021409.39108  21021409.62308
 -19634977.05408 -15299974.58208  19445244.88808  19445246.09208
 -28570173.34508 -22262458.09808  18039869.67208  18039870.04608
 -14091252.55908 -10980190.26208  20348571.69908  20348571.60708
 93 04 07 08 20 00.0000000  0  8 22 01 03 23 28 21 17 26
 -10455231.55408  -8146935.51908  21132742.30808  21132743.74008
        -0.68617        -0.31517  22412051.27517  22412054.07717
 -30815178.85408 -24011812.51808  18076985.82608  18076986.93808
 -24957508.46209 -19447400.40409  17877130.51809  17877130.88609
  -9261028.11408  -7216385.24208  20936909.49308  20936909.68108
 -19917226.38808 -15519909.08008  19391534.56508  19391535.76208
 -28576795.93708 -22267618.56708  18038609.42808  18038609.81808
 -13871008.58508 -10808571.58308  20390482.85908  20390482.75008
 93 04 07 08 22 00.0000000  0  8 22 01 03 23 28 21 17 26
 -10341716.46308  -8058482.26708  21154343.53408  21154344.86508
   -483303.20207   -376599.34407  22320081.59507  22320084.31807
 -30671492.22408 -23899848.97108  18104328.51008  18104329.66608
 -24988819.82209 -19471798.84209  17871172.21009  17871172.51009
  -9701907.18108  -7559927.35608  20853012.94608  20853013.07808
 -20195311.12108 -15736598.49008  19338616.73908  19338618.04608
 -28580133.56908 -22270219.31808  18037974.30208  18037974.67608
 -13644165.04908 -10631810.39408  20433649.67408  20433649.66008
 93 04 07 08 24 00.0000000  0  8 22 01 03 23 28 21 17 26
 -10222779.23408  -7965803.97308  21176976.72908  21176977.86908
   -967560.57307   -753942.49607  22227930.29607  22227932.95707
 -30518840.88908 -23780899.93008  18133377.12208  18133378.27308
 -25014752.55009 -19492006.13109  17866237.31709  17866237.62809
 -10139412.41408  -7900840.50308  20769758.47808  20769758.62508
 -20469176.92008 -15950000.38908  19286501.76608  19286503.03608
 -28580143.66508 -22270227.18908  18037972.36508  18037972.69508
 -13410621.09108 -10449828.09108  20478091.68808  20478091.60908
 93 04 07 08 26 00.0000000  0  8 22 01 03 23 28 21 17 26
 -10098499.64608  -7868962.81608  21200626.37908  21200627.66008
  -1452441.38907  -1131771.49807  22135660.40807  22135663.03407
 -30357170.81408 -23654923.29608  18164141.99408  18164143.11408
 -25035551.12109 -19508212.77909  17862279.40609  17862279.74809
 -10573147.97708  -8238816.23108  20687221.38908  20687221.44608
 -20738643.91008 -16159974.45408  19235223.76508  19235224.97208
 -28576822.18108 -22267639.02608  18038604.45808  18038604.77508
 -13170360.16308 -10262611.78408  20523811.80808  20523811.69108
 93 04 07 08 28 00.0000000  0  8 22 01 03 23 28 21 17 26
  -9969082.30908  -7768118.21108  21225253.76508  21225255.09808
  -1938066.31107  -1510180.35308  22043248.97507  22043251.55608
 -30186557.07408 -23521977.59608  18196608.79808  18196609.90608
 -25051503.08309 -19520642.86909  17859243.95009  17859244.22909
 -11003003.91608  -8573768.89108  20605422.43408  20605422.50608
 -21003698.90608 -16366510.57008  19184785.26908  19184786.44508
 -28569927.00408 -22262266.18408  18039916.55408  18039916.90308
 -12924245.98108 -10070834.50808  20570645.81608  20570645.69508
 93 04 07 08 30 00.0000000  0  8 01 22 03 23 28 21 17 26
  -2424140.54007  -1888939.27708  21950751.93307  21950754.61608
  -9834652.66408  -7663367.91408  21250834.93608  21250836.27308
 -30006997.71108 -23382061.28008  18230777.83508  18230779.02508
 -25062375.24909 -19529114.66309  17857175.04509  17857175.29409
 -11428903.76608  -8905638.87708  20524376.41108  20524376.48508
 -21264067.48208 -16569395.00708  19135238.73408  19135239.78508
 -28559552.17408 -22254181.92208  18041890.82308  18041891.19608
 -12671586.26208  -9873956.80508  20618725.28908  20618725.21908
 93 04 07 08 32 00.0000000  0  8 01 22 03 23 28 21 17 26
  -2910300.01107  -2267764.56808  21858238.66607  21858241.23408
  -9695363.64408  -7554831.08708  21277340.79208  21277342.05108
 -29818525.85408 -23235200.16808  18266642.88608  18266644.08508
 -25068363.59409 -19533780.89008  17856035.43609  17856035.69308
 -11850817.66308  -9234402.93708  20444088.83108  20444088.92608
 -21520416.14008 -16769146.91808  19086457.02708  19086457.96108
 -28545821.10808 -22243482.39808  18044503.77208  18044504.18208
 -12413018.24908  -9672475.24208  20667929.15408  20667929.05308
 93 04 07 08 34 00.0000000  0  8 01 22 03 23 28 21 17 26
  -3396660.36908  -2646746.40008  21765687.23108  21765689.74208
  -9551323.62308  -7442592.17508  21304750.63608  21304752.02808
 -29621131.07208 -23081386.13608  18304205.91508  18304207.13308
 -25069516.94109 -19534679.57408  17855815.90609  17855816.15708
 -12268204.75208  -9559639.61808  20364662.69208  20364662.83208
 -21772181.21408 -16965327.29708  19038547.53408  19038548.45908
 -28528424.63508 -22229926.72608  18047814.23908  18047814.61908
 -12148536.08308  -9466385.24308  20718258.44108  20718258.32308
 93 04 07 08 36 00.0000000  0  8 01 22 03 23 28 21 17 26
  -3882939.18208  -3025664.67108  21673151.34108  21673153.66908
  -9402753.39208  -7326823.22608  21333022.60808  21333024.12008
 -29414919.72708 -22920702.04508  18343446.69108  18343447.92808
 -25065888.85709 -19531852.48208  17856506.29909  17856506.54508
 -12681062.99808  -9881347.33608  20286098.35508  20286098.45308
 -22019615.04908 -17158132.77208  18991462.31708  18991463.25108
 -28507397.18408 -22213541.71408  18051815.61908  18051815.99608
 -11877988.16508  -9255568.68008  20769741.95008  20769741.81808
 93 04 07 08 38 00.0000000  0  8 01 22 03 23 28 21 17 26
  -4369010.79808  -3404421.50008  21580654.74108  21580657.02008
  -9249844.90508  -7207673.81808  21362120.25008  21362121.65908
 -29199974.60608 -22753212.43208  18384349.43008  18384350.70608
 -25057619.69609 -19525408.96608  17858079.86409  17858080.07108
 -13089144.58508 -10199332.98008  20208442.93308  20208443.05608
 -22262930.01108 -17347728.76408  18945160.96608  18945161.87608
 -28482508.65608 -22194148.07408  18056551.79308  18056552.11608
 -11601944.99008  -9040470.10308  20822271.21908  20822271.08108
 93 04 07 08 40 00.0000000  0  8 01 22 03 23 28 21 17 26
  -4854544.69408  -3782759.35008  21488260.51008  21488262.73608
  -9092714.24808  -7085234.40708  21392021.32408  21392022.78408
 -28976306.62408 -22578925.78608  18426912.10808  18426913.40008
 -25044766.21009 -19515393.24708  17860525.75709  17860526.00508
 -13491968.98108 -10513222.10708  20131788.08108  20131788.20008
 -22501709.51408 -17533790.66108  18899722.68808  18899723.57708
 -28454097.66208 -22172009.65608  18061958.20908  18061958.55608
 -11320630.58908  -8821264.08408  20875803.60708  20875803.56708
 93 04 07 08 42 00.0000000  0  8 01 22 03 23 28 21 17 26
  -5339685.87408  -4160791.19908  21395940.95308  21395943.21608
  -8931560.19908  -6959659.87508  21422687.92008  21422689.41908
 -28744013.50508 -22397918.24008  18471116.11108  18471117.36808
 -25027475.00309 -19501919.56108  17863816.18209  17863816.44408
 -13890080.81708 -10823439.10708  20056029.87208  20056029.96508
 -22736542.89008 -17716777.62508  18855035.32008  18855036.20508
 -28421832.73108 -22146868.17608  18068098.04608  18068098.37808
 -11033874.50708  -8597817.80108  20930371.46208  20930371.43108
 93 04 07 08 44 00.0000000  0  8 01 26 22 03 23 28 21 17
  -5824149.49608  -4538295.06508  21303750.43708  21303752.59808
 -10741856.08008  -8370270.98408  20985940.77208  20985940.73108
  -8766545.37708  -6831076.96908  21454089.23508  21454090.68308
 -28503162.52608 -22210242.22108  18516948.57108  18516949.85008
 -25005573.80909 -19484853.69008  17867983.85309  17867984.08108
 -14282978.26508 -11129592.94708  19981263.96908  19981264.08508
 -22966821.31508 -17896215.27408  18811214.74108  18811215.62308
 -28385733.08308 -22118738.59808  18074967.63408  18074967.93208
 93 04 07 08 46 00.0000000  0  8 01 26 22 03 23 28 21 17
  -6307774.29508  -4915145.30308  21211719.36608  21211721.54308
 -10444970.48708  -8138931.57308  21042436.22808  21042436.11008
  -8597838.13408  -6699616.85708  21486193.16208  21486194.59908
 -28253830.55108 -22015957.63008  18564394.90108  18564396.20308
 -24979675.41509 -19464673.12308  17872912.16809  17872912.37008
 -14670483.41808 -11431544.99508  19907524.13408  19907524.31708
 -23192695.59708 -18072221.15708  18768232.22908  18768233.14408
 -28345869.84108 -22087676.35608  18082553.32108  18082553.66408
 93 04 07 08 48 00.0000000  0  8 01 26 22 03 23 28 21 17
  -6790229.05508  -5291083.84908  21119911.00308  21119913.21708
 -10143185.24308  -7903774.23808  21099864.01208  21099863.86408
  -8425618.86308  -6565420.10208  21518965.51708  21518966.99208
 -27996109.40408 -21815136.03408  18613437.60708  18613438.99908
 -24949466.43109 -19441133.65308  17878660.72809  17878660.96908
 -15052134.96508 -11728935.80308  19834898.30908  19834898.39708
 -23414424.30908 -18244996.75608  18726038.70208  18726039.52308
 -28302333.93608 -22053752.29408  18090837.94908  18090838.27608
 93 04 07 08 50 00.0000000  0  8 26 22 03 01 23 28 21 17
  -9836841.52508  -7665064.85008  21158159.24008  21158159.12808
  -8250036.65508  -6428602.87308  21552377.71608  21552379.24408
 -27730067.04108 -21607830.37408  18664063.86808  18664065.28308
  -7271502.13108  -5666101.62808  21028327.65308  21028329.70508
 -24914871.87209 -19414176.85108  17885243.86509  17885244.06908
 -15427781.54408 -12021647.41608  19763415.21408  19763415.20808
 -23631738.37808 -18414332.38208  18684685.17708  18684685.99408
 -28254317.39408 -22016336.82708  18099975.20808  18099975.55608
 93 04 07 08 52 00.0000000  0  8 26 22 03 01 23 28 21 17
  -9526143.08108  -7422962.16608  21217283.29308  21217283.12808
  -8071274.55608  -6289307.80508  21586395.19108  21586396.56208
 -27455808.66008 -21394122.61608  18716253.55708  18716254.99908
  -7751481.76108  -6040111.53308  20936990.43508  20936992.47108
 -24876583.86909 -19384342.03908  17892529.81809  17892530.05508
 -15797475.61208 -12309720.71608  19693064.73108  19693064.70108
 -23844950.51908 -18580471.70608  18644112.28408  18644113.07608
 -28202412.82408 -21975891.72908  18109852.33608  18109852.65708
 93 04 07 08 54 00.0000000  0  8 26 22 03 01 23 28 21 17
  -9210803.72408  -7177243.18808  21277290.27208  21277290.23908
  -7889496.45008  -6147662.58908  21620986.52408  21620988.00708
 -27173425.13908 -21174083.56908  18769989.38708  18769990.82408
  -8229579.98908  -6412655.39408  20846011.23408  20846013.22708
 -24834298.36309 -19351392.28908  17900576.52009  17900576.73708
 -16160942.12808 -12592941.37808  19623899.19308  19623899.14808
 -24053859.89808 -18743258.20508  18604358.11608  18604358.91908
 -28146517.56508 -21932337.00508  18120488.90108  18120489.26908
 93 04 07 08 56 00.0000000  0  8 26 22 03 01 23 28 21 17
  -8891059.57808  -6928091.91908  21338135.55608  21338135.44408
  -7704902.81408  -6003823.47308  21656113.53108  21656115.02608
 -26883047.75808 -20947815.57108  18825246.42608  18825247.86308
  -8706044.46108  -6783926.20708  20755342.90208  20755344.86708
 -24787968.54809 -19315291.13208  17909392.72409  17909392.98808
 -16518237.64008 -12871353.46708  19555908.31208  19555908.30808
 -24258310.58708 -18902570.44108  18565452.45508  18565453.27808
 -28086487.08508 -21885560.02508  18131912.27208  18131912.72808
 93 04 07 08 58 00.0000000  0  8 26 22 03 01 23 28 21 17
  -8567548.76608  -6676005.56708  21399697.61908  21399697.57308
  -7517681.22608  -5857936.61708  21691740.63308  21691742.12408
 -26584799.57508 -20715414.47608  18882001.25908  18882002.73108
  -9180852.24508  -7153906.10708  20664989.94308  20664991.76708
 -24737870.18209 -19276253.44208  17918926.12909  17918926.41608
 -16869141.09908 -13144784.72408  19489133.60008  19489133.61508
 -24458652.31408 -19058680.89608  18527328.73308  18527329.57008
 -28022433.89208 -21835648.47008  18144101.21308  18144101.66908
 93 04 07 09 00 00.0000000  0  8 26 22 03 01 23 28 21 17
  -8240379.81608  -6421068.71908  21461955.70008  21461955.75408
  -7328034.02207  -5710159.66708  21727829.32907  21727830.94108
 -26278824.76108 -20476992.63708  18940226.48408  18940227.89808
  -9653615.98808  -7522293.25208  20575025.79408  20575027.64208
 -24684320.45309 -19234526.38008  17929116.28509  17929116.58308
 -17213451.94908 -13413078.87308  19423613.39508  19423613.44008
 -24655079.69208 -19211741.19108  18489949.83808  18489950.68008
 -27954431.32908 -21782659.47908  18157041.70108  18157042.12308
 93 04 07 09 02 00.0000000  0  8 26 22 03 01 23 28 21 17
  -7909238.93108  -6163036.86108  21524969.79508  21524969.76608
  -7136119.73707  -5560616.16708  21764349.43107  21764351.16108
 -25965226.01308 -20232630.11408  18999902.47808  18999903.90608
 -10123987.93508  -7888816.66708  20485516.83708  20485518.64208
 -24627136.57709 -19189967.51408  17939998.00909  17939998.27908
 -17550565.47208 -13675764.72908  19359462.80408  19359462.86708
 -24847318.18308 -19361537.42408  18453368.09408  18453368.92308
 -27882079.02208 -21726281.08508  18170809.99208  18170810.36508
 93 04 07 09 04 00.0000000  0  8 26 22 03 01 23 28 21 17
  -7574504.21608  -5902204.61208  21588667.64708  21588667.60908
  -6942055.86907  -5409397.65008  21801278.65107  21801280.24408
 -25644072.06308 -19982380.48208  19061016.21108  19061017.67508
 -10591794.81808  -8253341.34608  20396496.06308  20396497.73008
 -24566323.08209 -19142580.37508  17951570.38209  17951570.64608
 -17880474.88808 -13932837.00508  19296683.11908  19296683.22408
 -25035435.30108 -19508122.13708  18417570.55408  18417571.35908
 -27805410.57008 -21666539.45308  18185399.50808  18185399.91608
 93 04 07 09 06 00.0000000  0  8 26 22 03 01 23 28 21 17
  -7236292.77007  -5638663.22908  21653027.21007  21653027.24308
  -6746039.71807  -5256657.88508  21838579.33407  21838580.96308
 -25315514.86208 -19726362.04108  19123538.65608  19123540.14608
 -11057012.57008  -8615848.52508  20307968.00108  20307969.63408
 -24502068.03609 -19092511.50608  17963797.78009  17963798.06008
 -18203220.08408 -14184326.78408  19235266.69408  19235266.79908
 -25219398.51808 -19651470.02508  18382563.49108  18382564.24808
 -27724357.94508 -21603381.58408  18200823.31908  18200823.70708
 93 04 07 09 08 00.0000000  0  8 26 22 03 01 23 28 21 17
  -6894979.21907  -5372704.62007  21717976.93707  21717977.05607
  -6548275.26907  -5102555.80007  21876212.70507  21876214.39007
 -24979715.20008 -19464700.10808  19187439.24308  19187440.81708
 -11519342.63708  -8976105.56908  20219989.32908  20219991.03708
 -24434432.26809 -19039808.30408  17976668.42709  17976668.70908
 -18518485.24108 -14429987.96108  19175273.86508  19175273.90708
 -25399182.44008 -19791561.32308  18348351.67008  18348352.39808
 -27638888.32508 -21536781.91008  18217087.62908  18217088.09408
 93 04 07 09 10 00.0000000  0  8 26 22 03 01 23 28 21 17
  -6550734.34907  -5104461.86407  21783484.65907  21783484.62107
  -6348952.74007  -4947239.61807  21914142.58207  21914144.34707
 -24636827.25408 -19197514.77508  19252688.70308  19252690.28608
 -11979055.06108  -9334322.89108  20132508.85108  20132510.47208
 -24363592.30609 -18984608.33708  17990148.86109  17990149.11308
 -18826553.13808 -14670040.87308  19116650.36308  19116650.43808
 -25574891.04508 -19928477.07308  18314915.38708  18314916.16208
 -27548989.77608 -21466731.12608  18234194.79308  18234195.25708
 93 04 07 09 12 00.0000000  0  8 26 22 03 01 23 28 21 17
  -6203220.34607  -4833671.71807  21849614.38007  21849614.25807
  -6148249.63707  -4790847.68407  21952335.15407  21952336.92207
 -24286997.01308 -18924919.89208  19319259.35108  19319260.86108
 -12436024.18308  -9690402.58608  20045550.43708  20045551.88208
 -24289418.29809 -18926810.40808  18004263.68709  18004263.96008
 -19126696.91608 -14903919.14808  19059534.94608  19059535.05808
 -25746949.16908 -20062548.29008  18282173.78408  18282174.50908
 -27454941.32908 -21393446.64708  18252091.65508  18252092.13608
 93 04 07 09 14 00.0000000  0  8 26 22 03 01 23 28 21 17
  -5852974.97007  -4560753.25007  21916263.86607  21916263.78307
  -5946367.47507  -4633536.99307  21990752.14807  21990753.97407
 -23930397.87708 -18647050.58508  19387118.04008  19387119.60908
 -12889561.50308 -10043808.15208  19959245.01608  19959246.42808
 -24212122.48509 -18866579.91008  18018972.62409  18018972.91708
 -19419258.96108 -15131889.58108  19003862.28708  19003862.34508
 -25915054.69008 -20193539.55508  18250184.34708  18250184.99708
 -27356553.97008 -21316781.19408  18270814.12808  18270814.63308
 93 04 07 09 16 00.0000000  0  8 26 22 03 01 23 28 21 17
  -5500564.87207  -4286147.99307  21983325.37707  21983325.05807
  -5743472.78607  -4475437.34907  22029361.82007  22029363.71707
 -23567172.09908 -18364017.68508  19456237.66208  19456239.34108
 -13339352.06108 -10394294.15908  19873652.63308  19873654.02208
 -24131951.25608 -18804108.82208  18034228.63908  18034228.96108
 -19703786.59408 -15353599.44008  18949718.48208  18949718.62808
 -26078914.84808 -20321222.74008  18219002.73208  18219003.43808
 -27253394.05808 -21236396.87208  18290444.83208  18290445.34508
 93 04 07 09 18 00.0000000  0  8 26 22 03 01 23 28 21 17
  -5145488.16607  -4009464.85507  22050894.23807  22050893.81507
  -5539754.13707  -4316695.62307  22068128.21707  22068130.11707
 -23197488.89008 -18075952.97808  19526586.13208  19526587.83308
 -13785667.51908 -10742072.29808  19788721.51008  19788722.94308
 -24049029.42808 -18739494.40308  18050008.17808  18050008.47708
 -19980066.89708 -15568882.80308  18897144.00708  18897144.16708
 -26238813.06408 -20445818.70508  18188575.00908  18188575.77208
 -27146110.88308 -21152799.61708  18310860.16508  18310860.66808
 93 04 07 09 20 00.0000000  0  8 26 22 03 01 23 28 21 17
  -4788171.13407  -3731036.00707  22118889.33507  22118888.97007
  -5335376.14807  -4157440.11607  22107020.12207  22107021.93707
 -22821497.56108 -17782972.82908  19598134.96408  19598136.72108
 -14228624.18608 -11087233.19208  19704429.57308  19704430.98008
 -23963232.30608 -18672639.49808  18066334.81908  18066335.09608
 -20248165.08608 -15777790.48808  18846126.59808  18846126.76908
 -26395021.69708 -20567539.65008  18158849.39808  18158850.17408
 -27034177.62208 -21065578.91608  18332160.35508  18332160.85608
 93 04 07 09 22 00.0000000  0  7 22 03 01 23 28 21 17
  -5130522.94107  -3997814.32907  22146002.47007  22146004.25707
 -22439371.26008 -17485212.26208  19670851.31608  19670853.16308
 -14667568.73808 -11429267.77708  19620901.15508  19620902.48808
 -23874538.76408 -18603527.64208  18083212.66608  18083212.96208
 -20507924.36008 -15980200.32208  18796696.28908  18796696.39408
 -26547460.12708 -20686322.79408  18129841.35908  18129842.09108
 -26917371.98908 -20974561.56508  18354387.77708  18354388.25908
 93 04 07 09 24 00.0000000  0  8 11 22 03 01 23 28 21 17
        -0.27017        -0.91017  22635979.19017  22635980.87417
  -4925396.91607  -3837975.93007  22185036.73607  22185038.46507
 -22051304.50808 -17182822.74508  19744698.12408  19744699.91808
 -15102064.81608 -11767836.02208  19538219.16508  19538220.49208
 -23783352.64708 -18532473.51608  18100564.75908  18100565.07108
 -20759240.42408 -16176031.03508  18748872.37108  18748872.43208
 -26696173.98408 -20802203.66608  18101542.00108  18101542.70908
 -26796289.24908 -20880211.40608  18377429.06408  18377429.58508
 93 04 07 09 26 00.0000000  0  8 11 22 03 01 23 28 21 17
   -494138.81507   -385043.92707  22541947.82107  22541949.40807
  -4720147.01907  -3678041.02107  22224094.50607  22224096.47707
 -21657441.72108 -16875916.63808  19819647.70208  19819649.43708
 -15532653.64208 -12103359.65708  19456280.72208  19456282.02208
 -23689460.93508 -18459311.14308  18118431.72708  18118432.02108
 -21001812.57208 -16365048.30708  18702712.40008  18702712.48808
 -26841097.85408 -20915131.31808  18073963.90208  18073964.66508
 -26670646.33908 -20782307.87508  18401338.20008  18401338.67708
 93 04 07 09 28 00.0000000  0  8 11 22 03 01 23 28 21 17
   -988613.03207   -770348.50007  22447852.47307  22447854.13307
  -4515014.28707  -3518197.39307  22263130.08007  22263131.96607
 -21258027.20308 -16564684.56208  19895653.75308  19895655.59008
 -15958931.45408 -12435524.06408  19375162.66608  19375163.94508
 -23593269.97308 -18384357.14508  18136736.31108  18136736.60008
 -21235429.54808 -16547087.53808  18658256.64908  18658256.73208
 -26982562.65308 -21025363.59108  18047044.00108  18047044.74608
 -26540239.80308 -20680692.41608  18426153.80708  18426154.23008
 93 04 07 09 30 00.0000000  0  8 11 22 03 01 23 28 21 17
  -1483247.62207  -1155778.04207  22353726.61907  22353728.32607
  -4310162.49407  -3358572.64407  22302112.12807  22302113.98807
 -20853227.26608 -16249256.08708  19972684.57208  19972686.54808
 -16380617.12808 -12764110.18308  19294918.43508  19294919.69708
 -23494568.45708 -18307446.87108  18155518.55808  18155518.81108
 -21460551.14408 -16722506.95008  18615417.37308  18615417.46808
 -27120181.29908 -21132598.85408  18020855.99108  18020856.69808
 -26405286.83508 -20575534.28908  18451834.42808  18451834.92908
 93 04 07 09 32 00.0000000  0  8 11 22 03 01 23 28 21 17
  -1977868.36707  -1541196.77407  22259603.37707  22259605.14907
  -4105755.62507  -3199294.58607  22341009.48207  22341011.35707
 -20443213.45508 -15929764.86108  20050707.71808  20050709.66808
 -16797742.78208 -13089143.04208  19215542.04608  19215543.27608
 -23393572.85808 -18228748.99908  18174737.47108  18174737.67408
 -21676884.51908 -16891078.41808  18574250.53708  18574250.60308
 -27254086.46808 -21236940.50408  17995374.67808  17995375.36208
 -26265610.14008 -20466695.32808  18478414.00508  18478414.56608
 93 04 07 09 34 00.0000000  0  8 11 22 03 01 23 28 21 17
  -2472264.98307  -1926440.86107  22165522.80107  22165524.42507
  -3901926.38607  -3040466.62007  22379796.86207  22379798.83707
 -20028128.60708 -15606322.17808  20129695.80308  20129697.67708
 -17210123.68108 -13410478.68808  19137068.47908  19137069.65908
 -23290122.72308 -18148138.50108  18194423.34608  18194423.58608
 -21883965.14008 -17052439.94508  18534844.39108  18534844.46408
 -27384770.72208 -21338772.35108  17970506.25108  17970506.87608
 -26121318.01708 -20354259.92808  18505871.91208  18505872.46408
 93 04 07 09 36 00.0000000  0  8 11 22 03 01 23 28 21 17
  -2966294.59708  -2311398.95707  22071512.15508  22071513.71407
  -3698873.07507  -2882243.30007  22418436.60407  22418438.49407
 -19608187.11608 -15279095.09408  20209608.00608  20209609.90508
 -17617444.88008 -13727871.73108  19059557.76208  19059558.88508
 -23184455.46708 -18065800.37208  18214531.08108  18214531.32608
 -22081748.39408 -17206556.78308  18497207.39008  18497207.57008
 -27511596.62108 -21437597.67808  17946372.04008  17946372.68608
 -25972248.82308 -20238102.13508  18534238.85908  18534239.38508
 93 04 07 09 38 00.0000000  0  8 11 22 03 01 23 28 21 17
  -3459744.17408  -2695905.08408  21977611.72408  21977613.35708
  -3496725.38407  -2724725.61107  22456903.95507  22456905.81307
 -19183537.92008 -14948199.64108  20290416.11008  20290418.01108
 -18019753.31908 -14041358.73408  18983000.94408  18983002.06108
 -23076779.33208 -17981896.89108  18235021.16508  18235021.42308
 -22270458.29208 -17353603.45808  18461297.14908  18461297.30108
 -27634591.83308 -21533438.03608  17922966.79308  17922967.41908
 -25818571.50508 -20118353.60508  18563482.72708  18563483.25308
 93 04 07 09 40 00.0000000  0  8 11 22 03 01 23 28 21 17
  -3952409.68608  -3079800.27108  21883860.62408  21883862.17108
  -3295626.34607  -2568025.04506  22495171.92207  22495173.76206
 -18754343.57708 -14613762.51308  20372089.05408  20372091.01908
 -18416776.57608 -14350727.40808  18907449.84608  18907450.93408
 -22966832.56308 -17896224.07808  18255943.39208  18255943.64608
 -22449632.55108 -17493219.78708  18427201.31808  18427201.40708
 -27754490.78108 -21626865.73408  17900150.75408  17900151.36208
 -25660205.37408 -19994951.45008  18593618.79308  18593619.34808
 93 04 07 09 42 00.0000000  0  8 11 22 03 01 23 28 21 17
  -4444153.91808  -3462977.58908  21790284.80808  21790286.30508
  -3095783.92107  -2412303.64806  22533200.69407  22533202.44806
 -18320838.37808 -14275966.26508  20454582.31508  20454584.29608
 -18808328.28208 -14655832.53208  18832939.97808  18832941.06908
 -22854862.41008 -17808974.60208  18277250.59408  18277250.83008
 -22619525.05708 -17625603.54108  18394872.00308  18394872.06208
 -27871071.89508 -21717708.11908  17877966.03808  17877966.65708
 -25496982.55308 -19867764.85808  18624679.04708  18624679.65608
 93 04 07 09 44 00.0000000  0  7 11 03 01 23 28 21 17
  -4934737.68408  -3845250.65008  21696929.79008  21696931.34008
 -17883157.35308 -13934916.12408  20537870.28408  20537872.20408
 -19194316.31608 -14956602.33408  18759488.80108  18759489.89008
 -22741251.08408 -17720446.29608  18298870.12108  18298870.35408
 -22779824.02808 -17750511.82108  18364368.01308  18364368.04008
 -27984189.19108 -21805851.43408  17856440.51108  17856441.16708
 -25328679.62908 -19736619.75108  18656705.99308  18656706.63308
 93 04 07 09 46 00.0000000  0  7 11 03 01 23 28 21 17
  -5423992.91108  -4226488.48108  21603827.66308  21603829.21308
 -17441511.74008 -13590776.66708  20621912.68608  20621914.58108
 -19574533.93508 -15252875.70108  18687135.68008  18687136.70908
 -22625451.98908 -17630213.23908  18320905.94108  18320906.21808
 -22930519.43908 -17867936.82808  18335691.80608  18335691.81008
 -28093854.87208 -21891305.19008  17835571.83708  17835572.46308
 -25155795.80008 -19601905.10208  18689604.72708  18689605.33508
 93 04 07 09 48 00.0000000  0  7 11 03 01 23 28 21 17
  -5911733.42208  -4606546.03908  21511013.73308  21511015.22808
 -16996097.92708 -13243700.93608  20706672.09508  20706673.98608
 -19948964.29008 -15544639.50808  18615883.89008  18615884.85008
 -22507579.66408 -17538364.66808  18343336.34408  18343336.60208
 -23071450.67508 -17977753.37508  18308873.46608  18308873.52108
 -28200212.47808 -21974181.22208  17815332.63608  17815333.25908
 -24978325.53208 -19463616.60008  18723376.25408  18723376.81008
 93 04 07 09 50 00.0000000  0  7 11 01 03 23 28 21 17
  -6397829.49708  -4985322.21908  21418512.73408  21418514.21708
 -20317532.61508 -15831835.50808  18545747.66308  18545748.56708
 -16547172.04908 -12893888.52108  20792099.75108  20792101.75108
 -22388120.47408 -17445279.58608  18366068.61308  18366068.86508
 -23202601.57908 -18079948.89408  18283916.25008  18283916.36408
 -28303288.19208 -22054499.94308  17795717.98108  17795718.52908
 -24795950.36508 -19321506.09908  18758081.11008  18758081.70508
 93 04 07 09 52 00.0000000  0  8 11 12 01 23 03 28 21 17
  -6882080.39008  -5362660.57908  21326362.91008  21326364.30508
        -0.18118         0.36518  21671230.91618  21671232.70318
 -20679890.80808 -16114192.44108  18476793.05408  18476793.94808
 -22266978.54108 -17350883.26808  18389121.14408  18389121.40008
 -16094922.47708 -12541486.19908  20878159.87608  20878161.82508
 -23323977.97208 -18174527.91808  18260819.10908  18260819.20008
 -28402960.68508 -22132166.80008  17776750.98608  17776751.48908
 -24608824.13808 -19175693.47908  18793690.04608  18793690.67008
 93 04 07 09 54 00.0000000  0  8 03 11 12 01 23 28 21 17
 -15639613.56008 -12186699.96408  20964802.14508  20964804.13308
  -7364358.74008  -5738461.85608  21234588.35008  21234589.77008
   -305382.95108   -237960.15408  21613118.53208  21613120.25408
 -21036315.99008 -16391926.24908  18408967.55408  18408968.40208
 -22144227.57608 -17255233.16008  18412479.89608  18412480.11908
 -23435841.80408 -18261694.55308  18239532.08908  18239532.16708
 -28499513.75408 -22207402.92708  17758377.47308  17758377.98108
 -24417157.98308 -19026343.25508  18830162.87908  18830163.58208
 93 04 07 09 56 00.0000000  0  8 03 11 12 01 23 28 21 17
 -15181468.32008 -11829703.60008  21051984.29308  21051986.21308
  -7844492.40708  -6112591.94808  21143221.83808  21143223.35208
   -606332.39008   -472466.10708  21555849.76408  21555851.37808
 -21386494.62008 -16664792.61408  18342330.69408  18342331.53708
 -22019907.35808 -17158360.26208  18436137.21308  18436137.41808
 -23538100.73608 -18341376.85708  18220072.66108  18220072.74008
 -28593138.30308 -22280357.09808  17740561.34208  17740561.85208
 -24220711.83908 -18873268.36208  18867545.37208  18867546.07408
 93 04 07 09 58 00.0000000  0  8 03 11 12 01 23 28 21 17
 -14720598.37008 -11470584.07108  21139684.95508  21139686.75808
  -8322196.65408  -6484828.98208  21052317.73508  21052319.16808
   -902538.73008   -703276.15008  21499483.44808  21499485.06708
 -21730179.57508 -16932598.97008  18276929.57308  18276930.38108
 -21894123.37508 -17060346.76908  18460073.15408  18460073.37608
 -23630572.46208 -18413432.79808  18202476.16308  18202476.26608
 -28683526.66708 -22350789.55808  17723360.93308  17723361.48908
 -24019436.84008 -18716430.73708  18905846.75508  18905847.42408
 93 04 07 10 00 00.0000000  0  8 03 12 01 23 28 21 17 11
 -14257157.50208 -11109461.22308  21227874.75508  21227876.53708
  -1193733.75208   -930181.26208  21444070.86308  21444072.37708
 -22067236.92608 -17195240.96008  18212789.60908  18212790.38008
 -21766656.41908 -16961021.86308  18484329.31708  18484329.53608
 -23713238.81608 -18477848.19408  18186745.26708  18186745.40208
 -28770728.75008 -22418739.21208  17706766.87408  17706767.41408
 -23813184.67708 -18555714.79008  18945095.24008  18945095.95308
  -8797225.48508  -6854981.28608  20961922.72408  20961924.14808
 93 04 07 10 02 00.0000000  0  8 03 12 01 23 28 21 17 11
 -13791350.84808 -10746494.89108  21316514.69708  21316516.56808
  -1479704.30108  -1153015.38408  21389652.25508  21389653.85008
 -22397729.24108 -17452767.34308  18149898.92708  18149899.69108
 -21637460.71108 -16860349.87408  18508914.39908  18508914.68308
 -23785901.69908 -18534468.73008  18172918.03208  18172918.17308
 -28854997.35608 -22484403.03808  17690731.10508  17690731.63608
 -23602421.62608 -18391483.84608  18985202.09908  18985202.81708
  -9269383.15208  -7222896.31308  20872074.08608  20872075.52508
 93 04 07 10 04 00.0000000  0  8 03 12 01 23 28 21 17 11
 -13323424.41708 -10381876.77708  21405557.99508  21405559.93108
  -1760279.18708  -1371645.10008  21336260.54208  21336262.26508
 -22721429.59008 -17705001.29508  18088300.72808  18088301.49808
 -21506880.51308 -16758599.06108  18533762.96808  18533763.30208
 -23848706.67608 -18583407.72008  18160966.83708  18160966.99108
 -28936189.11208 -22547669.31708  17675280.82708  17675281.34308
 -23387117.47908 -18223714.39308  19026173.17908  19026173.83208
  -9738512.56008  -7588451.66808  20782801.71008  20782803.14708
 93 04 07 10 06 00.0000000  0  8 03 12 01 23 28 21 17 11
 -12853599.53808 -10015779.35008  21494962.59408  21494964.41308
  -2035265.75108  -1585920.25508  21283932.30208  21283934.02908
 -23038320.85808 -17951929.46808  18027998.28808  18027999.00608
 -21375149.16308 -16655951.24708  18558830.60008  18558830.89108
 -23901765.40008 -18624752.26108  18150870.16808  18150870.30608
 -29014253.95008 -22608499.03608  17660425.58808  17660426.07608
 -23167137.63608 -18052301.52308  19068033.98108  19068034.61908
 -10204431.10908  -7951505.05908  20694140.32708  20694141.69808
 93 04 07 10 08 00.0000000  0  8 03 12 01 23 28 21 17 11
 -12382079.37308  -9648360.91108  21584689.85508  21584691.57208
  -2304454.99008  -1795678.01108  21232707.28808  21232708.88508
 -23348497.77008 -18193625.67608  17968973.49808  17968974.17308
 -21242260.76908 -16552401.85108  18584118.45408  18584118.67208
 -23945066.49908 -18658493.46708  18142630.24908  18142630.35608
 -29089625.42208 -22667230.02808  17646082.84908  17646083.29208
 -22942448.01008 -17877218.69308  19110790.93108  19110791.63208
 -10666935.97808  -8311898.43008  20606128.46508  20606129.95608
 93 04 07 10 10 00.0000000  0  8 03 12 01 23 28 21 17 11
 -11909070.89708  -9279782.75307  21674700.27708  21674701.90507
  -2567646.20608  -2000761.98808  21182623.58508  21182625.14208
 -23651489.25008 -18429722.83808  17911316.05508  17911316.73208
 -21108211.70508 -16447948.03508  18609627.09608  18609627.35308
 -23978701.17608 -18684702.37808  18136229.86608  18136229.99808
 -29162044.92808 -22723660.77808  17632301.85608  17632302.30508
 -22713128.21508 -17698527.94408  19154428.96608  19154429.67008
 -11125828.15308  -8669476.73008  20518804.19408  20518805.73608
 93 04 07 10 12 00.0000000  0  8 03 12 01 23 28 21 17 11
 -11434751.75608  -8910183.29407  21764960.03608  21764961.72307
  -2824612.26108  -2200995.20408  21133724.46008  21133726.01308
 -23947399.36809 -18660302.06808  17855006.17309  17855006.86208
 -20972670.55808 -16342331.54708  18635419.64008  18635420.00208
 -24002442.77308 -18703202.38608  18131711.97308  18131712.17108
 -29231553.29908 -22777823.11208  17619074.83008  17619075.24108
 -22479162.31608 -17516216.87908  19198951.24908  19198951.99008
 -11580877.70408  -9024060.76608  20432211.04908  20432212.63608
 93 04 07 10 14 00.0000000  0  8 12 03 01 23 28 21 17 11
  -3075177.26808  -2396240.58808  21086043.48108  21086044.90908
 -10959346.85307  -8539737.79007  21855426.46107  21855428.14407
 -24236366.66909 -18885471.32708  17800017.43809  17800018.13008
 -20835726.02508 -16235621.50308  18661479.31808  18661479.62908
 -24016235.80808 -18713950.21208  18129087.21308  18129087.45808
 -29298159.99008 -22829724.39908  17606399.94008  17606400.37108
 -22240661.65608 -17330372.21808  19244336.41108  19244337.13708
 -12031902.20508  -9375508.40208  20346383.92908  20346385.52508
 93 04 07 10 16 00.0000000  0  8 12 03 01 23 28 21 17 11
  -3319160.96008  -2586357.67408  21039614.82508  21039616.30808
 -10483071.78807  -8168614.25007  21946058.44907  21946060.16607
 -24517619.70109 -19104629.47008  17746496.72109  17746497.42308
 -20697498.13708 -16127911.45208  18687783.23708  18687783.51608
 -24020689.96208 -18717420.97308  18128239.61408  18128239.85008
 -29361933.23408 -22879417.79208  17594264.26408  17594264.72708
 -21997672.26108 -17141029.84108  19290575.83708  19290576.48108
 -12478710.16408  -9723670.43108  20261359.27608  20261360.76608
 93 04 07 10 18 00.0000000  0  8 03 01 23 28 21 17 11 12
 -10006123.81307  -7796966.35407  22036818.68607  22036820.19707
 -24791797.95309 -19318274.78208  17694322.28909  17694322.93808
 -20558904.61308 -16019916.48808  18714156.70208  18714156.95508
 -24015806.46808 -18713615.65108  18129169.00208  18129169.16308
 -29423094.52108 -22927075.90708  17582625.67708  17582626.07308
 -21750313.60408 -16948282.83208  19337646.64808  19337647.29708
 -12921091.61408 -10068383.23408  20177176.85408  20177178.34308
  -3556368.92108  -2771194.97408  20994475.66508  20994477.08008
 93 04 07 10 20 00.0000000  0  8 03 01 23 28 21 17 11 12
  -9528686.86107  -7424937.46407  22127671.90107  22127673.39807
 -25058660.01309 -19526219.12408  17643540.06109  17643540.60808
 -20419044.76508 -15910934.78408  18740771.17108  18740771.35508
 -24001180.64608 -18702218.89008  18131952.16408  18131952.26408
 -29481572.08308 -22972642.80408  17571497.66008  17571498.10408
 -21498495.90008 -16752061.22808  19385565.97708  19385566.64808
 -13358823.87308 -10409473.28708  20093879.17008  20093880.61808
  -3786598.65908  -2950594.70008  20950664.39108  20950665.75708
 93 04 07 10 22 00.0000000  0  8 03 01 23 28 21 17 11 12
  -9050911.48307  -7052644.85507  22218589.49507  22218590.82207
 -25317955.88109 -19728267.71608  17594197.59909  17594198.13008
 -20277817.66008 -15800887.68308  18767645.71808  18767645.96308
 -23977039.58308 -18683407.66108  18136546.01308  18136546.13508
 -29537245.63708 -23016024.75508  17560903.32508  17560903.73108
 -21242310.74708 -16552436.42808  19434316.38808  19434317.02508
 -13791651.53508 -10746741.56008  20011514.72908  20011516.18308
  -4009619.32008  -3124376.96608  20908224.92908  20908226.40808
 93 04 07 10 24 00.0000000  0  8 03 01 23 28 21 17 11 12
  -8572974.01007  -6680225.93907  22309537.75607  22309539.14907
 -25569751.85309 -19924472.25108  17546282.27609  17546282.81908
 -20135578.24808 -15690051.77008  18794712.95108  18794713.19408
 -23943578.61808 -18657334.14508  18142913.52108  18142913.68608
 -29590042.73208 -23057165.30808  17550856.33408  17550856.76408
 -20981698.51108 -16349361.96408  19483909.30308  19483909.92608
 -14219347.90208 -11080011.42408  19930126.81008  19930128.30008
  -4225233.83408  -3292388.21808  20867194.76908  20867196.20308
 93 04 07 10 26 00.0000000  0  8 03 01 23 28 21 17 11 12
  -8095078.37807  -6307839.63107  22400478.37107  22400479.61607
 -25813766.82109 -20114613.65608  17499847.70309  17499848.19608
 -19992232.70808 -15578353.93708  18821990.73408  18821990.96608
 -23900680.38408 -18623906.93508  18151076.76208  18151076.97208
 -29640200.02308 -23096248.87308  17541311.70408  17541312.14608
 -20716670.08908 -16142846.32608  19534342.45408  19534343.06308
 -14641715.09808 -11409128.69208  19849753.04708  19849754.43808
  -4433277.92008  -3454500.44608  20827605.09808  20827606.67908
 93 04 07 10 28 00.0000000  0  7 01 23 28 21 17 11 12
 -26050097.86509 -20298767.60508  17454875.31209  17454875.79108
 -19847689.44908 -15465722.81308  18849496.46008  18849496.64208
 -23848774.64608 -18583460.90208  18160953.94408  18160954.19208
 -29687631.31208 -23133208.28908  17532285.78808  17532286.22408
 -20447374.39008 -15933005.52508  19585587.73508  19585588.41008
 -15058569.63108 -11733950.36208  19770428.20708  19770429.62908
  -4633606.95508  -3610600.95108  20789483.77008  20789485.33408
 93 04 07 10 30 00.0000000  0  7 01 23 28 21 17 11 12
 -26278904.55009 -20477058.43008  17411334.80409  17411335.25008
 -19702581.53408 -15352651.69908  18877109.51108  18877109.74208
 -23787566.04508 -18535765.88108  18172601.59508  18172601.83108
 -29732523.01708 -23168188.79808  17523743.15308  17523743.58808
 -20173915.78108 -15719920.89508  19637625.17308  19637625.87508
 -15469678.57708 -12054294.93108  19692196.66708  19692198.08308
  -4826030.92708  -3760541.67008  20752866.79208  20752868.25108
 93 04 07 10 32 00.0000000  0  8 25 01 23 28 21 17 11 12
         0.27617         0.30417  22112696.50517  22112696.87417
 -26499834.06909 -20649211.21309  17369293.22309  17369293.63509
 -19556328.00108 -15238687.89108  18904940.68708  18904940.85008
 -23716912.98308 -18480711.53408  18186046.38808  18186046.59708
 -29774731.39008 -23201078.38908  17515711.12108  17515711.53908
 -19896009.79308 -15503370.77208  19690508.94008  19690509.55108
 -15874712.30608 -12369905.58008  19615121.30908  19615122.66008
  -5010267.94908  -3904102.97208  20717807.53508  20717809.11208
 93 04 07 10 34 00.0000000  0  8 25 01 23 28 21 17 11 12
   -414094.27707   -322670.65507  22033896.79407  22033897.03907
 -26712855.13509 -20815201.54109  17328756.55109  17328756.95309
 -19408772.15108 -15123709.29408  18933019.66608  18933019.79008
 -23637509.41808 -18418838.61308  18201156.45408  18201156.60608
 -29813885.03208 -23231587.69308  17508260.39708  17508260.80708
 -19613944.37608 -15283579.55108  19744184.20008  19744184.83808
 -16273541.28408 -12680681.37108  19539226.73608  19539228.00108
  -5186241.26808  -4041225.01408  20684320.78508  20684322.43608
 93 04 07 10 36 00.0000000  0  8 25 01 23 28 21 17 11 12
   -831305.68407   -647770.35607  21954503.98507  21954504.28907
 -26918179.39609 -20975194.38309  17289684.58309  17289684.98209
 -19260219.63708 -15007954.07208  18961288.18808  18961288.32608
 -23549090.41008 -18349940.66408  18217981.94708  18217982.12408
 -29850480.65108 -23260103.71808  17501296.43808  17501296.88408
 -19327846.49408 -15060646.14308  19798626.82108  19798627.44508
 -16666003.84208 -12986496.30508  19464543.56308  19464544.83908
  -5353846.22908  -4171826.27208  20652426.58808  20652428.26308
 93 04 07 10 38 00.0000000  0  8 25 01 23 28 21 17 11 12
  -1251276.74407   -975020.44207  21874586.09407  21874586.44407
 -27115711.45009 -21129115.38609  17252095.42509  17252095.80109
 -19110663.45708 -14891416.77108  18989747.77208  18989747.94208
 -23451626.13708 -18273994.47708  18236528.76908  18236528.92608
 -29884510.55208 -23286620.49108  17494820.73908  17494821.17408
 -19037627.33108 -14834501.35708  19853853.68908  19853854.26008
 -17051824.32108 -13287135.58608  19391124.31908  19391125.57608
  -5512868.97408  -4295740.06608  20622165.64708  20622167.25908
 93 04 07 10 40 00.0000000  0  8 25 01 23 28 21 17 11 12
  -1674273.13908  -1304627.95907  21794092.46608  21794092.72907
 -27305186.63609 -21276758.31309  17216039.43309  17216039.82109
 -18960168.28808 -14774147.79508  19018386.01408  19018386.22008
 -23345963.76908 -18191660.17408  18256635.61108  18256635.78808
 -29915922.83708 -23311097.56608  17488843.24608  17488843.60108
 -18743141.69408 -14605032.03808  19909892.37308  19909893.00108
 -17430785.81208 -13582430.20808  19319010.30808  19319011.52908
  -5663158.28608  -4412848.59108  20593566.61608  20593568.09508
 93 04 07 10 42 00.0000000  0  8 25 01 23 28 21 17 11 12
  -2100218.66508  -1636533.48807  21713037.75208  21713037.98107
 -27486654.13209 -21418161.50609  17181507.31609  17181507.64809
 -18808328.94708 -14655831.41108  19047280.02308  19047280.27308
 -23231475.48408 -18102448.51608  18278421.98208  18278422.21108
 -29944383.91708 -23333274.99408  17483427.22108  17483427.57408
 -18444746.59108 -14372516.38208  19966674.99208  19966675.74608
 -17802633.65308 -13872181.73008  19248249.99208  19248251.20708
  -5804530.50508  -4523008.73008  20566664.29908  20566665.83708
 93 04 07 10 44 00.0000000  0  8 25 01 23 28 21 17 11 12
  -2528514.35808  -1970270.33407  21631535.70808  21631535.99507
 -27659944.21109 -21553192.68309  17148531.23309  17148531.58509
 -18655636.70008 -14536850.42408  19076336.43308  19076336.63208
 -23108559.61108 -18006669.90408  18301812.06408  18301812.30108
 -29970158.19808 -23353358.80808  17478522.41208  17478522.81308
 -18142560.66508 -14137046.84308  20024179.23108  20024179.77308
 -18167175.11808 -14156239.96708  19178880.00208  19178881.22408
  -5936868.24108  -4626129.00908  20541481.23708  20541482.79108
 93 04 07 10 46 00.0000000  0  8 25 01 23 28 21 17 11 12
  -2958956.41408  -2305679.65708  21549625.16908  21549625.67908
 -27825128.22309 -21681907.44509  17117097.69909  17117098.06109
 -18502014.81508 -14417145.04208  19105569.78608  19105569.90608
 -22977408.59608 -17904474.29608  18326769.26708  18326769.48008
 -29993180.42008 -23371298.15908  17474141.47108  17474141.81708
 -17836587.72108 -13898626.38808  20082403.94308  20082404.53408
 -18524214.85008 -14434452.69308  19110937.54808  19110938.74808
  -6060055.10908  -4722118.73008  20518039.60708  20518041.04708
 93 04 07 10 48 00.0000000  0  8 25 01 23 28 21 17 11 12
  -3391777.16808  -2642942.51608  21467262.07108  21467262.54908
 -27982468.64409 -21804510.32809  17087156.80409  17087157.16409
 -18347227.41608 -14296531.47108  19135024.79708  19135024.93308
 -22837881.84608 -17795752.13708  18353320.43108  18353320.61808
 -30013328.54608 -23386997.95608  17470307.39108  17470307.71508
 -17526560.19308 -13657046.50208  20141400.12308  20141400.86208
 -18873543.52508 -14706656.79508  19044462.48508  19044463.62008
  -6173965.27308  -4810879.85008  20496363.14608  20496364.67008
 93 04 07 10 50 00.0000000  0  8 25 01 23 28 21 17 11 12
  -3826517.23608  -2981700.94408  21384533.83808  21384534.19508
 -28132017.06709 -21921041.50509  17058698.60509  17058698.93509
 -18191018.23208 -14174810.01908  19164750.34608  19164750.53108
 -22690455.32908 -17680874.32608  18381374.67008  18381374.82808
 -30031146.61508 -23400882.13608  17466916.68408  17466917.03708
 -17212756.52008 -13412524.17808  20201115.10508  20201115.74208
 -19215048.92208 -14972764.84208  18979476.15308  18979477.26408
  -6278574.33308  -4892393.35708  20476456.60508  20476458.14808
 93 04 07 10 52 00.0000000  0  8 25 01 23 28 21 17 11 12
  -4263099.38008  -3321894.78108  21301455.04408  21301455.27508
 -28273578.03809 -22031348.70409  17031760.43709  17031760.77209
 -18034159.58508 -14052582.49308  19194599.56508  19194599.70008
 -22535174.33608 -17559876.13708  18410923.76308  18410923.95808
 -30046316.95108 -23412703.14408  17464029.85008  17464030.21708
 -16895270.84208 -13165132.76208  20261530.61708  20261531.23708
 -19548536.12708 -15232624.94608  18916015.60708  18916016.73008
  -6373778.67808  -4966578.51708  20458339.81508  20458341.37308
 93 04 07 10 54 00.0000000  0  8 25 01 23 28 21 17 11 12
  -4701743.54508  -3663695.40708  21217983.87008  21217984.01408
 -28406654.81209 -22135044.84609  17006436.73409  17006437.01809
 -17876552.69008 -13929771.92208  19224591.16508  19224591.26308
 -22372318.83308 -17432975.73308  18441914.06608  18441914.22508
 -30058995.88908 -23422582.79908  17461617.09008  17461617.41808
 -16574383.13408 -12915090.43808  20322593.55608  20322594.20608
 -19873761.33208 -15486047.13108  18854127.26608  18854128.39408
  -6459430.22808  -5033319.94408  20442040.87108  20442042.41208
 93 04 07 10 56 00.0000000  0  8 25 01 21 23 28 17 11 12
  -5142024.31908  -4006771.30408  21134201.28608  21134201.34308
 -28532042.77009 -22232749.68509  16982576.16409  16982576.43809
 -30068862.22608 -23430270.83008  17459739.62108  17459739.94408
 -17717650.61508 -13805952.11708  19254829.18808  19254829.38608
 -22202043.36608 -17300293.53308  18474316.48608  18474316.65008
 -16249827.77708 -12662190.19908  20384354.45308  20384355.12708
 -20190591.27508 -15732927.56008  18793836.54608  18793837.59708
  -6535494.84008  -5092591.04208  20427566.23608  20427567.79508
 93 04 07 10 58 00.0000000  0  8 25 01 23 28 21 17 11 12
  -5583486.28608  -4350767.61508  21050193.79908  21050193.77808
 -28649657.58709 -22324397.53609  16960194.75209  16960195.02709
 -17557566.34608 -13681211.12308  19285292.24008  19285292.36808
 -22024184.65508 -17161702.31908  18508161.77208  18508161.88408
 -30075745.50408 -23435634.40408  17458429.77208  17458430.06708
 -15921866.20908 -12406635.77108  20446763.54708  20446764.18208
 -20498797.18608 -15973087.96808  18735186.83308  18735187.90408
  -6601845.92408  -5144293.15808  20414939.97408  20414941.53908
 93 04 07 11 00 00.0000000  0  8 01 21 25 23 28 17 11 12
 -28759275.35909 -22409813.93709  16939335.16109  16939335.46909
 -30080114.96508 -23439039.15008  17457598.28108  17457598.54908
  -6026486.47208  -4695962.53708  20965893.63008  20965893.57208
 -17396503.80008 -13555707.84808  19315941.49708  19315941.55308
 -21839095.99408 -17017477.37608  18543382.97008  18543383.06108
 -15590654.65908 -12148548.89208  20509791.12308  20509791.71508
 -20798253.13508 -16206430.20608  18678202.20608  18678203.28508
  -6658464.17608  -5188411.24308  20404165.77308  20404167.35208
 93 04 07 11 02 00.0000000  0  8 01 21 23 25 28 17 11 12
 -28861245.87809 -22489271.44609  16919930.76509  16919931.01509
 -30082006.92508 -23440513.37708  17457238.21808  17457238.45108
 -17234295.26908 -13429311.58708  19346808.70408  19346808.82108
  -6470664.76908  -5042075.46408  20881369.29908  20881369.34708
 -21647231.39308 -16867972.47908  18579893.63508  18579893.62008
 -15256173.22008 -11887914.07208  20573440.76708  20573441.36408
 -21088770.17908 -16432807.07508  18622918.64808  18622919.69308
  -6705269.29108  -5224882.72508  20395259.07708  20395260.60908
 93 04 07 11 04 00.0000000  0  8 01 21 23 25 28 17 11 12
 -28955372.62209 -22562616.92009  16902018.97309  16902019.23309
 -30081106.91208 -23439812.04508  17457409.43708  17457409.74008
 -17071196.38808 -13302221.54308  19377845.33408  19377845.47308
  -6915958.46808  -5389057.52408  20796632.62108  20796632.68808
 -21448693.77008 -16713267.83508  18617674.07008  18617674.13108
 -14918689.40608 -11624939.71208  20637661.74908  20637662.42208
 -21370200.34208 -16652103.27108  18569364.19608  18569365.29408
  -6742225.37208  -5253679.64108  20388226.59608  20388228.14508
 93 04 07 11 06 00.0000000  0  8 01 21 25 23 28 17 11 12
 -29041487.42709 -22629719.32309  16885631.87609  16885632.10009
 -30077131.11208 -23436713.99308  17458166.03708  17458166.27208
  -7361975.14908  -5736602.95208  20711758.42108  20711758.48508
 -16907044.28408 -13174310.80308  19409082.45308  19409082.58008
 -21243344.32508 -16553255.28208  18656750.76608  18656750.89308
 -14577881.26608 -11359374.95908  20702515.45408  20702516.15508
 -21642330.80908 -16864152.94708  18517579.48308  18517580.55908
  -6769234.31108  -5274725.53808  20383086.93308  20383088.42808
 93 04 07 11 08 00.0000000  0  8 01 21 23 25 28 17 11 12
 -29120011.60509 -22690906.95709  16870689.19809  16870689.39609
 -30070486.80908 -23431536.60108  17459430.37308  17459430.58908
 -16741431.92808 -13045262.21108  19440597.37708  19440597.60108
  -7808510.78208  -6084552.76608  20626785.47908  20626785.59808
 -21031544.30008 -16388216.29008  18697054.92608  18697055.09908
 -14234027.60008 -11091437.05208  20767948.72708  20767949.35108
 -21905008.99708 -17068837.21308  18467593.44008  18467594.55508
  -6786261.33508  -5287993.31308  20379846.73208  20379848.24208
 93 04 07 11 10 00.0000000  0  8 01 21 25 23 28 17 11 12
 -29190406.47009 -22745760.04709  16857293.45109  16857293.69509
 -30061110.82708 -23424230.61408  17461214.54408  17461214.74708
  -8255409.78408  -6432785.73008  20541743.46808  20541743.53508
 -16574657.13708 -12915307.82108  19472333.51208  19472333.66908
 -20813461.55108 -16218281.68608  18738554.69508  18738554.81608
 -13887358.48008 -10821305.36108  20833917.71708  20833918.39408
 -22158048.34108 -17266010.69608  18419441.59508  18419442.69608
  -6793239.39608  -5293430.72908  20378518.64208  20378520.34108
 93 04 07 11 12 00.0000000  0  8 01 28 23 25 21 17 11 12
 -29253371.35909 -22794823.55209  16845311.60309  16845311.80009
 -20589124.81108 -16043473.83708  18781244.54108  18781244.74408
 -16406741.33008 -12784464.32208  19504286.90808  19504287.09708
  -8702711.05208  -6781332.14508  20456624.91708  20456624.86808
 -30049175.15308 -23414930.07308  17463485.79308  17463486.04508
 -13537723.39808 -10548862.57908  20900451.19308  20900451.84608
 -22401363.09808 -17455606.58808  18373140.35108  18373141.39108
  -6790204.00608  -5291065.46308  20379096.34108  20379098.00508
 93 04 07 11 14 00.0000000  0  8 17 01 21 25 23 28 11 12
 -13185140.87808 -10274123.08808  20967545.48308  20967546.18908
 -29308960.00409 -22838139.34209  16834733.41409  16834733.59609
 -30034091.13808 -23403176.28108  17466356.14908  17466356.41108
  -9149998.94408  -7129868.13508  20371508.78108  20371508.72208
 -16237788.25508 -12652812.56908  19536437.57208  19536437.76508
 -20358809.37708 -15864007.27308  18825072.03208  18825072.27108
 -22634757.60408 -17637472.40708  18328726.81508  18328727.84308
  -6777083.16708  -5280841.41208  20381593.29308  20381594.83908
 93 04 07 11 16 00.0000000  0  8 17 01 28 25 23 21 11 12
 -12829994.63008  -9997385.84508  21035127.45308  21035128.26008
 -29356991.52609 -22875566.45809  16825593.29909  16825593.45709
 -20122960.04308 -15680228.57608  18869952.76708  18869952.94308
  -9597240.91408  -7478368.33908  20286401.42308  20286401.42108
 -16067486.68208 -12520110.04508  19568844.88108  19568845.05508
 -30016452.21208 -23389431.65508  17469712.76508  17469713.00808
 -22858102.14408 -17811507.09208  18286225.79808  18286226.78908
  -6753872.24508  -5262754.94408  20386010.16108  20386011.62308
 93 04 07 11 18 00.0000000  0  8 17 01 21 25 23 28 11 12
 -12472366.56208  -9718714.70108  21103181.93108  21103182.72808
 -29397606.22609 -22907214.23909  16817864.52909  16817864.65409
 -29996058.46508 -23373540.41808  17473593.54508  17473593.78408
 -10044352.22908  -7826766.74708  20201319.03008  20201319.02508
 -15896122.04508 -12386579.15808  19601454.45208  19601454.63608
 -19881592.25108 -15492149.77108  18915883.60008  18915883.67208
 -23071392.43008 -17977707.30108  18245637.94808  18245638.98708
  -6720692.70208  -5236900.73608  20392324.01708  20392325.49208
 93 04 07 11 20 00.0000000  0  8 17 01 21 25 23 28 11 12
 -12112123.87008  -9438006.14508  21171733.91808  21171734.64908
 -29430489.98009 -22932837.91309  16811606.99609  16811607.09509
 -29972724.97608 -23355358.46508  17478033.73408  17478033.98808
 -10491171.91608  -8174937.90808  20116292.05108  20116291.95108
 -15723698.32708 -12252223.01908  19634265.66508  19634265.85808
 -19635023.17508 -15300018.03208  18962804.10608  18962804.20808
 -23274520.18108 -18135988.64808  18206983.94808  18206985.03508
  -6677564.55808  -5203294.36408  20400530.91108  20400532.45108
 93 04 07 11 22 00.0000000  0  8 17 01 21 25 23 28 11 12
 -11749871.99508  -9155731.95008  21240668.18408  21240668.92908
 -29456247.24209 -22952908.46809  16806705.52909  16806705.63309
 -29946475.07408 -23334903.98008  17483028.96108  17483029.11908
 -10937632.78508  -8522829.47308  20031333.32408  20031333.27808
 -15549820.26008 -12116733.61808  19667353.51208  19667353.69708
 -19383625.60008 -15104123.82108  19010643.48908  19010643.54108
 -23467361.26308 -18286254.41808  18170287.52708  18170288.59308
  -6624490.80808  -5161938.16408  20410630.51908  20410631.97808
 93 04 07 11 24 00.0000000  0  8 17 01 21 25 23 28 11 12
 -11385280.13908  -8871634.36108  21310047.62608  21310048.40308
 -29474833.07509 -22967390.91009  16803168.75609  16803168.86509
 -29917599.94608 -23312403.87008  17488523.64308  17488523.79908
 -11383140.27008  -8869978.14308  19946556.06608  19946555.94308
 -15374777.28108 -11980336.48008  19700663.21208  19700663.33308
 -19127300.92208 -14904390.31108  19059420.45408  19059420.52008
 -23649750.45308 -18428375.86908  18135580.00308  18135581.05508
  -6561435.74608  -5112804.32808  20422629.58908  20422630.94008
 93 04 07 11 26 00.0000000  0  8 17 01 21 11 25 23 28 12
 -11018633.48207  -8585935.64907  21379818.14907  21379818.85507
 -29486347.88109 -22976363.44409  16800977.52009  16800977.60209
 -29885766.95208 -23287598.92808  17494581.23808  17494581.37308
 -23821599.14908 -18562283.94508  18102878.31608  18102879.36708
 -11827512.34008  -9216242.06108  19861994.93708  19861994.78608
 -15198291.05108 -11842814.74208  19734247.27508  19734247.39608
 -18866016.06908 -14700791.72608  19109141.22708  19109141.37408
  -6488438.84908  -5055923.62208  20436520.34408  20436521.75608
 93 04 07 11 28 00.0000000  0  8 17 01 21 11 25 23 28 12
 -10650107.97307  -8298773.06207  21449946.28907  21449946.94407
 -29490737.38409 -22979783.81309  16800142.16509  16800142.27409
 -29850797.98908 -23260350.38508  17501235.64408  17501235.81008
 -23982812.37008 -18687904.64108  18072200.44008  18072201.51308
 -12270978.96508  -9561800.43808  19777606.05508  19777605.89008
 -15020569.56908 -11704330.46808  19768066.53008  19768066.62408
 -18600314.83008 -14493751.81408  19159702.49708  19159702.61508
  -6405534.11708  -4991322.52508  20452296.47508  20452297.92708
 93 04 07 11 30 00.0000000  0  8 17 01 21 11 25 23 28 12
 -10279404.94607  -8009913.63807  21520488.81707  21520489.53907
 -29488217.37209 -22977820.13909  16800621.69209  16800621.76709
 -29812854.40508 -23230783.95108  17508456.02408  17508456.24708
 -24133351.39508 -18805207.78008  18043553.81608  18043554.88008
 -12713118.72608  -9906324.89608  19693469.60708  19693469.43508
 -14841568.84908 -11564849.38808  19802129.27308  19802129.38208
 -18330402.01508 -14283430.15608  19211065.31708  19211065.32508
  -6312811.50108  -4919071.12608  20469941.13508  20469942.47408
 93 04 07 11 32 00.0000000  0  8 17 01 21 11 25 23 28 12
  -9906733.82807  -7719520.57907  21591405.75007  21591406.59507
 -29478700.63909 -22970404.48309  16802432.69409  16802432.75809
 -29772159.61708 -23199073.72208  17516199.99208  17516200.26408
 -24273095.60208 -18914099.38608  18016961.38108  18016962.47308
 -13153719.57608 -10249650.19608  19609625.92108  19609625.84808
 -14661046.51108 -11424182.63308  19836481.55508  19836481.70508
 -18056529.82808 -14070023.26808  19263181.50908  19263181.50208
  -6210278.14608  -4839174.97708  20489452.53008  20489453.98608
 93 04 07 11 34 00.0000000  0  8 17 01 21 11 25 23 28 12
  -9532426.42007  -7427852.47207  21662634.00807  21662635.04507
 -29462716.32409 -22957949.14309  16805474.34209  16805474.42009
 -29728337.10908 -23164926.30908  17524539.14908  17524539.39608
 -24401980.47308 -19014529.18208  17992435.44208  17992436.48608
 -13592726.00508 -10591733.08408  19526085.80408  19526085.62008
 -14479247.41608 -11282521.00108  19871076.72708  19871076.92008
 -17778896.83008 -13853685.87608  19316013.18308  19316013.21208
  -6097996.42608  -4751682.71608  20510819.03408  20510820.32708
 93 04 07 11 36 00.0000000  0  8 17 01 21 11 25 23 28 12
  -9156515.10607  -7134934.55207  21734167.49107  21734168.57907
 -29440035.68209 -22940275.89009  16809790.34209  16809790.37709
 -29681578.44308 -23128490.98508  17533436.98708  17533437.23308
 -24519955.47108 -19106457.79808  17969985.60408  17969986.59608
 -14029957.34408 -10932432.77808  19442883.36108  19442883.18108
 -14296091.46008 -11139802.06308  19905930.16408  19905930.33508
 -17497575.87708 -13634474.76308  19369546.80308  19369546.94208
  -5976041.25908  -4656652.71608  20534026.15408  20534027.56608
 93 04 07 11 38 00.0000000  0  8 17 01 21 11 25 23 28 12
  -8779018.35007  -6840781.38007  21806002.70807  21806003.85407
 -29410470.33909 -22917237.94209  16815416.39409  16815416.44209
 -29631686.53308 -23089614.16708  17542931.15108  17542931.37408
 -24626985.21508 -19189857.65108  17949618.51508  17949619.61708
 -14465021.92908 -11271444.10308  19360093.24908  19360093.13608
 -14111257.62208 -10995775.70108  19941102.87308  19941103.00508
 -17212947.17608 -13412686.17708  19423709.88608  19423709.90208
  -5844501.83208  -4554154.45508  20559057.34108  20559058.76408
 93 04 07 11 40 00.0000000  0  8 17 01 21 11 25 23 28 12
  -8399938.46607  -6545394.59407  21878139.50407  21878140.34907
 -29374661.93009 -22889335.26209  16822230.48009  16822230.53809
 -29578532.99008 -23048195.81408  17553045.94008  17553046.07308
 -24723044.82808 -19264709.33808  17931338.99708  17931340.11308
 -14897877.37708 -11608734.01708  19277723.58908  19277723.51908
 -13924994.60408 -10850635.69608  19976547.58508  19976547.68908
 -16924883.19408 -13188220.75508  19478526.64608  19478526.72208
  -5703475.92808  -4444264.13208  20585893.73908  20585895.18008
 93 04 07 11 42 00.0000000  0  8 17 01 21 25 23 28 11 12
  -8019606.82907  -6249032.31007  21950514.31207  21950515.28007
 -29332149.72909 -22856208.85109  16830320.29109  16830320.34809
 -29522389.84908 -23004447.90808  17563729.57208  17563729.72408
 -15328130.63508 -11943996.25008  19195849.02108  19195848.98608
 -13737168.39808 -10704277.63008  20012289.74508  20012289.85108
 -16633648.04108 -12961284.28308  19533946.92908  19533947.06208
 -24808043.04508 -19330941.77408  17915164.35508  17915165.56008
  -5552992.82208  -4327004.57008  20614529.58708  20614531.15208
 93 04 07 11 44 00.0000000  0  8 17 01 21 25 23 28 11 12
  -7638182.06507  -5951818.08507  22023096.88007  22023097.83307
 -29283310.87709 -22818152.57709  16839613.97809  16839614.03909
 -29462951.36208 -22958132.20208  17575040.33208  17575040.54408
 -15755938.37208 -12277352.87308  19114439.91608  19114439.81608
 -13547889.65408 -10556787.71808  20048308.25808  20048308.37608
 -16339776.99608 -12732293.85708  19589868.64108  19589868.84208
 -24881996.41908 -19388567.84208  17901091.57508  17901092.72808
  -5393187.80408  -4202481.18708  20644939.53008  20644940.99008
 93 04 07 11 46 00.0000000  0  8 17 01 25 23 28 21 11 12
  -7255965.16607  -5653986.65907  22095830.39107  22095831.23307
 -29228938.83809 -22775784.73909  16849960.61509  16849960.69009
 -16181031.41108 -12608594.15308  19033547.34708  19033547.19908
 -13357193.78908 -10408193.56108  20084596.51108  20084596.67308
 -16043558.66808 -12501474.38108  19646237.04108  19646237.27008
 -29400381.01808 -22909376.08308  17586947.11908  17586947.31608
 -24944992.63108 -19437655.86908  17889103.91808  17889105.02708
  -5224264.23808  -4070852.43808  20677084.62108  20677086.02408
 93 04 07 11 48 00.0000000  0  8 17 01 25 23 28 21 11 12
  -6872606.86007  -5355265.80907  22168780.81507  22168781.90807
 -29168465.01909 -22728662.27309  16861468.40109  16861468.48209
 -16603021.96308 -12937417.91408  18953245.11108  18953245.01508
 -13164734.77208 -10258225.52408  20121220.19808  20121220.38908
 -15744941.28108 -12268785.52208  19703062.20108  19703062.33708
 -29334884.36608 -22858339.73508  17599410.68408  17599410.90908
 -24997056.27408 -19478224.99808  17879196.54508  17879197.70008
  -5046360.83308  -3932226.44408  20710938.50508  20710940.02808
 93 04 07 11 50 00.0000000  0  7 01 25 21 23 28 11 12
 -29101906.20209 -22676798.24809  16874134.07009  16874134.13509
 -17022130.97508 -13263996.32408  18873491.28908  18873491.20008
 -29266100.11308 -22804741.61308  17612499.91208  17612500.11708
 -12970674.40208 -10107009.68008  20158148.68808  20158148.86708
 -15444242.50908 -12034474.79508  19760283.18608  19760283.33608
 -25038197.51308 -19510283.15808  17871367.66808  17871368.85008
  -4859597.72408  -3786696.76507  20746478.43508  20746479.78107
 93 04 07 11 52 00.0000000  0  7 01 25 23 28 21 11 12
 -29029864.32609 -22620661.71209  16887843.21409  16887843.29509
 -17437923.89908 -13587990.77808  18794368.55608  18794368.46208
 -12775596.90708  -9955001.28908  20195270.81808  20195271.06308
 -15141913.01408 -11798893.37708  19817814.67408  19817814.69408
 -29193951.58908 -22748521.98708  17626229.30708  17626229.51408
 -25068427.20008 -19533838.75908  17865615.11408  17865616.31208
  -4664093.74208  -3634356.04707  20783681.77108  20783682.89007
 93 04 07 11 54 00.0000000  0  8 01 25 23 28 21 15 11 12
 -28951887.39009 -22559900.44409  16902681.70109  16902681.79409
 -17850589.45108 -13909548.36308  18715840.87708  18715840.78208
 -12578675.19008  -9801555.85508  20232743.83908  20232744.03608
 -14838046.84408 -11562114.54708  19875638.54108  19875638.57808
 -29118873.84308 -22690019.84708  17640516.08308  17640516.31808
        -0.07918        -0.43418  19659349.33918  19659349.68118
 -25087754.44408 -19548898.96308  17861937.31008  17861938.48208
  -4459961.79908  -3475292.22707  20822526.82508  20822528.06607
 93 04 07 11 56 00.0000000  0  8 01 25 23 28 21 15 11 12
 -28868623.89709 -22495019.78909  16918526.19509  16918526.30509
 -18259773.36308 -14228392.94908  18637975.70808  18637975.64308
 -12380149.47808  -9646860.55608  20270522.05708  20270522.21608
 -14532511.51308 -11324035.08808  19933779.98208  19933780.03708
 -29040322.73008 -22628811.19108  17655463.86608  17655464.06408
   -443802.34608   -345820.32008  19574896.52308  19574896.86408
 -25096204.32808 -19555483.33008  17860329.36008  17860330.49508
  -4247327.51508  -3309603.22107  20862989.79908  20862991.04607
 93 04 07 11 58 00.0000000  0  8 01 25 23 28 21 15 11 12
 -28780235.20109 -22426145.46509  16935345.99309  16935346.03609
 -18664729.24308 -14543942.87308  18560915.16108  18560915.05008
 -12180117.84708  -9490991.82208  20308586.75008  20308586.98508
 -14225557.89908 -11084850.44408  19992191.26808  19992191.36108
 -28958321.04608 -22564913.77508  17671068.30708  17671068.45608
   -884494.97408   -689217.11008  19491035.47508  19491035.79508
 -25093796.78008 -19553607.37308  17860787.54908  17860788.69708
  -4026308.52208  -3137380.68507  20905048.35808  20905049.59507
 93 04 07 12 00 00.0000000  0  8 01 25 23 28 21 15 11 12
 -28686421.24009 -22353043.66409  16953198.20109  16953198.24609
 -19065748.38008 -14856425.19608  18484603.69908  18484603.55808
 -11978425.30608  -9333828.89008  20346967.70708  20346967.90208
 -13917707.02708 -10844966.65308  20050773.35608  20050773.37708
 -28873408.38508 -22498748.06508  17687226.66108  17687226.78708
  -1321986.36108  -1030119.43108  19407783.55208  19407783.88308
 -25080667.98508 -19543377.18208  17863285.87408  17863287.09408
  -3797133.81908  -2958803.04407  20948658.90908  20948660.12607
 93 04 07 12 02 00.0000000  0  8 12 25 01 23 28 21 15 11
  -3559897.32008  -2773943.51407  20993803.48108  20993804.83607
 -19462620.25708 -15165675.91508  18409081.43208  18409081.25008
 -28587439.71008 -22275915.18709  16972033.75208  16972033.81509
 -11774784.68008  -9175147.97908  20385719.31508  20385719.63208
 -13608982.25908 -10604401.88208  20109521.46708  20109521.64108
 -28784848.58608 -22429740.42808  17704079.03808  17704079.15408
  -1756044.92208  -1368346.83508  19325184.94508  19325185.23608
 -25056822.54808 -19524796.34108  17867823.52108  17867824.72908
 93 04 07 12 04 00.0000000  0  8 12 25 01 23 28 21 15 11
  -3314717.18507  -2582894.14407  21040459.72407  21040461.17907
 -19855405.14808 -15471741.98208  18334336.89608  18334336.70308
 -28483622.28209 -22195018.47809  16991789.55609  16991789.59709
 -11569665.38208  -9015314.85408  20424752.21108  20424752.68508
 -13299680.86508 -10363387.82208  20168379.63708  20168379.71808
 -28692941.63408 -22358124.61808  17721568.35308  17721568.51308
  -2186456.25508  -1703732.23908  19243280.32608  19243280.63708
 -25022293.28608 -19497890.42708  17874394.22508  17874395.42708
 93 04 07 12 06 00.0000000  0  8 12 25 01 23 28 21 15 11
  -3061784.57907  -2385803.89207  21088591.31707  21088592.68507
 -20243294.07808 -15773993.00808  18260524.04808  18260523.78108
 -28374706.16708 -22110148.76809  17012515.58008  17012515.64309
 -11362901.71608  -8854200.41508  20464098.19408  20464098.53708
 -12989866.77708 -10121974.24808  20227335.58308  20227335.67708
 -28597660.10108 -22283879.26708  17739699.83908  17739699.99508
  -2613074.13508  -2036161.70008  19162097.51408  19162097.90908
 -24977190.98808 -19462745.81008  17882976.90808  17882978.11708
 93 04 07 12 08 00.0000000  0  8 12 25 01 23 28 21 15 11
  -2801255.83008  -2182794.58207  21138168.50208  21138169.69807
 -20626596.79908 -16072670.36208  18187583.87908  18187583.60508
 -28261033.47208 -22021572.63709  17034146.78708  17034146.87709
 -11154152.07308  -8691538.48008  20503822.02208  20503822.36908
 -12679875.50808  -9880422.63308  20286324.90808  20286325.10008
 -28498687.02308 -22206757.39108  17758533.77808  17758533.96808
  -3035711.76108  -2365489.67908  19081672.28908  19081672.59308
 -24921595.26508 -19419424.50408  17893556.44808  17893557.70008
 93 04 07 12 10 00.0000000  0  8 12 25 01 23 28 21 15 11
  -2533249.31007  -1973958.41407  21189168.50107  21189169.79107
 -21004935.38508 -16367479.57908  18115588.34508  18115588.04808
 -28142840.35708 -21929474.09708  17056638.14008  17056638.19908
 -10943468.03308  -8527369.21708  20543913.91908  20543914.29308
 -12369971.52608  -9638939.01508  20345297.64408  20345297.72308
 -28396088.53708 -22126810.52208  17778057.66908  17778057.85608
  -3454139.17408  -2691536.97008  19002048.12608  19002048.50108
 -24855551.96608 -19367962.23908  17906124.11108  17906125.36708
 93 04 07 12 12 00.0000000  0  8 12 01 25 23 28 21 15 11
  -2257885.88207  -1759389.64007  21241568.50507  21241569.82507
 -28020118.14308 -21833846.38708  17079991.42208  17079991.45508
 -21378142.59708 -16658290.32308  18044569.31008  18044569.00608
 -10731220.37708  -8361981.57208  20584303.35808  20584303.68308
 -12059853.52808  -9397288.62908  20404311.15708  20404311.21408
 -28290070.18908 -22044198.82908  17798232.26208  17798232.41408
  -3868127.10008  -3014124.91508  18923268.84908  18923269.23208
 -24779114.34608 -19308400.50208  17920669.77008  17920670.97308
 93 04 07 12 14 00.0000000  0  8 12 01 25 23 28 21 15 11
  -1975369.42607  -1539247.08407  21295329.61707  21295331.08107
 -27892749.74708 -21734598.28208  17104228.80608  17104228.86308
 -21745943.64308 -16944888.49008  17974579.02808  17974578.77708
 -10517032.63408  -8195082.18108  20625062.19208  20625062.46208
 -11749957.23908  -9155811.01208  20463282.35908  20463282.48508
 -28180226.08208 -21958606.02308  17819134.85408  17819135.07308
  -4277523.53308  -3333135.08008  18845363.26408  18845363.61008
 -24692423.94108 -19240849.58308  17937166.44108  17937167.65608
 93 04 07 12 16 00.0000000  0  8 12 01 25 23 28 21 15 11
  -1685863.32707  -1313658.05907  21350420.94207  21350422.21507
 -27760851.75108 -21631820.61308  17129328.15508  17129328.25108
 -22108141.11108 -17227120.25808  17905655.07208  17905654.78208
 -10300728.70608  -8026533.83308  20666223.60708  20666223.94908
 -11440563.53908  -8914725.02608  20522158.04008  20522158.27608
 -28066888.61608 -21870291.12508  17840702.27208  17840702.49208
  -4682131.68708  -3648414.12008  18768368.88408  18768369.15508
 -24595584.80608 -19165390.55508  17955594.29908  17955595.60808
 93 04 07 12 18 00.0000000  0  8 12 25 01 21 23 28 15 11
  -1389584.83307  -1082791.85507  21406800.87107  21406802.25907
 -22464855.83808 -17505079.73708  17837774.54708  17837774.18608
 -27624703.64608 -21525731.17308  17155236.27608  17155236.36908
 -27949675.28308 -21778956.07008  17863007.21608  17863007.43508
 -10082545.02708  -7856520.76908  20707742.74208  20707743.19408
 -11131723.06908  -8674070.10308  20580928.35408  20580928.62108
  -5081807.62908  -3959849.88408  18692313.09908  18692313.29908
 -24488761.21208 -19082151.43408  17975922.15608  17975923.47108
 93 04 07 12 20 00.0000000  0  8 12 25 01 21 23 28 15 11
  -1086693.07906   -846772.52407  21464439.44206  21464441.11707
 -22815915.46008 -17778632.62408  17770970.07908  17770969.71408
 -27484688.51908 -21416628.46908  17181880.29108  17181880.35108
 -27828469.36808 -21684509.92108  17886071.94808  17886072.17208
  -9862499.27508  -7685056.75008  20749616.06708  20749616.66708
 -10823755.30408  -8434095.23008  20639532.69908  20639532.98708
  -5476346.58208  -4267282.79908  18617234.83308  18617234.94508
 -24372062.92308 -18991217.74108  17998129.11708  17998130.55808
 93 04 07 12 22 00.0000000  0  8 12 25 01 23 28 21 15 11
   -777437.35906   -605794.25307  21523289.04606  21523290.68707
 -23160828.10708 -18047395.67808  17705335.35308  17705334.98808
 -27340780.75108 -21304492.54208  17209265.03908  17209265.04808
  -9640331.58108  -7511939.29308  20791893.47208  20791894.04508
 -10517137.41508  -8195172.20608  20697880.24308  20697880.44708
 -27703674.73608 -21587267.38308  17909819.64108  17909819.92008
  -5865628.47608  -4570619.31808  18543156.93908  18543156.99408
 -24245694.87308 -18892749.16408  18022176.25108  18022177.60008
 93 04 07 12 24 00.0000000  0  8 12 25 01 21 23 28 15 11
   -461951.37907   -359961.27507  21583324.29407  21583325.95307
 -23499534.86508 -18311322.97808  17640881.60308  17640881.23108
 -27192981.34408 -21189324.17208  17237390.25008  17237390.28008
 -27575193.29508 -21487152.00308  17934268.88808  17934269.14008
  -9416288.36508  -7337360.41508  20834527.63008  20834528.33408
 -10211853.11508  -7957288.36408  20755973.92008  20755974.05208
  -6249418.41508  -4869676.39508  18470124.08708  18470124.16008
 -24109751.81508 -18786819.55208  18048045.40408  18048046.74208
 93 04 07 12 26 00.0000000  0  8 12 25 01 21 23 28 15 11
   -140342.82707   -109357.46407  21644524.54607  21644526.35207
 -23831976.08308 -18570368.02008  17577620.08308  17577619.75508
 -27041204.01808 -21071056.11808  17266272.57208  17266272.62308
 -27442822.65708 -21384006.08308  17959458.17508  17959458.41608
  -9190042.01008  -7161064.83408  20877581.02508  20877581.93308
  -9907622.31208  -7720225.41408  20813866.99308  20813867.22908
  -6627455.04808  -5164250.37408  18398186.12608  18398186.21708
 -23964306.61008 -18673485.65608  18075722.72208  18075724.12608
 93 04 07 12 28 00.0000000  0  8 12 25 01 21 15 23 28 11
    187119.75107    145807.83707  21706839.03907  21706840.48307
 -24157608.98808 -18824107.86408  17515654.11908  17515653.78008
 -26885656.06708 -20949849.91508  17295872.38108  17295872.39808
 -27306396.76308 -21277700.22808  17985419.20308  17985419.43908
  -6999633.22008  -5454259.31308  18327362.93408  18327363.02308
  -8961946.32308  -6983328.24108  20920986.34108  20920987.36708
  -9604698.02908  -7484180.53208  20871511.63708  20871511.88708
 -23809598.03508 -18552933.55508  18105162.80408  18105164.21808
 93 04 07 12 30 00.0000000  0  8 23 12 25 01 21 15 28 11
  -8731510.28808  -6803768.05708  20964837.12808  20964838.20508
    520310.55807    405436.72707  21770243.21207  21770245.17007
 -24476838.06308 -19072857.71908  17454906.77708  17454906.45508
 -26726872.54908 -20826122.49508  17326087.87608  17326087.91308
 -27165994.49408 -21168295.90208  18012136.94708  18012137.19208
  -7365708.15808  -5739512.48708  18257701.18308  18257701.26808
  -9303609.15108  -7249565.83308  20928806.86108  20928807.19708
 -23645727.49208 -18425242.25608  18136346.34608  18136347.67308
 93 04 07 12 32 00.0000000  0  8 23 28 25 01 21 15 11 12
  -8498954.54808  -6622556.18408  21009091.35708  21009092.45708
  -9004337.91507  -7016367.46807  20985756.21007  20985756.57607
 -24789463.51808 -19316461.90908  17395416.07508  17395415.74508
 -26564724.73408 -20699773.54608  17356943.56308  17356943.57608
 -27021794.84908 -21055932.59108  18039577.19908  18039577.52608
  -7725487.41508  -6019859.93208  18189237.46208  18189237.58208
 -23472855.72908 -18290537.00908  18169242.74608  18169244.16708
    859047.64507    669387.35406  21834703.14207  21834704.87806
 93 04 07 12 34 00.0000000  0  8 23 28 25 01 21 15 11 12
  -8264596.92408  -6439940.31708  21053688.49008  21053689.68008
  -8706968.89007  -6784651.35307  21042343.53007  21042343.91307
 -25094707.40008 -19554314.23208  17337330.05708  17337329.71808
 -26399088.28708 -20570706.18208  17388463.10308  17388463.11808
 -26873404.02208 -20940303.42308  18067815.04108  18067815.33808
  -8078806.89908  -6295173.80608  18122002.99208  18122003.09908
 -23291174.36808 -18148967.15208  18203815.59708  18203817.01008
   1203124.17607    937498.56206  21900178.65807  21900180.76806
 93 04 07 12 36 00.0000000  0  8 23 25 01 28 21 15 11 12
  -8028025.86208  -6255599.72408  21098706.94108  21098708.15608
 -25392710.09508 -19786524.08008  17280621.97308  17280621.60508
 -26230250.21108 -20439144.05508  17420591.94008  17420591.97308
  -8411850.52107  -6554688.99007  21098503.00107  21098503.26407
 -26720808.79008 -20821398.09808  18096852.98308  18096853.26008
  -8425528.64908  -6565346.58408  18056024.02608  18056024.16308
 -23100908.03808 -18000707.70008  18240022.09508  18240023.48208
   1552305.33207   1209587.35606  21966626.25807  21966628.44306
 93 04 07 12 38 00.0000000  0  7 23 25 01 28 21 15 11
  -7788959.31808  -6069314.62708  21144200.18208  21144201.54908
 -25683581.59208 -20013177.14208  17225270.94908  17225270.53908
 -26058133.17408 -20305026.89008  17453344.70308  17453344.76908
  -8119050.85607  -6326533.41707  21154221.01607  21154221.24907
 -26564375.98908 -20699502.46108  18126621.19808  18126621.44208
  -8765457.77508  -6830226.40908  17991337.66908  17991337.75908
 -22902224.97808 -17845889.74808  18277830.24008  18277831.63008
 93 04 07 12 40 00.0000000  0  8 23 25 01 28 21 15 11 14
  -7548095.99008  -5881629.48608  21190035.39308  21190036.78008
 -25967268.38408 -20234231.74408  17171287.11708  17171286.70808
 -25883110.68908 -20168645.75208  17486650.38008  17486650.44508
  -7829027.35407  -6100541.09607  21209410.49707  21209410.80707
 -26403873.52908 -20574435.67108  18157163.84608  18157164.07808
  -9098392.88108  -7089656.34608  17927982.22908  17927982.32308
 -22695292.55208 -17684643.71808  18317208.16308  18317209.58008
        -0.35317         0.16817  21274738.23817  21274739.43617
 93 04 07 12 42 00.0000000  0  8 23 25 01 28 21 15 11 14
  -7305185.93608  -5692349.54407  21236260.08008  21236261.68507
 -26243400.83008 -20449399.84808  17118740.85808  17118740.43408
 -25705590.64108 -20030318.46008  17520431.34808  17520431.40908
  -7541411.92807  -5876425.16607  21264142.06807  21264142.30207
 -26239235.97208 -20446146.73308  18188493.39408  18188493.71308
  -9424231.62508  -7343556.65908  17865977.16108  17865977.24408
 -22480379.72808 -17517179.20408  18358104.70208  18358106.13008
   -371223.98407   -289264.85507  21204096.81807  21204097.62907
 93 04 07 12 44 00.0000000  0  8 23 25 01 28 21 15 11 14
  -7060213.91508  -5501462.88308  21282877.02708  21282879.09008
 -26511955.94708 -20658663.54008  17067636.51308  17067636.05008
 -25525147.92308 -19889713.77008  17554768.46708  17554768.53008
  -7256369.50507  -5654314.17407  21318383.75107  21318384.15507
 -26070546.12408 -20314700.17508  18220593.97508  18220594.48308
  -9742847.23608  -7591828.56208  17805346.59908  17805346.71708
 -22257730.92508 -17343686.64708  18400473.34508  18400474.88708
   -744098.85107   -579816.53607  21133140.85107  21133141.67207
 93 04 07 12 46 00.0000000  0  8 23 25 01 28 21 15 11 14
  -6812932.13007  -5308776.40907  21329933.61007  21329935.80207
 -26772438.63208 -20861637.02608  17018068.31508  17018067.81608
 -25342127.96208 -19747100.84108  17589596.02608  17589596.08508
  -6974783.13707  -5434896.24807  21371967.89007  21371968.31207
 -25897487.69108 -20179849.52808  18253525.98008  18253526.45508
 -10054077.35108  -7834345.52508  17746121.47408  17746121.59808
 -22027558.42408 -17164331.46908  18444273.77608  18444275.27808
  -1118155.36507   -871289.01107  21061961.56207  21061962.55207
 93 04 07 12 48 00.0000000  0  8 23 28 25 01 21 15 11 14
  -6563537.16007  -5114443.34507  21377392.48807  21377394.77407
  -6696601.40007  -5218131.28207  21424904.07707  21424904.47107
 -27025361.02709 -21058719.37908  16969938.76209  16969938.25508
 -25156438.47708 -19602407.76708  17624931.60008  17624931.66708
 -25720504.36308 -20041940.53408  18287204.91108  18287205.29008
 -10357755.12808  -8070977.55408  17688333.50308  17688333.67708
 -21790071.69008 -16979276.90108  18489466.02308  18489467.55708
  -1493454.39507  -1163729.96007  20990546.80407  20990547.57807
 93 04 07 12 50 00.0000000  0  8 23 25 01 28 21 15 11 14
  -6312011.07307  -4918449.67207  21425256.73307  21425259.27107
 -27270578.32408 -21249797.76708  16923275.40208  16923274.92308
 -24968500.05408 -19455962.28308  17660695.05008  17660695.11508
  -6421560.31207  -5003813.58807  21477242.80507  21477243.07607
 -25539528.52508 -19900920.50208  18321643.57308  18321643.97208
 -10653739.76408  -8301614.93208  17632009.45408  17632009.63308
 -21545505.69008 -16788706.01608  18536005.43708  18536006.95808
  -1869905.92507  -1457068.68807  20918910.20307  20918911.17707
 93 04 07 12 52 00.0000000  0  8 23 25 01 28 21 15 11 14
  -6058630.00507  -4721010.61807  21473474.39707  21473476.63607
 -27507628.98508 -21434512.54508  16878166.12308  16878165.64108
 -24778535.59408 -19307938.07808  17696844.19808  17696844.25008
  -6149822.15907  -4792069.62107  21528952.64807  21528953.04807
 -25354388.40608 -19756655.58308  18356874.58008  18356875.09208
 -10941885.16308  -8526143.81208  17577177.22308  17577177.37008
 -21294091.36408 -16592798.76708  18583848.02708  18583849.52108
  -2247162.59007  -1751034.74507  20847120.68507  20847121.40407
 93 04 07 12 54 00.0000000  0  7 28 25 01 21 15 11 14
  -5881719.66207  -4583158.61907  21579970.97607  21579971.32607
 -27736281.06109 -21612682.98208  16834655.08609  16834654.59408
 -24586287.66408 -19158134.55608  17733427.80308  17733427.90308
 -25164884.46208 -19608990.30308  18392936.10108  18392936.67008
 -11221976.73008  -8744396.98708  17523877.59408  17523877.72308
 -21035990.11108 -16391680.93008  18632963.04708  18632964.58608
  -2625583.09407  -2045907.72507  20775109.57707  20775110.16707
 93 04 07 12 56 00.0000000  0  8 20 28 25 01 21 15 11 14
        -0.47817        -0.26517  21069300.45517  21069302.53217
  -5617575.91507  -4377332.35807  21630236.05807  21630236.13607
 -27956612.37009 -21784369.70808  16792727.45409  16792726.92208
 -24391768.56108 -19006561.30108  17770443.58408  17770443.75508
 -24971565.88808 -19458352.59908  18429723.51208  18429724.08708
 -11493912.02308  -8956294.63008  17472130.03208  17472130.17208
 -20771475.13108 -16185565.38808  18683298.57708  18683300.15808
  -3005287.16107  -2341780.84807  20702854.10307  20702854.79207
 93 04 07 12 58 00.0000000  0  8 20 28 25 01 21 15 11 14
   -157034.69307   -122364.68907  21039417.84407  21039420.06807
  -5357085.60107  -4174352.94707  21679805.74307  21679805.89507
 -28168909.60409 -21949796.12208  16752328.58609  16752328.05808
 -24195358.57608 -18853514.63508  17807819.21008  17807819.42008
 -24773949.04308 -19304365.62708  18467328.88608  18467329.47708
 -11757580.13508  -9161750.31108  17421955.68408  17421955.78308
 -20500809.68808 -15974657.26708  18734804.53108  18734806.10608
  -3386126.58808  -2638538.66108  20630382.66908  20630383.26608
 93 04 07 13 00 00.0000000  0  8 20 28 25 01 21 15 11 14
   -307682.47107   -239752.66307  21010750.63107  21010752.83007
  -5100782.04607  -3974635.97107  21728578.59807  21728578.93207
 -28372748.51309 -22108631.64208  16713539.41709  16713538.89208
 -23997078.23508 -18699010.55408  17845550.71008  17845550.90308
 -24572295.69608 -19147233.34308  18505702.42808  18505703.01708
 -12012815.12408  -9360634.72908  17373386.04508  17373386.17808
 -20224202.05508 -15759118.87308  18787441.22908  18787442.83908
  -3767885.25608  -2936012.71908  20557736.27208  20557736.96608
 93 04 07 13 02 00.0000000  0  7 25 01 21 15 20 11 14
 -28568088.71409 -22260844.79909  16676367.41809  16676366.90609
 -23797031.12408 -18543129.78508  17883618.49408  17883618.69108
 -24366504.12408 -18986876.48008  18544863.35608  18544864.07908
 -12259490.75308  -9552849.52208  17326445.27708  17326445.38908
   -451823.78307   -352070.67407  20983321.44107  20983323.75007
 -19941896.53408 -15539140.56808  18841162.28408  18841163.79308
  -4150612.35208  -3234241.41408  20484905.42908  20484906.14008
 93 04 07 13 04 00.0000000  0  8 25 01 21 20 29 15 11 14
 -28754735.15309 -22406283.60409  16640849.76409  16640849.28009
 -23595450.66708 -18386054.21008  17921978.11408  17921978.38908
 -24156654.31808 -18823357.36708  18584796.64608  18584797.43008
   -589385.53107   -459261.78607  20957144.54307  20957146.82607
        -0.39618        -0.18618  20618317.31018  20618317.18218
 -12497532.99008  -9738337.00108  17281147.35508  17281147.47908
 -19654185.53408 -15314950.20808  18895911.89908  18895913.44508
  -4534285.58708  -3533207.43508  20411894.77608  20411895.40708
 93 04 07 13 06 00.0000000  0  8 25 01 21 20 29 15 11 14
 -28932811.03909 -22545044.05609  16606963.09209  16606962.58109
 -23392135.81808 -18227627.18308  17960667.70508  17960668.00608
 -23942522.54408 -18656501.67708  18625544.81708  18625545.59408
   -720224.83307   -561214.65707  20932246.72307  20932249.05607
   -332487.16108   -259080.71508  20555047.21108  20555047.05308
 -12726793.85008  -9916981.85908  17237520.50408  17237520.61008
 -19361287.43308 -15086717.95608  18951648.56008  18951650.14908
  -4918940.41508  -3832938.41108  20338697.23108  20338697.79708
 93 04 07 13 08 00.0000000  0  8 25 15 01 20 29 21 11 14
 -29102383.07109 -22677178.13909  16574694.63409  16574694.14609
 -12947209.02108 -10088733.97408  17195576.87708  17195577.02108
 -23187459.28008 -18068139.11208  17999616.43708  17999616.75908
   -844280.40807   -657881.49607  20908639.83107  20908642.16907
   -662728.74008   -516411.74908  20492204.17808  20492204.20608
 -23724328.81308 -18486480.83808  18667065.90408  18667066.78108
 -19063498.71008 -14854674.83008  19008315.86608  19008317.40108
  -5304369.93408  -4133273.04508  20265352.54908  20265352.94608
 93 04 07 13 10 00.0000000  0  8 25 15 01 20 29 21 11 14
 -29263230.53609 -22802513.86409  16544086.37109  16544085.86509
 -13158661.55408 -10253502.22108  17155338.78508  17155339.03908
 -22981350.73808 -17907535.20708  18038837.77708  18038838.12108
   -961438.67007   -749173.78607  20886345.50907  20886347.85007
   -990696.98208   -771971.36608  20429793.88808  20429793.93408
 -23502213.34608 -18313404.10808  18709333.24908  18709334.19108
 -18761060.45908 -14619008.69108  19065867.96008  19065869.52608
  -5690809.85108  -4434395.01508  20191815.47308  20191815.91408
 93 04 07 13 12 00.0000000  0  8 25 15 01 20 29 21 11 14
 -29415521.76009 -22921182.39709  16515106.36809  16515105.86909
 -13361016.61208 -10411181.52308  17116831.92408  17116832.23008
 -22773848.46508 -17745845.28708  18078324.32608  18078324.67508
  -1071565.20907   -834986.80907  20865389.20807  20865391.66507
  -1316047.06608  -1025490.87508  20367881.78308  20367881.76208
 -23275909.62408 -18137063.82608  18752397.58108  18752398.64408
 -18454190.15708 -14379889.01608  19124263.39108  19124265.04308
  -6078117.77008  -4736193.37808  20118113.16908  20118113.67708
 93 04 07 13 14 00.0000000  0  8 25 15 01 20 29 21 11 14
 -29558893.25309 -23032900.49909  16487823.73809  16487823.24409
 -13554215.15008 -10561725.88708  17080067.50308  17080067.83808
 -22565368.97008 -17583393.89508  18117996.72708  18117997.15008
  -1174602.70507   -915275.94108  20845781.96107  20845784.44708
  -1639043.60808  -1277176.44208  20306417.57808  20306417.54308
 -23045747.13008 -17957716.71508  18796196.27908  18796197.35608
 -18143177.46508 -14137541.50308  19183447.21408  19183448.76208
  -6465998.55308  -5038438.15008  20044301.85808  20044302.30008
 93 04 07 13 16 00.0000000  0  8 25 15 01 20 29 21 11 14
 -29693312.52109 -23137642.85109  16462244.64109  16462244.19109
 -13738138.04908 -10705042.49208  17045068.19408  17045068.49308
 -22355641.43108 -17419970.01308  18157906.67308  18157907.16108
  -1270431.20507   -989947.67808  20827546.50507  20827549.00908
  -1959950.26908  -1527233.53508  20245351.06708  20245351.04508
 -22811550.30308 -17775225.98908  18840762.66808  18840763.86508
 -17828246.66808 -13892140.92708  19243376.58608  19243378.06608
  -6854692.74408  -5341316.80508  19970335.80908  19970336.45308
 93 04 07 13 18 00.0000000  0  8 25 15 01 20 29 21 11 14
 -29818973.09009 -23235560.24609  16438332.29709  16438331.86609
 -13912747.49208 -10841101.86608  17011841.15108  17011841.45508
 -22145069.49008 -17255888.16608  18197977.30108  18197977.80708
  -1359014.87108  -1058974.09608  20810689.81108  20810692.21108
  -2278525.33108  -1775473.81708  20184728.03608  20184728.11208
 -22572924.30408 -17589283.96508  18886171.92208  18886173.15708
 -17509697.95308 -13643921.20308  19303994.48108  19303995.91708
  -7243966.07608  -5644646.75408  19896259.65608  19896260.30008
 93 04 07 13 20 00.0000000  0  8 25 15 01 20 29 21 11 14
 -29935822.43609 -23326611.75509  16416096.70509  16416096.33209
 -14077956.09108 -10969835.91408  16980403.08108  16980403.40208
 -21933813.17308 -17091273.04508  18238178.17408  18238178.69608
  -1440262.96408  -1122284.49208  20795228.88708  20795231.46108
  -2594515.89008  -2021700.19908  20124597.01608  20124597.07908
 -22330279.59908 -17400210.48108  18932345.83608  18932347.18808
 -17187775.13908 -13393072.32508  19365254.40008  19365255.90108
  -7633914.58008  -5948502.78708  19822055.03008  19822055.58508
 93 04 07 13 22 00.0000000  0  8 25 15 01 20 29 21 11 14
 -30043709.87709 -23410679.96309  16395566.36209  16395566.01609
 -14233676.93808 -11091176.91608  16950770.48908  16950770.76108
 -21721590.25308 -16925904.72808  18278563.02708  18278563.59908
  -1514085.69307  -1179808.89208  20781181.06907  20781183.75308
  -2908131.89508  -2266076.29108  20064917.85708  20064917.86008
 -22084174.81408 -17208440.86808  18979178.26908  18979179.73908
 -16862717.85908 -13139781.01708  19427110.74008  19427112.36608
  -8024407.45608  -6252783.02008  19747746.68808  19747747.26308
 93 04 07 13 24 00.0000000  0  8 25 15 01 20 29 21 11 14
 -30142858.65809 -23487938.82409  16376699.04109  16376698.69209
 -14379858.22908 -11205084.50008  16922953.21908  16922953.45108
 -21508416.38008 -16759795.41708  18319128.82308  18319129.42108
  -1580427.93407  -1231504.32608  20768556.62607  20768559.43308
  -3219907.00108  -2509017.94608  20005589.16008  20005589.03808
 -21834101.53608 -17013578.92108  19026765.90208  19026767.39608
 -16534792.25908 -12884254.65608  19489513.00008  19489514.60908
  -8415474.72208  -6557510.84008  19673329.09108  19673329.66908
 93 04 07 13 26 00.0000000  0  8 25 15 01 20 29 21 11 14
 -30233244.63409 -23558369.52509  16359499.18809  16359498.85309
 -14516418.60308 -11311495.26408  16896966.67508  16896966.98408
 -21294506.25208 -16593112.40308  18359834.77708  18359835.46408
  -1639202.08208  -1277302.57508  20757372.44008  20757375.30608
  -3529379.50508  -2750165.38008  19946698.57908  19946698.49508
 -21580062.92208 -16815627.12108  19075108.18308  19075109.70808
 -16204229.16208 -12626673.11408  19552417.13708  19552418.73108
  -8806969.98508  -6862572.19708  19598830.13108  19598830.76208
 93 04 07 13 28 00.0000000  0  8 25 15 01 20 29 21 11 14
 -30314202.60309 -23621453.73209  16344093.51109  16344093.16409
 -14643347.67308 -11410401.11408  16872812.93508  16872813.27108
 -21080172.80108 -16426099.53908  18400621.22008  18400622.00408
  -1690392.99708  -1317191.80908  20747631.31508  20747634.17008
  -3836475.45508  -2989460.97008  19888260.18308  19888260.13408
 -21321999.84508 -16614539.37608  19124216.18108  19124217.86008
 -15871322.10408 -12367265.12208  19615767.26708  19615769.03408
  -9198734.56008  -7167843.39908  19524279.91208  19524280.57308
 93 04 07 13 30 00.0000000  0  8 25 15 01 20 29 21 11 14
 -30386757.23809 -23677989.89709  16330286.86709  16330286.55109
 -14760640.15508 -11501797.93808  16850492.91608  16850493.34308
 -20865277.92408 -16258649.21208  18441514.54108  18441515.35208
  -1733988.08707  -1351162.19008  20739335.58207  20739338.49108
  -4141503.77208  -3227145.42108  19830215.17408  19830215.23008
 -21060223.50808 -16410558.20108  19174030.80708  19174032.64908
 -15536363.62508 -12106258.63508  19679507.86708  19679509.63608
  -9590892.31808  -7473420.98008  19449654.79308  19449655.43208
 93 04 07 13 32 00.0000000  0  8 25 15 01 20 29 21 11 14
 -30450477.40009 -23727642.05809  16318161.29109  16318161.04709
 -14868196.51108 -11585608.17308  16830025.65608  16830026.12108
 -20649781.75408 -16090730.35508  18482522.21008  18482523.07708
  -1769878.10307  -1379128.61308  20732506.07907  20732509.00308
  -4444253.31308  -3463054.22408  19772603.96908  19772603.85008
 -20794676.53108 -16203638.87908  19224563.11008  19224564.93408
 -15199542.69808 -11843800.89208  19743602.81308  19743604.60608
  -9983508.09508  -7779355.46708  19374942.68308  19374943.32008
 93 04 07 13 34 00.0000000  0  8 25 15 01 20 29 21 11 14
 -30505561.18709 -23770564.57309  16307679.35509  16307679.09909
 -14966067.73908 -11661871.55408  16811401.48108  16811401.97208
 -20433855.53408 -15922476.39008  18523611.71808  18523612.66608
  -1798104.19007  -1401123.13807  20727134.90007  20727137.97907
  -4744754.34108  -3697210.94308  19715420.54308  19715420.47208
 -20525387.19108 -15993803.44408  19275807.40608  19275809.32008
 -14861191.49308 -11580150.74008  19807988.98108  19807990.82308
 -10376367.57408  -8085479.82308  19300184.03108  19300184.74408
 93 04 07 13 36 00.0000000  0  8 25 15 01 20 29 21 11 14
 -30552763.04109 -23807345.33109  16298697.22009  16298696.96409
 -15055114.88708 -11731259.03608  16794456.47508  16794456.95708
 -20218605.89808 -15754749.64208  18564572.57208  18564573.57808
  -1819516.92107  -1417808.60307  20723060.28407  20723063.39607
  -5044183.33008  -3930532.33008  19658441.12808  19658441.25608
 -20253652.48708 -15782062.53708  19327517.08508  19327519.11108
 -14522443.60808 -11316191.50808  19872450.69808  19872452.63708
 -10770106.08608  -8392289.16308  19225258.23808  19225258.88708
 93 04 07 13 44 00.0000000  0  8 29 14 22 25 15 01 21 20
         0.05618        -0.29318  23523382.50318  23523382.72018
        -0.63018        -0.80518  23014613.35218  23014614.27418
        -0.49718        -0.39818  24342497.36218  24342499.67618
         0.33319        -0.22319  20368471.77419  20368471.62119
         0.02718         0.10418  20834324.62418  20834325.15418
        -0.21118        -0.98218  22817811.36318  22817812.58018
        -0.69618        -0.20018  23630368.32718  23630370.76118
         0.24017        -0.44417  24810637.70117  24810641.00117
 93 04 07 13 46 00.0000000  0  8 29 14 22 25 15 01 21 20
   -303804.05508   -236730.90408  23465570.54208  23465570.81708
   -407761.49108   -317736.64008  22937019.13108  22937020.12008
   -411042.94208   -320293.18808  24264278.53808  24264280.81008
    -18312.77109    -14270.27309  20364986.98109  20364986.83909
    -54603.87408    -42548.51008  20823933.92408  20823934.50208
    201545.98008    157047.72208  22856164.57808  22856165.82408
    275392.72908    214591.57408  23682774.29908  23682776.88108
      3202.26007      2494.35407  24811247.24107  24811250.65907
 93 04 07 13 52 00.0000000  0  6 29 11 14 22 25 15
        -0.22818         0.47018  23290655.37018  23290655.38818
        -0.04517        -0.81317  24466093.84417  24466096.06017
         0.31518        -0.01718  22701259.07918  22701259.95318
        -0.95618        -0.37818  24024801.74618  24024804.24418
        -0.20819        -0.24019  20360571.08619  20360571.04719
        -0.38418        -0.08218  20800263.25618  20800263.97118
 93 04 07 13 54 00.0000000  0  6 29 11 14 22 25 15
   -307630.46908   -239711.49808  23232115.30608  23232115.47008
    313849.47007    244557.02807  24525817.46207  24525819.78207
   -417197.34508   -325089.18408  22621869.02608  22621870.01208
   -426194.63108   -332099.38208  23943699.92608  23943702.35708
      3608.57709      2811.69409  20361257.87609  20361257.86509
    -27293.63708    -21267.69108  20795069.60808  20795070.34108
 93 04 07 13 56 00.0000000  0  6 29 11 14 22 25 15
   -616031.68408   -480024.21308  23173428.45908  23173428.81408
    624109.28307    486317.70107  24584858.17407  24584860.55607
   -836061.75408   -651477.10308  22542161.80208  22542162.78108
   -855383.94408   -666532.59008  23862027.86208  23862030.23308
     12810.82309      9982.16809  20363009.10709  20363009.09809
    -47520.40808    -37028.95408  20791220.69508  20791221.42308
 93 04 07 13 58 00.0000000  0  6 14 29 11 22 25 15
  -1256756.39408   -979291.20908  22462106.46608  22462107.42208
   -925628.18108   -721268.33208  23114514.16208  23114514.55908
    930208.68607    724836.43507  24643107.16407  24643109.50207
  -1287729.62108  -1003425.47808  23779755.28208  23779757.75008
     27342.09809     21305.11409  20365774.39309  20365774.38609
    -61081.40408    -47596.12008  20788640.26008  20788640.97408
 93 04 07 14 00 00.0000000  0  6 29 11 14 22 25 15
  -1236250.58008   -963311.83708  23055404.67408  23055405.16108
   1231880.12607    959904.86807  24700513.63707  24700515.97807
  -1679397.04808  -1308621.69008  22381680.72008  22381681.62408
  -1723089.88008  -1342667.34708  23696909.02508  23696911.47008
     47131.50409     36725.30309  20369540.26109  20369540.31209
    -68082.63608    -53051.76408  20787308.01708  20787308.80408
 93 04 07 14 02 00.0000000  0  6 29 11 14 22 25 15
  -1547620.13608  -1205937.53908  22996153.14208  22996153.51808
   1529423.42107   1191756.56707  24757134.39807  24757136.76907
  -2103412.89708  -1639023.74208  22300993.28808  22300994.14508
  -2160756.41608  -1683706.33008  23613623.91408  23613626.32908
     72368.24009     56390.17709  20374342.74909  20374342.86809
    -68073.91008    -53045.09908  20787309.79708  20787310.60608
 93 04 07 14 04 00.0000000  0  6 14 29 11 22 25 15
  -2527924.25308  -1969811.90908  22220211.49008  22220212.38008
  -1859396.83108  -1448880.51108  22936824.15508  22936824.52408
   1823122.91707   1420613.02307  24813023.61107  24813026.29007
  -2600039.82708  -2026005.12508  23530031.09508  23530033.53008
    103433.97809     80597.13309  20380254.41609  20380254.55909
    -60630.34708    -47245.06208  20788726.34408  20788727.22408
 93 04 07 14 06 00.0000000  0  8 14 29 11 22 25 15 20 01
  -2952596.62408  -2300725.54508  22139399.04608  22139399.99908
  -2171087.23408  -1691756.25508  22877511.44508  22877511.93908
   2113055.78707   1646534.48607  24868196.25907  24868198.97807
  -3040457.94708  -2369188.08508  23446222.27008  23446224.85408
    140630.18909    109581.07508  20387332.72809  20387332.86708
    -45544.21508    -35489.77508  20791597.25608  20791598.13408
        -0.93916        -0.29016  24869677.60616  24869681.65916
        -0.06718        -0.39918  23209881.06218  23209883.09918
 93 04 07 14 08 00.0000000  0  7 29 14 22 25 15 20 01
  -2482618.46408  -1934507.90808  22818229.06208  22818229.53008
  -3377723.88808  -2631993.64008  22058500.04108  22058501.05908
  -3481713.97008  -2713023.97908  23362254.05908  23362256.62308
    184179.04909    143515.12908  20395619.86209  20395620.04108
    -22803.64808    -17769.99008  20795924.72408  20795925.67908
     60950.69506     47494.26606  24881276.69906  24881280.66106
    172773.14108    134627.72908  23242758.90408  23242761.06808
 93 04 07 14 10 00.0000000  0  7 14 29 21 22 25 15 01
  -3802141.41808  -2962708.69508  21977736.09008  21977737.16508
  -2793255.30308  -2176562.53208  22759116.82208  22759117.30108
        -0.37818        -0.05918  24318836.21618  24318840.67418
  -3922895.51008  -3056801.83708  23278300.13608  23278302.63208
    234398.14709    182646.76308  20405176.36709  20405176.58608
      8215.45308      6400.59708  20801827.55008  20801828.56708
    344253.59608    268248.52008  23275390.78108  23275393.02508
 93 04 07 14 12 00.0000000  0  8 14 29 21 22 25 15 20 01
  -4223648.61908  -3291155.95108  21897525.99208  21897527.07208
  -3101758.68208  -2416954.64508  22700410.53408  22700410.93908
    287442.61008    223980.68408  24373535.35508  24373540.02008
  -4362299.31108  -3399194.43008  23194684.52608  23194686.85308
    292453.63509    227884.68408  20416224.03709  20416224.28508
     48916.21608     38115.34308  20809572.79408  20809573.81908
        -0.19116        -0.16516  24908564.46716  24908568.69116
    516350.93808    402349.97808  23308140.19808  23308142.55708
 93 04 07 14 14 00.0000000  0  7 14 29 21 22 25 15 01
  -4642067.80208  -3617196.94608  21817903.53708  21817904.62508
  -3407229.36208  -2654983.67608  22642281.34008  22642281.71508
    578928.29808    451111.46708  24429003.96608  24429008.84608
  -4798967.99908  -3739455.75408  23111589.13608  23111591.58508
    359268.61409    279948.18008  20428938.61309  20428938.86908
     99951.49008     77882.94508  20819284.55908  20819285.66808
    689410.37808    537201.12708  23341072.53908  23341075.06108
 93 04 07 14 16 00.0000000  0  8 14 29 21 22 25 15 20 01
  -5057090.47608  -3940591.29508  21738927.48708  21738928.50708
  -3709448.47708  -2890479.04908  22584770.90808  22584771.27708
    874420.55708    681364.24108  24485234.97708  24485240.04008
  -5232505.44908  -4077276.97408  23029089.57308  23029091.89908
    435063.20809    339008.78108  20443361.91009  20443362.24508
    161402.66008    125766.84408  20830978.45908  20830979.53908
        -0.74016        -0.40516  24942454.21416  24942458.09016
    863857.01108    673133.20408  23374268.92908  23374271.47808
 93 04 07 14 18 00.0000000  0  7 14 29 21 22 01 25 15
  -5468317.11108  -4261027.69708  21660673.68808  21660674.75508
  -4008378.21908  -3123411.34508  22527886.53808  22527886.92008
   1173797.40808    914643.87008  24542205.17408  24542210.55708
  -5662738.25508  -4412523.24708  22947218.92908  22947221.31608
   1039705.90508    810157.95308  23407732.20208  23407734.75708
    519321.76509    404664.66908  20459395.87909  20459396.24408
    233126.28608    181655.23108  20844627.15108  20844628.28208
 93 04 07 14 20 00.0000000  0  7 14 29 21 22 01 25 15
  -5875348.89408  -4578195.39208  21583218.16308  21583219.27308
  -4304204.56208  -3353925.49408  22471592.70908  22471593.17508
   1477303.70708   1151141.26708  24599961.41208  24599966.86508
  -6089369.94408  -4744963.49308  22866033.58808  22866035.95308
   1216698.94208    948074.23408  23441413.03808  23441415.80108
    612150.11209    476998.31508  20477060.66709  20477061.05608
    315089.27208    245522.33408  20860224.35408  20860225.47408
 93 04 07 14 22 00.0000000  0  7 14 29 22 21 01 25 15
  -6278183.99408  -4892092.94808  21506561.20708  21506562.33808
  -4597006.43908  -3582082.85908  22415874.42008  22415874.88308
  -6512194.24508  -5074436.97308  22785572.81408  22785575.18108
   1784948.67608   1390863.74007  24658505.00908  24658510.70207
   1395138.21508   1087117.43308  23475369.19408  23475372.07508
    713827.05309    556226.96608  20496409.23609  20496409.69108
    407167.32408    317271.31808  20877746.34508  20877747.47208
 93 04 07 14 24 00.0000000  0  7 14 29 22 21 01 25 15
  -6676908.25608  -5202787.23108  21430686.59308  21430687.73108
  -4886792.86708  -3807890.55708  22360729.93508  22360730.41108
  -6931052.02508  -5400819.66308  22705866.91708  22705869.26008
   2096475.12708   1633610.53107  24717787.16608  24717793.40107
   1574708.93408   1227042.28208  23509540.72008  23509543.61008
    823828.76709    641942.44908  20517341.98009  20517342.43308
    509179.59508    396761.23808  20897158.71008  20897159.94008
 93 04 07 14 26 00.0000000  0  7 14 29 22 01 21 25 15
  -7071190.30408  -5510020.04808  21355657.19908  21355658.39908
  -5173438.94808  -4031251.25408  22306183.09508  22306183.62208
  -7345671.21008  -5723899.54208  22626967.50708  22626969.81708
   1755693.29308   1368068.67008  23543981.25708  23543984.20208
   2411823.23708   1879335.35507  24777796.74108  24777802.98207
    942097.62909    734099.85808  20539847.92009  20539848.39308
    621052.00408    483934.37408  20918447.43208  20918448.75008
 93 04 07 14 28 00.0000000  0  7 14 29 22 01 21 25 15
  -7461072.31008  -5813824.26708  21281465.16608  21281466.38908
  -5456874.26308  -4252110.02708  22252247.29908  22252247.80008
  -7755833.46808  -6043506.46608  22548916.07608  22548918.47308
   1938129.12408   1510226.07008  23578697.80008  23578700.90708
   2730654.61907   2127774.41107  24838469.01107  24838475.68407
   1068302.06208    832440.82908  20563863.90508  20563864.43008
    742655.31708    578690.00308  20941587.88108  20941589.32208
 93 04 07 14 30 00.0000000  0  7 14 29 22 01 21 25 15
  -7846196.57108  -6113921.15808  21208178.47608  21208179.74008
  -5737110.43608  -4470475.93508  22198920.14808  22198920.71208
  -8161304.26808  -6359457.67508  22471757.62408  22471759.92608
   2122044.43608   1653536.29508  23613696.11108  23613699.22908
   3053046.87607   2378988.13007  24899819.18207  24899826.06707
   1202627.49208    937109.84408  20589425.29408  20589425.88708
    873868.16608    680933.59708  20966557.03908  20966558.48208
 93 04 07 14 32 00.0000000  0  7 29 14 22 15 21 01 25
  -6014445.87908  -4686581.54108  22146144.99908  22146145.56908
  -8226215.82908  -6410040.11408  21135863.27908  21135864.56908
  -8561901.31508  -6671611.11608  22395526.49008  22395528.78708
   1014511.92808    790525.94208  20993320.86608  20993322.26708
   3379371.88507   2633266.37007  24961917.37607  24961924.50907
   2307271.15908   1797868.38108  23648943.85408  23648947.11708
   1344910.65208   1047979.68908  20616501.00608  20616501.59408
 93 04 07 14 34 00.0000000  0  7 29 14 22 15 21 01 25
  -6288635.72508  -4900236.04508  22093968.55608  22093969.03908
  -8601375.71608  -6702372.54208  21064472.83108  21064474.11708
  -8957384.93008  -6979780.05108  22320268.38708  22320270.64508
   1164463.44408    907371.06808  21021855.85508  21021857.31208
   3709292.53007   2890346.44607  25024699.90907  25024707.32907
   2493642.95608   1943092.72408  23684409.54708  23684412.97708
   1494853.76508   1164818.33308  20645034.36508  20645034.97808
 93 04 07 14 36 00.0000000  0  7 15 29 22 01 21 14 25
   1323551.69108   1031335.73608  21052129.45108  21052131.01608
  -6559831.13908  -5111557.22108  22042361.76108  22042362.24908
  -9347557.79108  -7283810.74508  22246020.87408  22246023.12308
   2681697.18408   2089628.05408  23720195.43808  23720198.96408
   4042494.43307   3149983.44507  25088106.74107  25088114.30307
  -8971332.13808  -6990650.32308  20994072.44608  20994073.78808
   1652487.45008   1287649.61408  20675031.19308  20675031.86108
 93 04 07 14 38 00.0000000  0  6 15 29 22 01 14 25
   1491694.23108   1162355.68608  21084126.07508  21084127.69508
  -6827855.65908  -5320407.56208  21991358.49908  21991359.04108
  -9732129.05508  -7583476.59308  22172839.31208  22172841.56708
   2871451.70408   2237488.27408  23756304.92008  23756308.44108
  -9335881.09008  -7274714.48508  20924701.11708  20924702.46608
   1817428.62408   1416175.04208  20706418.59308  20706419.29308
 93 04 07 14 40 00.0000000  0  6 15 29 22 01 14 25
   1668698.06608   1300280.53308  21117808.94308  21117810.63308
  -7092743.58008  -5526813.79508  21940952.05308  21940952.65208
 -10110918.57208  -7878637.18608  22100757.98508  22100760.28208
   3062460.68108   2386325.95608  23792653.08708  23792656.76508
  -9694779.21208  -7554375.40808  20856405.09708  20856406.45108
   1989943.79008   1550602.27908  20739247.24208  20739248.01008
 93 04 07 14 42 00.0000000  0  6 15 29 22 01 14 25
   1854397.20808   1444980.95208  21153146.53508  21153148.25008
  -7354466.14708  -5730753.53708  21891147.92908  21891148.63408
 -10483714.51408  -8169127.45408  22029817.21108  22029819.49108
   3254957.53808   2536323.01708  23829284.33508  23829288.22208
 -10048042.03908  -7829645.19408  20789181.53508  20789182.89808
   2169791.87908   1690743.48208  20773471.33008  20773472.18408
 93 04 07 14 44 00.0000000  0  7 29 22 15 01 18 14 25
  -7613451.06308  -5932560.03708  21841864.75308  21841865.48208
 -10850413.45108  -8454866.80908  21960036.70308  21960038.94708
   2048515.05908   1596241.39608  21190086.14008  21190087.80408
   3448925.82408   2687466.64408  23866195.55808  23866199.64408
        -0.10717         0.20517  24693990.04717  24693992.25417
 -10395252.03608  -8100198.47008  20723109.69308  20723111.08208
   2356591.15508   1836301.19908  20809018.16108  20809019.00208
 93 04 07 14 46 00.0000000  0  7 29 22 15 18 01 14 25
  -7869510.08808  -6132086.61108  21793138.41608  21793139.17408
 -11210822.43308  -8735704.90508  21891453.08908  21891455.33308
   2250862.58208   1753914.55508  21228591.80408  21228593.52708
   -367853.78707   -286639.41007  24623990.19907  24623992.52707
   3644305.03808   2839709.66808  23903375.43308  23903379.58308
 -10736791.30308  -8366332.99808  20658117.03508  20658118.36808
   2550265.27608   1987215.94208  20845873.19108  20845874.15208
 93 04 07 14 48 00.0000000  0  7 29 22 15 18 01 14 25
  -8122329.95008  -6329089.15708  21745028.45408  21745029.22308
 -11564639.54208  -9011406.46908  21824123.86208  21824126.18308
   2461356.32708   1917935.40308  21268647.58108  21268649.41708
   -733674.94307   -571695.23507  24554376.98507  24554379.39407
   3841384.80008   2993277.78308  23940878.90208  23940883.09108
 -11072214.88208  -8627702.06708  20594288.09508  20594289.46008
   2750957.03108   2143598.95508  20884063.67508  20884064.68308
 93 04 07 14 50 00.0000000  0  7 29 22 15 18 01 14 25
  -8372206.56808  -6523798.27808  21697478.54108  21697479.32108
 -11911653.21708  -9281806.67108  21758089.25308  21758091.60608
   2679824.66008   2088170.20908  21310220.96108  21310222.81708
  -1097406.11007   -855122.39807  24485161.45207  24485163.86107
   4040174.94708   3148178.65308  23978707.88208  23978712.19608
 -11401057.71508  -8883943.28108  20531711.36308  20531712.76608
   2958164.73908   2305059.32408  20923494.08108  20923495.13608
 93 04 07 14 52 00.0000000  0  7 29 22 15 18 01 14 25
  -8619258.98208  -6716306.71608  21650466.04708  21650466.86008
 -12251633.65708  -9546726.43608  21693393.09908  21693395.43508
   2906110.39308   2264496.50408  21353281.86708  21353283.81608
  -1459042.82107  -1136917.49207  24416344.45707  24416346.98407
   4240385.05508   3304185.98108  24016806.98408  24016811.45208
 -11723544.51108  -9135231.73608  20470344.19608  20470345.63108
   3171842.51208   2471561.29408  20964155.82908  20964157.00008
 93 04 07 14 54 00.0000000  0  7 29 22 18 25 15 01 14
  -8863150.57308  -6906352.17508  21604055.13708  21604055.92108
 -12584395.78508  -9806021.55208  21630070.58608  21630072.85908
  -1818652.80207  -1417133.28407  24347913.14907  24347915.70107
   3391848.44708   2642994.29808  21006021.65708  21006022.90508
   3140012.63108   2446757.71508  21397792.17908  21397794.23308
   4442117.89108   3461379.81608  24055195.95508  24055200.51208
 -12039486.40308  -9381420.26908  20410222.54908  20410223.97308
 93 04 07 14 56 00.0000000  0  7 29 22 18 25 15 01 14
  -9104061.73608  -7094075.19008  21558211.34508  21558212.14008
 -12909812.60508 -10059593.05708  21568145.78308  21568148.07608
  -2176478.91107  -1695959.06007  24279821.19207  24279823.86307
   3618108.95508   2819300.98808  21049077.84408  21049079.11308
   3381271.81808   2634751.59808  21443702.55808  21443704.65208
   4645821.52208   3620109.31408  24093959.96208  24093964.75108
 -12348402.60008  -9622134.21408  20351437.78108  20351439.17208
 93 04 07 14 58 00.0000000  0  7 29 22 25 18 15 01 14
  -9342275.32708  -7279696.20108  21512880.78508  21512881.67508
 -13227761.16608 -10307345.13408  21507642.15608  21507644.40908
   3850551.49408   3000424.83908  21093310.36908  21093311.62208
  -2532327.48207  -1973243.85007  24212105.58007  24212108.29107
   3629624.45908   2828272.85308  21490962.69308  21490964.86008
   4850688.26707   3779745.14308  24132945.27007  24132950.11408
 -12650242.81909  -9857334.42108  20293999.55109  20294000.98308
 93 04 07 15 00 00.0000000  0  7 29 22 25 18 15 01 14
  -9578166.81008  -7463507.77108  21467992.13208  21467993.05608
 -13538728.48908 -10549657.25508  21448466.98208  21448469.21708
   4088060.89108   3185496.88708  21138507.14008  21138508.36908
  -2887029.03507  -2249634.79607  24144608.46207  24144611.02107
   3884198.11108   3026641.65208  21539406.64608  21539408.90608
   5056542.48208   3940150.43008  24172118.38408  24172123.45008
 -12946125.19009 -10087892.15408  20237695.02709  20237696.44708
 93 04 07 15 02 00.0000000  0  7 29 22 25 18 15 01 14
  -9811926.53108  -7645658.24108  21423509.20508  21423510.05108
 -13842701.72308 -10786519.43908  21390622.77108  21390624.97608
   4330353.71708   3374296.28908  21184614.04708  21184615.35008
  -3240558.96407  -2525112.79307  24077333.94507  24077336.63507
   4144622.31108   3229569.30708  21588963.99008  21588966.32608
   5263111.47008   4101112.64408  24211427.64008  24211432.97808
 -13235483.89009 -10313366.52208  20182631.92209  20182633.35108
 93 04 07 15 04 00.0000000  0  7 29 18 22 25 15 14 01
 -10043695.47108  -7826257.44908  21379405.13308  21379405.94208
  -3593289.30907  -2799967.76407  24010211.70007  24010214.59607
 -14139489.88208 -11017782.86708  21334145.88008  21334147.98908
   4577405.92508   3566804.30008  21231626.66808  21231628.05608
   4410705.02008   3436906.17908  21639598.02908  21639600.48108
 -13518204.48709 -10533668.33208  20128832.01409  20128833.47008
   5470570.09408   4262768.06508  24250906.27408  24250911.58308
 93 04 07 15 06 00.0000000  0  7 29 18 22 25 15 14 01
 -10273899.78808  -8005637.48008  21335598.74108  21335599.57508
  -3945413.16107  -3074350.13107  23943204.92307  23943207.74807
 -14429107.73108 -11243459.05508  21279033.39708  21279035.52308
   4828742.64008   3762650.86708  21279454.54708  21279456.05908
   4682051.46508   3648344.65408  21691233.77108  21691236.29908
 -13794669.49409 -10749095.66608  20076222.51609  20076224.00908
   5678342.14608   4424667.73107  24290444.47008  24290449.91707
 93 04 07 15 08 00.0000000  0  7 29 22 18 25 15 01 14
 -10502261.14808  -8183581.46408  21292143.04308  21292143.95208
 -14711482.41108 -11463491.22308  21225299.19608  21225301.33708
  -4296631.70407  -3348027.05507  23876370.33207  23876373.10907
   5084204.68908   3961711.97308  21328067.59308  21328069.10708
   4958355.54908   3863646.22908  21743812.98008  21743815.52408
   5886942.92808   4587213.18708  24330140.38608  24330145.95208
 -14064331.26009 -10959221.75808  20024907.62409  20024909.09508
 93 04 07 15 10 00.0000000  0  7 29 18 22 25 14 15 01
 -10728942.16808  -8360216.09708  21249007.14208  21249008.05408
  -4646815.84407  -3620897.96507  23809732.69207  23809735.57307
 -14986240.21208 -11677588.15208  21173014.57008  21173016.62608
   5343832.12608   4164018.81308  21377473.24308  21377474.79808
 -14327407.68609 -11164216.42808  19974845.92909  19974847.36808
   5239614.75008   4082808.93908  21797335.04408  21797337.67008
   6096456.68708   4750470.05608  24370010.03708  24370015.76608
 93 04 07 15 12 00.0000000  0  7 29 18 22 25 14 15 01
 -10953491.54008  -8535189.69608  21206276.86608  21206277.75308
  -4996127.34807  -3893088.90907  23743261.11607  23743263.85707
 -15253142.91508 -11885564.22508  21122224.57908  21122226.68008
   5607727.24108   4369651.10708  21427691.12208  21427692.63908
 -14583350.55509 -11363652.48708  19926141.69109  19926143.16108
   5525695.39408   4305728.58808  21851774.58308  21851777.34908
   6306623.54808   4914235.84907  24410003.84908  24410009.72607
 93 04 07 15 14 00.0000000  0  7 29 18 22 25 14 15 01
 -11176230.40508  -8708752.49208  21163891.10308  21163891.99708
  -5344994.58207  -4164933.62907  23676873.78307  23676876.68007
 -15512392.56508 -12087576.88408  21072890.96808  21072893.06708
   5875151.66608   4578033.51108  21478580.45108  21478582.07608
 -14832360.96809 -11557686.62608  19878756.59809  19878758.11308
   5816024.47508   4531958.73108  21907022.57608  21907025.45508
   6517379.88408   5078460.94607  24450109.86908  24450115.80307
 93 04 07 15 16 00.0000000  0  7 29 18 22 25 15 14 01
 -11397636.16008  -8881276.50608  21121758.99708  21121759.90708
  -5693281.46807  -4436326.07807  23610597.02407  23610600.02807
 -15763939.24208 -12283587.24008  21025023.16308  21025025.30208
   6145995.97108   4789080.73108  21530120.60008  21530122.36508
   6110289.95108   4761256.15008  21963019.63008  21963022.63108
 -15074406.65709 -11746293.70508  19832696.81209  19832698.35908
   6728492.04508   5242963.29107  24490283.78108  24490289.83607
 93 04 07 15 18 00.0000000  0  7 29 25 18 15 01 14 22
 -11617331.28208  -9052467.56708  21079952.40708  21079953.39508
   6420118.18008   5002682.15008  21582284.51208  21582286.37408
  -6040713.52307  -4707052.35607  23544482.84707  23544485.96707
   6408516.61408   4993640.19408  22019770.62808  22019773.70608
   6940308.90708   5408014.78207  24530591.60108  24530597.91107
 -15309176.06409 -11929230.94908  19788021.75809  19788023.31308
 -16007395.51808 -12473293.38308  20978694.87608  20978697.10208
 93 04 07 15 20 00.0000000  0  7 29 25 18 15 01 14 22
 -11835136.66508  -9222186.10408  21038505.44208  21038506.46008
   6697596.29708   5218898.55808  21635087.03708  21635089.02408
  -6387295.21007  -4977115.99608  23478530.58607  23478533.75808
   6710696.38408   5229104.58908  22077273.90408  22077276.92708
   7152916.53308   5573682.49407  24571049.90808  24571056.38107
 -15536033.31209 -12106002.88308  19744852.28309  19744853.85208
 -16242410.64208 -12656421.99308  20933972.97208  20933975.15208
 93 04 07 15 22 00.0000000  0  7 25 15 18 01 14 29 22
   6979274.54108   5438387.77408  21688688.89208  21688690.98108
   7017262.66608   5467987.02708  22135611.73808  22135614.95508
  -6732433.49708  -5246054.88308  23412853.03008  23412855.99508
   7367134.93107   5740605.30907  24611814.69007  24611821.39407
 -15754826.61509 -12276491.23408  19703217.36209  19703218.90008
 -12049902.63008  -9389536.25808  20997636.95208  20997637.94208
 -16468202.62008 -12832363.74708  20891006.18008  20891008.31808
 93 04 07 15 24 00.0000000  0  7 25 15 18 01 14 29 22
   7265118.74108   5661123.18308  21743083.49608  21743085.63308
   7328354.57508   5710395.90208  22194810.83408  22194814.16508
  -7075803.79808  -5513616.00208  23347511.75208  23347514.69208
   7583417.84907   5909136.83607  24652972.50607  24652979.28807
 -15964814.05909 -12440117.85208  19663258.12609  19663259.69908
 -12261878.21208  -9554712.07408  20957299.36508  20957300.36708
 -16684282.64508 -13000737.75508  20849887.53708  20849889.67808
 93 04 07 15 26 00.0000000  0  7 25 18 15 01 14 29 22
   7555158.79308   5887128.07308  21798276.61508  21798278.76208
  -7416748.03608  -5779286.69608  23282632.04108  23282635.00508
   7643875.37308   5956255.87708  22254852.70808  22254856.20008
   7801690.37207   6079218.69507  24694508.82207  24694515.72207
 -16165675.01009 -12596632.93508  19625035.58609  19625037.20708
 -12470770.09708  -9717485.02108  20917548.59108  20917549.63908
 -16890409.12508 -13161355.77608  20810662.97408  20810665.05908
 93 04 07 15 28 00.0000000  0  7 25 18 15 01 14 29 22
   7849035.27408   6116122.38808  21854199.70408  21854201.91408
  -7755959.44008  -6043607.19908  23218082.14908  23218085.08608
   7963582.94708   6205378.24508  22315691.42108  22315694.92408
   8021809.32207   6250739.29107  24736396.69107  24736403.67507
 -16357222.34209 -12745890.65208  19588585.38709  19588587.03808
 -12676639.88108  -9877903.08908  20878372.92408  20878373.98208
 -17086487.63508 -13314144.21608  20773350.48108  20773352.55908
 93 04 07 15 30 00.0000000  0  7 18 25 14 15 01 29 22
  -8093401.39708  -6306548.95408  23153868.99808  23153872.10108
   8147175.94208   6348439.42608  21910934.28808  21910936.60508
 -16539163.78909 -12887663.26809  19553963.14409  19553964.83709
   8287296.77508   6457622.34508  22377292.48408  22377296.10808
   8244155.92807   6423995.69007  24778708.44207  24778715.39607
 -12879406.04008 -10035902.75708  20839787.92608  20839788.97908
 -17272369.59008 -13458987.28308  20737978.24808  20737980.42108
 93 04 07 15 32 00.0000000  0  8 18 25 14 15 19 29 22 01
  -8428527.99408  -6567686.58208  23090096.56808  23090099.63008
   8448979.46208   6583610.63608  21968365.91908  21968368.24408
 -16711645.87409 -13022064.94209  19521140.89909  19521142.64909
   8614837.87208   6712848.74508  22439621.77208  22439625.50108
        -0.78117        -0.41817  24216106.61617  24216111.92617
 -13078915.94608 -10191365.06708  20801822.42608  20801823.53308
 -17447909.43508 -13595771.56708  20704574.11908  20704576.26608
   8469197.56107   6599352.06106  24821533.06807  24821540.06506
 93 04 07 15 34 00.0000000  0  8 18 25 14 15 29 22 19 01
  -8761849.29208  -6827417.48808  23026667.81708  23026670.73808
   8754310.45608   6821530.51708  22026468.77908  22026471.15708
 -16874465.53809 -13148937.46209  19490157.48209  19490159.19709
   8946045.51508   6970932.17408  22502648.85408  22502652.64008
 -13275118.03708 -10344249.85308  20764486.40708  20764487.54708
 -17612955.10408 -13724378.57608  20673167.00608  20673169.13708
   -424574.43108   -330837.06207  24135313.10308  24135318.23707
   8695839.95207   6775955.80607  24864662.05307  24864669.57307
 93 04 07 15 36 00.0000000  0  7 18 25 15 19 14 29 22
  -9092906.39808  -7085384.06708  22963669.67008  22963672.67708
   9063446.55308   7062415.42508  22085295.69108  22085298.11608
   9280729.37608   7231724.35008  22566337.36708  22566341.38408
   -844585.66408   -658118.57307  24055387.64908  24055392.68507
 -17027326.70209 -13268050.12009  19461069.03309  19461070.77509
 -13468102.57808 -10494627.46408  20727762.72408  20727763.83508
 -17767385.97508 -13844714.32008  20643779.81808  20643781.94508
 93 04 07 15 38 00.0000000  0  7 18 25 15 19 14 29 22
  -9421703.63808  -7341589.72308  22901101.78008  22901104.74508
   9376027.75708   7305984.81708  22144778.14508  22144780.75108
   9618716.23708   7495090.26808  22630654.49908  22630658.63508
  -1260297.22908   -982049.70007  23976280.41308  23976285.35807
 -17170448.72609 -13379573.82709  19433833.82609  19433835.58809
 -13657749.97908 -10642404.70208  20691674.13508  20691675.27908
 -17911073.17008 -13956678.37608  20616437.05108  20616439.19608
 93 04 07 15 40 00.0000000  0  7 18 25 15 19 14 29 22
  -9748519.81408  -7596251.66708  22838910.51108  22838913.53308
   9691945.45308   7552154.04008  22204895.58808  22204898.37608
   9959750.17308   7760830.52708  22695551.50708  22695555.73708
  -1671837.62008  -1302730.58607  23897966.87108  23897971.97307
 -17303458.73309 -13483218.04309  19408522.85609  19408524.62009
 -13844223.60708 -10787708.87608  20656189.36408  20656190.53208
 -18043978.30608 -14060240.82808  20591146.06708  20591148.21608
 93 04 07 15 42 00.0000000  0  7 18 25 15 14 19 29 22
 -10073353.12408  -7849368.51008  22777096.80608  22777099.77708
  10010917.32208   7800703.12908  22265594.24008  22265597.09408
  10303573.97008   8028744.67708  22760979.39508  22760983.67108
 -17426302.35609 -13578940.41509  19385146.63109  19385148.38409
  -2079156.11908  -1620121.67207  23820456.72908  23820461.82807
 -14027344.31008 -10930400.39208  20621342.75808  20621343.90208
 -18166070.74108 -14155377.81708  20567912.67608  20567914.80408
 93 04 07 15 44 00.0000000  0  7 18 25 15 14 19 29 22
 -10396195.26308  -8100933.78008  22715661.95608  22715665.02108
  10332906.03408   8051602.98508  22326866.96008  22326870.00208
  10649959.56308   8298655.02308  22826894.87908  22826899.16208
 -17539122.98509 -13666852.66709  19363677.67109  19363679.43609
  -2481952.14508  -1933988.69107  23743807.14308  23743812.43207
 -14207325.13808 -11070645.24208  20587093.60508  20587094.78008
 -18277302.40808 -14242051.88008  20546746.02108  20546748.13208
 93 04 07 15 46 00.0000000  0  7 18 25 15 14 19 29 22
 -10716838.68908  -8350785.77408  22654645.67108  22654648.65308
  10657618.64808   8304625.35308  22388658.05308  22388661.24408
  10998686.77108   8570389.97608  22893255.78908  22893260.28208
 -17641529.66609 -13746650.14909  19344190.32609  19344192.13809
  -2880016.96608  -2244168.98208  23668057.94708  23668063.12208
 -14383854.33008 -11208200.50608  20553501.23408  20553502.45208
 -18377620.68108 -14320222.00308  20527656.14408  20527658.23708
 93 04 07 15 48 00.0000000  0  7 18 25 14 15 19 29 22
 -11035579.89208  -8599155.54708  22593991.29008  22593994.25508
  10985464.60008   8560089.27408  22451045.37108  22451048.67208
 -17733758.62809 -13818516.94609  19326639.86109  19326641.68509
  11349564.79408   8843800.84408  22960025.98408  22960030.73408
  -3273642.50508  -2550890.05408  23593153.51008  23593158.44608
 -14556871.42608 -11343019.07508  20520577.24708  20520578.43208
 -18466952.81008 -14389831.50308  20510656.84108  20510658.92008
 93 04 07 15 50 00.0000000  0  7 18 25 15 14 19 29 22
 -11352311.73508  -8845959.56308  22533719.11108  22533722.09108
  11315846.98608   8817529.62208  22513915.41808  22513918.84908
  11702326.16208   9118679.23108  23027154.65408  23027159.65508
 -17815465.00509 -13882184.33509  19311091.72409  19311093.51909
  -3662994.81908  -2854281.33708  23519062.24308  23519067.20208
 -14726870.99408 -11475486.33608  20488227.47008  20488228.65508
 -18545314.74708 -14450892.79908  20495745.10608  20495747.19308
 93 04 07 15 52 00.0000000  0  7 18 25 15 14 19 29 22
 -11667107.81808  -9091255.17408  22473815.28308  22473818.26408
  11648533.94008   9076765.70708  22577224.01608  22577227.55208
  12056780.10008   9394876.51308  23094605.41108  23094610.60308
 -17886832.48709 -13937795.44209  19297510.96809  19297512.82309
  -4047779.12508  -3154113.08608  23445839.93808  23445844.98808
 -14893355.01108 -11605214.20408  20456546.66908  20456547.92508
 -18612650.07408 -14503361.93908  20482931.67108  20482933.77408
 93 04 07 15 54 00.0000000  0  7 18 25 15 14 19 29 22
 -11979810.42708  -9334919.50108  22414310.12008  22414312.95308
  11983896.89508   9338086.97508  22641041.92708  22641045.57908
  12412706.05608   9672220.81008  23162336.31908  23162341.62108
 -17947750.34509 -13985263.98609  19285918.73109  19285920.63509
  -4428038.88908  -3450419.19008  23373478.76908  23373483.76908
 -15056624.44208 -11732437.19808  20425477.59308  20425478.86008
 -18668941.10508 -14547225.13208  20472219.87708  20472222.02408
 93 04 07 15 56 00.0000000  0  7 18 25 15 14 19 29 22
 -12290609.13708  -9577100.28508  22355167.07408  22355169.89308
  12321229.36708   9600942.91908  22705234.66908  22705238.33908
  12769863.20308   9950524.41608  23230301.63708  23230307.15808
 -17998321.13809 -14024669.88009  19276295.51809  19276297.43909
  -4803458.59108  -3742953.85508  23302038.61708  23302043.52108
 -15216419.66008 -11856953.01508  20395069.67608  20395070.87508
 -18714203.70108 -14582494.74308  20463606.74908  20463608.89108
 93 04 07 15 58 00.0000000  0  7 18 25 15 14 19 29 22
 -12599458.33008  -9817761.96708  22296395.05608  22296397.88708
  12660544.50708   9865343.77908  22769804.65608  22769808.37408
  13128010.11408  10229599.25508  23298455.26308  23298460.85308
 -18038392.12609 -14055894.10809  19268670.34009  19268672.25709
  -5174286.32208  -4031910.37708  23231472.42008  23231477.18708
 -15373081.83008 -11979027.50108  20365257.95208  20365259.17408
 -18748456.81408 -14609185.52908  20457088.68508  20457090.80608
 93 04 07 16 00 00.0000000  0  7 18 25 15 14 19 29 22
 -12906490.42808 -10057007.76508  22237968.82208  22237971.69808
  13001554.22008  10131065.07508  22834697.03908  22834700.99208
  13486902.47008  10509254.92308  23366750.79708  23366756.49208
 -18067829.67209 -14078832.54909  19263068.73209  19263070.66609
  -5540701.37408  -4317428.40708  23161745.77608  23161750.45608
 -15526149.28208 -12098300.90508  20336130.20208  20336131.43808
 -18771737.85108 -14627326.65608  20452658.54108  20452660.63708
 93 04 07 16 02 00.0000000  0  7 18 25 15 14 19 29 22
 -13211557.45308 -10294722.34808  22179916.53708  22179919.39008
  13344449.92808  10398255.94708  22899948.34208  22899952.47708
  13846370.80608  10789359.35308  23435155.94208  23435161.88608
 -18086797.70109 -14093612.93209  19259459.28709  19259461.26709
  -5902296.37508  -4599190.55108  23092936.41608  23092940.98608
 -15676050.67708 -12215107.25208  20307604.95608  20307606.18608
 -18784014.14408 -14636892.67708  20450322.48808  20450324.61508
 93 04 07 16 04 00.0000000  0  7 18 25 15 19 14 29 22
 -13514675.00808 -10530917.85808  22122235.18508  22122238.03108
  13689161.02508  10666861.39708  22965545.16208  22965549.37208
  14206167.05108  11069719.27208  23503623.53008  23503629.69008
  -6259267.01108  -4877349.30108  23025007.06308  23025011.63908
 -18095253.99009 -14100202.35409  19257850.19709  19257852.20109
 -15822601.34608 -12329302.64108  20279717.39108  20279718.66208
 -18785342.47308 -14637927.83808  20450069.80908  20450071.98708
 93 04 07 16 06 00.0000000  0  7 18 25 15 19 14 29 22
 -13815878.26808 -10765621.68808  22064918.07308  22064920.96908
  14034957.58908  10936312.65008  23031348.51208  23031352.91108
  14566030.18708  11350131.26608  23572103.76308  23572110.19208
  -6611707.29508  -5151977.94208  22957939.73108  22957944.33508
 -18093182.20509 -14098588.09109  19258244.46609  19258246.51009
 -15965793.69208 -12440881.15608  20252468.79308  20252470.12808
 -18775801.23308 -14630493.20408  20451885.51708  20451887.71908
 93 04 07 16 08 00.0000000  0  7 18 25 15 19 14 29 22
 -14115266.84808 -10998911.48908  22007946.30008  22007949.15008
  14382214.47108  11206901.79508  23097429.81708  23097434.27708
  14925734.61008  11630419.56008  23640553.85808  23640560.47108
  -6959479.34708  -5422969.01508  22891760.75508  22891765.48108
 -18080721.60609 -14088878.65209  19260615.78409  19260617.86909
 -16105509.82908 -12549750.95108  20225881.76208  20225883.11508
 -18755442.70608 -14614629.51708  20455759.65608  20455761.89008
 93 04 07 16 14 00.0000000  0  1 14
        -0.66319        -0.69819  19279668.44819  19279670.62919
 93 04 07 16 18 00.0000000  0  7 18 19 25 15 14 29 22
        -0.77818        -0.67118  21728120.42118  21728123.43618
        -0.61518        -0.67218  22573936.52018  22573941.22218
         0.16918        -0.25817  23430686.59218  23430691.90117
        -0.88517        -0.47718  23980845.46017  23980853.24718
        -0.91219        -0.47419  19302150.24419  19302152.48619
        -0.01118        -0.18618  20102368.86218  20102370.34518
         0.43418         0.04718  20505527.36318  20505529.74318
 93 04 07 16 20 00.0000000  0  7 18 19 25 15 14 29 22
   -288947.11708   -225153.67508  21673135.75208  21673138.73908
   -320519.40108   -249755.42008  22512943.86308  22512948.23408
    352277.12307    274500.55807  23497723.22207  23497728.76307
    354080.18707    275905.73907  24048225.69007  24048233.64807
     74456.52809     58018.16009  19316319.21209  19316321.49109
   -119889.70208    -93420.82108  20079554.76608  20079556.27108
     83699.89408     65220.27508  20521454.91108  20521457.33408
 93 04 07 16 22 00.0000000  0  7 18 19 25 15 14 29 22
   -575943.40408   -448787.12908  21618522.17308  21618525.22508
   -636354.03508   -495860.20808  22452842.50808  22452846.76808
    705054.58907    549391.41407  23564855.02307  23564860.79407
    706519.82307    550532.89807  24115293.58007  24115301.73407
    158948.67409    123856.03009  19332397.70109  19332400.04309
   -236388.90808   -184199.51308  20057385.78408  20057387.27808
    177683.95908    138454.46808  20539339.59908  20539342.03808
 93 04 07 16 24 00.0000000  0  7 18 19 25 15 29 14 22
   -861129.80808   -671010.27308  21564253.11408  21564256.12008
   -947442.30108   -738266.53608  22393644.23708  22393648.63808
   1058050.67407    824452.66307  23632028.54107  23632034.48807
   1057120.67307    823727.21207  24182011.66007  24182020.13607
   -349119.78408   -272041.84608  20035933.81308  20035935.39908
    253820.42409    197781.89808  19350451.28809  19350453.69608
    281855.90708    219627.24708  20559162.94208  20559165.49508
 93 04 07 16 26 00.0000000  0  7 18 19 25 15 29 14 22
  -1144428.90108   -891762.80408  21510343.10408  21510346.03508
  -1253931.61308   -977089.28608  22335321.15608  22335325.49608
   1411180.95807   1099618.50507  23699227.45707  23699233.52707
   1405659.04907   1095314.36307  24248336.99707  24248346.03407
   -458399.94508   -357195.31208  20015138.56208  20015140.13608
    358812.27609    279593.54708  19370430.68009  19370433.13008
    396079.98508    308632.85008  20580899.17708  20580901.76408
 93 04 07 16 28 00.0000000  0  7 18 19 25 15 29 14 22
  -1425895.05708  -1111087.10408  21456781.89208  21456784.81008
  -1556247.11408  -1212659.73708  22277792.37908  22277796.76508
   1764399.48507   1374853.18807  23766443.05407  23766449.12707
   1751950.30207   1365150.46607  24314234.96507  24314244.37207
   -564124.75508   -439578.37108  19995019.89808  19995021.45808
    473732.60009    369141.66208  19392299.52809  19392301.97808
    520253.22608    405391.03708  20604528.75608  20604531.34408
 93 04 07 16 30 00.0000000  0  7 18 19 29 14 22 25 15
  -1705591.17008  -1329032.15808  21403557.46708  21403560.42408
  -1854202.00608  -1444832.32508  22221093.40008  22221097.79508
   -666518.79308   -519366.01908  19975535.01508  19975536.61508
    598474.60709    466343.03708  19416037.29509  19416039.79608
    654234.56708    509791.90708  20630024.73508  20630027.35408
   2117601.55207   1650075.09207  23833655.57507  23833661.69507
   2095779.18007   1633067.84607  24379664.49207  24379674.04307
 93 04 07 16 32 00.0000000  0  8 18 19 29 14 22 25 15 28
  -1983493.78308  -1545579.68408  21350674.48608  21350677.43708
  -2147511.30008  -1673384.95908  22165278.44108  22165282.85108
   -765214.97008   -596272.22008  19956753.88508  19956755.50908
    733084.94309    571234.01408  19441652.88509  19441655.41808
    797931.27208    621763.17508  20657369.44308  20657372.11808
   2470635.75007   1925166.29307  23900836.15307  23900842.45907
   2436989.82007   1898945.04007  24444595.69307  24444605.46407
        -0.87618        -0.81917  24538929.65018  24538940.30017
 93 04 07 16 36 00.0000000  0  8 18 19 29 28 14 25 15 22
         0.36618         0.40118  21245985.03318  21245987.95718
         0.05718        -0.20118  22056164.40518  22056168.77418
        -0.29818        -0.98418  19921238.89018  19921240.58718
        -0.52918        -0.82818  24436495.29718  24436505.74518
        -0.38319        -0.40318  19498436.99019  19498439.61818
        -0.20917        -0.43217  24035052.73017  24035059.27817
         0.30117        -0.08017  24572829.60617  24572840.01717
        -0.10618        -0.68018  20717511.12418  20717513.83618
 93 04 07 16 40 00.0000000  0  7 18 19 28 29 14 22 25
        -0.40618        -0.77318  21142732.70318  21142735.69818
        -0.06918        -0.26318  21950338.10318  21950342.39618
        -0.37818        -0.55618  24334000.35818  24334010.57218
        -0.57318        -0.23718  19888514.43318  19888516.15918
        -0.27019        -0.51518  19562371.69419  19562374.41518
         0.46618        -0.11718  20784721.69718  20784724.60218
        -0.94117        -0.59417  24168921.95517  24168928.59717
 93 04 07 16 42 00.0000000  0  7 18 19 28 29 14 22 25
   -268584.40908   -209287.03508  21091622.90608  21091625.90808
   -271334.74508   -211429.84708  21898704.86108  21898709.15508
   -269178.52708   -209749.33808  24282777.18008  24282787.23408
    -80293.99908    -62566.65408  19873235.18008  19873236.93508
    182158.94809    141941.49208  19597035.63409  19597038.38208
    190161.59108    148177.12708  20820908.32708  20820911.29108
    351156.53707    273628.79207  24235744.87907  24235751.41107
 93 04 07 16 46 00.0000000  0  6 19 28 29 18 14 22
        -0.84318        -0.85718  21797771.45118  21797775.81618
        -0.38018         0.44818  24180529.21818  24180538.81718
         0.32618        -0.15218  19844810.70918  19844812.49218
        -0.36018        -0.02918  20990539.76918  20990542.77218
        -0.22218         0.35618  19671563.86018  19671566.83418
         0.27318         0.17418  20898297.88718  20898301.03418
 93 04 07 16 48 00.0000000  0  6 19 28 18 29 14 22
   -259112.16508   -201905.78208  21748464.25008  21748468.61908
   -268015.05708   -208841.55708  24129527.23408  24129536.79308
   -262520.59708   -204561.27908  20940583.88608  20940586.87008
    -69056.55008    -53810.82108  19831669.65908  19831671.52108
    209277.97909    163074.02408  19711388.41309  19711391.40108
    216139.18308    168419.83108  20939427.98408  20939431.17508
 93 04 07 16 50 00.0000000  0  6 19 22 28 18 29 14
   -513726.07908   -400306.20608  21700012.86708  21700017.16908
    440598.30208    343322.76308  20982141.38308  20982144.58008
   -535139.61308   -416989.86008  24078694.50508  24078703.88008
   -522814.04508   -407387.36208  20891051.68808  20891054.68708
   -134191.07308   -104565.10508  19819275.08708  19819276.97008
    427041.75509    332759.81908  19752827.71709  19752830.72308
 93 04 07 16 52 00.0000000  0  6 19 22 28 18 29 14
   -764460.42008   -595683.58408  21652299.66608  21652303.99708
    673233.63608    524596.76008  21026410.66008  21026413.90008
   -801474.61508   -624522.86108  24028012.23308  24028021.35008
   -780960.90908   -608540.79208  20841928.01008  20841930.98808
   -195139.65808   -152057.62108  19807677.05408  19807678.93908
    653452.67309    509183.63308  19795912.45609  19795915.54908
 93 04 07 16 54 00.0000000  0  6 19 22 28 18 29 14
  -1011225.11808   -787967.75508  21605342.03408  21605346.26008
    913891.65808    712122.19208  21072206.57208  21072209.95808
  -1067029.19308   -831447.89608  23977478.33608  23977487.23708
  -1037343.79608   -808319.68608  20793139.95808  20793142.98908
   -252315.35508   -196610.23408  19796796.99408  19796798.89708
    888740.11308    692524.20308  19840686.40008  19840689.55208
 93 04 07 16 56 00.0000000  0  6 19 22 28 18 29 14
  -1253685.75508   -976898.15608  21559203.35208  21559207.58108
   1162375.47408    905745.62408  21119491.69508  21119495.19908
  -1331530.30308  -1037552.04608  23927145.08608  23927153.78108
  -1291238.18608  -1006159.48608  20744825.47108  20744828.51508
   -305391.42608   -237968.34008  19786697.05608  19786699.00808
   1132329.81408    882334.06608  19887040.14208  19887043.34608
 93 04 07 16 58 00.0000000  0  6 19 22 28 18 29 14
  -1491932.34308  -1162544.84108  21513866.53808  21513870.74608
   1418549.87508   1105361.71208  21168240.35508  21168243.86408
  -1594455.46208  -1242428.42408  23877111.66908  23877120.39808
  -1542724.38708  -1202122.78008  20696969.23008  20696972.28608
   -354386.48708   -276146.44508  19777373.69608  19777375.74608
   1383866.72208   1078336.55208  19934906.27608  19934909.60908
 93 04 07 17 00 00.0000000  0  6 19 22 28 18 29 14
  -1726146.68908  -1345049.52308  21469296.98508  21469301.21708
   1682243.31508   1310836.79408  21218419.81308  21218423.38708
  -1855827.85908  -1446094.77808  23827373.78508  23827382.43108
  -1792101.00508  -1396442.26008  20649514.49708  20649517.56108
   -399237.50308   -311095.42208  19768838.94308  19768841.01708
   1643299.63608   1280491.71008  19984275.02508  19984278.44008
 93 04 07 17 02 00.0000000  0  6 19 22 28 18 29 14
  -1956885.93208  -1524846.32808  21425388.74008  21425392.96608
   1953281.76208   1522035.26508  21269996.97308  21270000.63908
  -2115921.89808  -1648764.97508  23777879.18208  23777887.74008
  -2038903.37508  -1588755.82708  20602549.52508  20602552.59608
   -439649.24408   -342585.22408  19761148.93308  19761151.04108
   1910813.67308   1488943.85208  20035181.57808  20035185.01708
 93 04 07 17 04 00.0000000  0  6 19 22 28 18 29 14
  -2183657.52108  -1701551.42908  21382235.49208  21382239.70208
   2231502.56208   1738830.37108  21322940.86408  21322944.64608
  -2373870.82408  -1849763.66108  23728792.71208  23728801.21708
  -2283280.95508  -1779179.94208  20556046.05808  20556049.21508
   -476065.17808   -370961.40308  19754219.34108  19754221.47308
   2186189.15708   1703521.81908  20087584.01608  20087587.58308
 93 04 07 17 08 00.0000000  0  7 19 22 28 27 18 29 14
         0.13918        -0.08618  21298314.78618  21298319.02018
         0.43218         0.41418  21432814.23018  21432818.22418
        -0.59318        -0.94518  23631795.39218  23631803.52818
         0.04217        -0.16217  24449738.85617  24449746.63317
        -0.93318        -0.54118  20464571.81618  20464574.94918
        -0.03818        -0.03718  19742989.73818  19742991.96318
         0.09818         0.42818  20196677.73818  20196681.50218
 93 04 07 17 10 00.0000000  0  7 19 22 28 27 18 29 14
   -214885.58708   -167443.46208  21257423.31708  21257427.49608
    298792.76308    232825.23408  21489672.77808  21489676.89408
   -251570.35508   -196028.93208  23583922.79508  23583930.96108
   -322973.42907   -251667.39207  24388278.70207  24388286.47007
   -236285.50908   -184118.42708  20419608.43408  20419611.55708
    -22820.41608    -17782.28008  19738647.29308  19738649.49908
    297910.83108    232138.31208  20253368.47308  20253372.27508
 93 04 07 17 12 00.0000000  0  7 19 22 28 27 18 29 14
   -425901.76508   -331871.63908  21217268.28808  21217272.45508
    604068.94008    470702.38608  21547765.24708  21547769.43008
   -500478.55508   -389982.96708  23536556.83008  23536564.91808
   -644395.24007   -502125.64207  24327113.97107  24327121.58007
   -470018.85608   -366248.35108  20375130.43808  20375133.62508
    -41192.09608    -32098.01208  19735151.41308  19735153.60808
    602813.19608    469724.19108  20311389.81008  20311393.74108
 93 04 07 17 14 00.0000000  0  7 19 22 28 27 18 29 14
   -632948.41008   -493206.71408  21177868.64508  21177872.85408
    915686.53908    713520.90208  21607064.38008  21607068.65508
   -746533.89608   -581714.03108  23489733.70108  23489741.70808
   -964047.94807   -751205.49607  24266286.15107  24266293.46807
   -700739.70808   -546030.87008  20331225.71008  20331228.97108
    -54453.87708    -42432.00308  19732627.86508  19732630.12708
    914644.07008    712708.86908  20370729.60508  20370733.65908
 93 04 07 17 16 00.0000000  0  7 19 22 28 27 18 29 14
   -836045.37808   -651464.09108  21139220.53708  21139224.73708
   1233433.92008    961115.87308  21667530.03608  21667534.38208
   -989767.54408   -771246.39108  23443447.74208  23443455.65508
  -1281917.81807   -998896.20807  24205797.43807  24205804.61207
   -928082.89308   -723181.43508  20287963.81408  20287967.05008
    -63222.48308    -49264.81608  19730959.34608  19730961.68608
   1233206.07708    960938.62908  20431350.19008  20431354.32008
 93 04 07 17 18 00.0000000  0  7 19 22 28 27 18 29 14
  -1035928.62008   -807217.33708  21101184.18108  21101188.35408
   1557083.26908   1213309.77608  21729118.75208  21729123.24508
  -1230157.88408   -958563.21708  23397702.84808  23397710.58208
  -1598491.92907  -1245577.27807  24145555.36507  24145562.56507
  -1152428.53208   -897996.24708  20245272.32008  20245275.55008
    -67199.87008    -52364.21608  19730202.59708  19730204.96208
   1558578.31108   1214475.07108  20493266.77108  20493270.97608
 93 04 07 17 20 00.0000000  0  7 19 22 28 27 18 29 14
  -1232041.93308   -960033.02508  21063865.16308  21063869.32508
   1886482.84908   1469984.36208  21791801.71408  21791806.33508
  -1467614.31708  -1143593.88408  23352516.17008  23352523.92408
  -1913190.63707  -1490797.01007  24085670.19307  24085677.32707
  -1373697.01408  -1070413.27208  20203166.33008  20203169.61008
    -66299.12708    -51662.47608  19730374.15908  19730376.50808
   1890289.76108   1472951.09008  20556389.74208  20556394.04208
 93 04 07 17 22 00.0000000  0  7 19 22 28 27 18 29 14
  -1424376.90008  -1109904.52608  21027265.11008  21027269.35408
   2221437.63908   1730987.67008  21855541.82408  21855546.55608
  -1701286.17408  -1325675.50908  23308049.55808  23308057.20908
  -2226142.07607  -1734655.19107  24026117.47407  24026124.72607
  -1591649.16408  -1240246.15508  20161691.41008  20161694.68108
    -60473.86608    -47123.44508  19731482.76708  19731485.16708
   2228208.32608   1736263.82508  20620693.79908  20620698.25108
 93 04 07 17 24 00.0000000  0  7 22 28 27 19 18 29 14
   2561771.98308   1996182.82208  21920305.57908  21920310.41108
  -1931471.19308  -1505040.10408  23264246.47908  23264254.04308
  -2537676.05907  -1977408.78707  23966834.31507  23966841.74607
  -1613035.74808  -1256911.47908  20991364.58308  20991368.84808
  -1806174.98308  -1407409.17608  20120868.62508  20120871.83208
    -49906.70308    -38889.43208  19733493.71708  19733496.14208
   2572280.36208   2004371.35608  20686168.93508  20686173.49108
 93 04 07 17 26 00.0000000  0  7 22 28 27 19 18 29 14
   2907304.14308   2265428.21208  21986058.48708  21986063.39508
  -2158151.83008  -1681674.01208  23221110.28808  23221117.95908
  -2847579.70007  -2218891.98108  23907861.44207  23907868.90408
  -1798219.24108  -1401210.33508  20956125.42008  20956129.65008
  -2017404.20608  -1572003.41508  20080673.09508  20080676.27608
    -34151.89508    -26613.10208  19736491.86708  19736494.32808
   2922270.51908   2277090.48908  20752770.29008  20752774.91608
 93 04 07 17 28 00.0000000  0  7 22 28 27 19 18 29 14
   3257837.54408   2538570.66708  22052763.16408  22052768.14008
  -2380971.26308  -1855299.20908  23178708.94708  23178716.40608
  -3155818.75108  -2459078.13708  23849205.43708  23849212.74008
  -1980018.51408  -1542872.09808  20921530.16308  20921534.33908
  -2225447.16808  -1734114.83908  20041083.83208  20041087.06708
    -13395.90708    -10439.75808  19740441.72108  19740444.22208
   3277830.70508   2554149.86908  20820431.47208  20820436.19908
 93 04 07 17 30 00.0000000  0  7 22 27 28 19 18 29 14
   3613149.12108   2815436.34508  22120377.14308  22120382.21208
  -3462669.77508  -2698182.78608  23790813.62908  23790820.97908
  -2599558.59308  -2025626.66508  23137113.13908  23137120.39608
  -2158311.78908  -1681801.91508  20887602.04408  20887606.24808
  -2429611.67708  -1893204.09608  20002232.66508  20002235.90508
     12638.81708      9846.89408  19745396.05708  19745398.63908
   3638725.09708   2835365.72908  20889107.82908  20889112.64208
 93 04 07 17 32 00.0000000  0  7 14 22 28 27 19 18 29
   4005006.53308   3120779.19108  20958809.35308  20958814.33608
   3973009.99708   3095846.91708  22188856.81708  22188861.87908
  -2813878.94908  -2192629.23808  23096329.10408  23096336.25708
  -3767950.24608  -2936063.69108  23732720.60008  23732728.00008
  -2333017.02908  -1817935.86108  20854356.76608  20854361.02508
  -2629914.18508  -2049284.00408  19964116.38408  19964119.62708
     44000.11408     34284.14008  19751364.04808  19751366.64108
 93 04 07 17 34 00.0000000  0  7 14 22 27 28 19 18 29
   4376484.68408   3410242.06108  21029499.78808  21029504.87508
   4337263.70508   3379680.45008  22258172.39208  22258177.63908
  -4071638.49908  -3172703.94108  23674930.81708  23674938.16108
  -3024207.40708  -2356521.27508  23056304.62608  23056311.74008
  -2504448.29508  -1951518.71608  20821734.52908  20821738.78608
  -2826383.22208  -2202376.80008  19926729.59308  19926732.89408
     80476.01908     62706.81408  19758305.29208  19758307.88408
 93 04 07 17 36 00.0000000  0  7 14 22 27 28 19 18 29
   4752739.36308   3703426.90908  21101099.12508  21101104.37108
   4705733.45508   3666799.20608  22328290.20108  22328295.64408
  -4374042.96608  -3408343.90108  23617385.33408  23617392.59508
  -3230031.91208  -2516903.77008  23017137.37508  23017144.39208
  -2672693.84008  -2082619.15008  20789718.37408  20789722.64208
  -3019049.40609  -2352506.31708  19890066.50709  19890069.77308
    122252.97308     95260.17208  19766255.26408  19766257.87108
 93 04 07 17 38 00.0000000  0  7 14 27 28 22 19 18 29
   5133730.67508   4000302.62808  21173599.85808  21173605.30408
  -4674705.16708  -3642626.22008  23560171.21308  23560178.51308
  -3430866.44108  -2673397.98408  22978919.65108  22978926.58008
   5078244.60708   3957067.09408  22399177.12508  22399182.70508
  -2837532.81308  -2211065.11408  20758350.66208  20758354.90808
  -3207700.04009  -2499506.83308  19854167.52509  19854170.75208
    169436.77608    132026.63808  19775234.13508  19775236.78508
 93 04 07 17 40 00.0000000  0  7 14 27 28 22 19 18 29
   5519180.73608   4300652.67408  21246949.01108  21246954.65108
  -4974069.78108  -3875897.35008  23503204.09808  23503211.33908
  -3627115.20808  -2826318.89208  22941574.58508  22941581.45708
   5454632.97008   4250356.14208  22470801.89108  22470807.62908
  -2998983.05308  -2336870.51808  20727627.69408  20727631.91508
  -3392235.19709  -2643300.48308  19819051.60509  19819054.84508
    221737.75608    172780.50508  19785186.76708  19785189.49508
 93 04 07 17 42 00.0000000  0  7 14 27 28 22 19 18 29
   5908880.91708   4604314.47908  21321107.08208  21321112.81908
  -5271819.21308  -4107909.85208  23446544.10608  23446551.51708
  -3818399.80408  -2975371.62808  22905174.03008  22905181.01808
   5834660.03708   4546480.49708  22543119.04608  22543124.98508
  -3157510.17908  -2460398.17108  20697461.06808  20697465.33408
  -3572639.52809  -2783875.32608  19784721.85409  19784725.07008
    279667.15608    217920.15008  19796210.51908  19796213.22008
 93 04 07 17 44 00.0000000  0  7 14 27 28 22 19 18 29
   6302893.32308   4911336.44708  21396085.71208  21396091.58908
  -5568202.40208  -4338857.76608  23390144.25508  23390151.71008
  -4004446.24808  -3120342.72608  22869770.60008  22869777.49808
   6218182.26508   4845328.34708  22616101.47408  22616107.56408
  -3313052.31508  -2581599.85008  20667862.36308  20667866.68108
  -3748792.67009  -2921137.56808  19751201.05009  19751204.30208
    343455.07908    267624.86908  19808349.09308  19808351.80508
 93 04 07 17 46 00.0000000  0  7 14 27 28 22 19 18 29
   6700532.04908   5221184.09508  21471754.38908  21471760.40108
  -5863275.68108  -4568784.99708  23333993.79308  23334001.07408
  -4185330.25608  -3261291.16908  22835349.41308  22835356.25908
   6604984.03308   5146731.65608  22689707.83708  22689714.13908
  -3465196.75808  -2700153.99608  20638910.23508  20638914.55008
  -3920280.39109  -3054764.41308  19718568.06709  19718571.34608
    412501.10108    321426.79808  19821488.24108  19821491.02608
 93 04 07 17 48 00.0000000  0  7 14 27 28 22 19 18 29
   7101793.04508   5533854.27308  21548112.28408  21548118.55008
  -6156745.92908  -4797463.10408  23278148.17408  23278155.46808
  -4360778.80408  -3398004.18708  22801962.55808  22801969.38208
   6994834.76308   5450510.77808  22763894.45408  22763900.91608
  -3614243.06808  -2816293.99208  20610547.72408  20610551.99508
  -4087313.39209  -3184920.04508  19686782.74809  19686786.04608
    486976.28208    379459.23608  19835660.50408  19835663.35108
 93 04 07 17 50 00.0000000  0  7 14 27 28 22 19 18 29
   7506753.22608   5849406.91408  21625174.16508  21625180.70408
  -6448618.86408  -5024896.51108  23222606.54708  23222613.94208
  -4530640.32708  -3530363.65708  22769638.91108  22769645.64608
   7387579.16508   5756544.69408  22838631.73408  22838638.44608
  -3760267.30608  -2930079.10408  20582760.26708  20582764.53608
  -4250157.36109  -3311811.50008  19655794.63809  19655797.95808
    567081.28908    441878.54108  19850904.10408  19850907.01708
 93 04 07 17 52 00.0000000  0  7 14 27 28 22 19 18 29
   7915106.03708   6167603.14808  21702881.69008  21702888.39508
  -6739401.82308  -5251480.56108  23167272.31908  23167279.72508
  -4694990.56008  -3658428.58608  22738363.95008  22738370.65308
   7783090.17508   6064734.41208  22913895.46108  22913902.31908
  -3903431.15808  -3041635.36108  20555517.07908  20555521.35508
  -4408109.52909  -3434891.15208  19625737.40209  19625740.72208
    653181.22908    508969.20908  19867288.51508  19867291.48908
 93 04 07 17 54 00.0000000  0  7 14 27 28 22 19 18 29
   8326335.17308   6488040.63708  21781136.60008  21781143.56908
  -7028892.64608  -5477057.74808  23112183.98908  23112191.35008
  -4853205.19908  -3781712.52908  22708256.64108  22708263.31508
   8181157.87508   6374916.33408  22989645.67608  22989652.82908
  -4043796.94808  -3151011.32808  20528806.40108  20528810.69608
  -4560885.78609  -3553937.63008  19596665.08609  19596668.43108
    744769.11208    580336.18708  19884717.27308  19884720.32308
 93 04 07 17 56 00.0000000  0  7 14 27 28 22 19 18 29
   8740564.88008   6810816.20308  21859962.53408  21859969.66408
  -7317189.48208  -5701704.59208  23057322.87908  23057330.22108
  -5005505.88008  -3900388.20808  22679274.56508  22679281.26008
   8581639.25508   6686979.05408  23065855.28208  23065862.60408
  -4181231.35708  -3258103.08708  20502653.47208  20502657.82708
  -4708902.61509  -3669275.46908  19568498.45409  19568501.83108
    842257.38808    656300.86708  19903268.81908  19903271.93408
 93 04 07 17 58 00.0000000  0  7 14 27 28 22 19 18 29
   9157522.48208   7135717.35908  21939307.65508  21939314.97208
  -7603691.66608  -5924953.03708  23002803.46408  23002810.70508
  -5151699.09908  -4014304.85608  22651454.76308  22651461.39608
   8984299.23108   7000739.38908  23142479.49808  23142486.89208
  -4315827.47609  -3362983.20008  20477040.74209  20477045.03608
  -4851916.50909  -3780714.90708  19541283.84209  19541287.22508
    945382.20108    736657.64608  19922892.98308  19922896.13608
 93 04 07 18 00 00.0000000  0  7 27 28 14 22 19 18 29
  -7888898.34508  -6147191.97308  22948530.49108  22948537.59608
  -5291510.28308  -4123248.51308  22624849.51408  22624856.01908
   9576796.83408   7462423.73208  22019093.61808  22019101.10408
   9389076.93408   7316149.91708  23219506.61308  23219514.12608
  -4447423.85009  -3465525.85208  20451998.77009  20452003.07508
  -4989536.54909  -3887951.33008  19515095.63109  19515099.00808
   1054732.99608    821865.82208  19943701.94508  19943705.09908
 93 04 07 18 02 00.0000000  0  7 27 28 14 22 19 18 29
  -8173256.67108  -6368769.80608  22894418.83608  22894425.82108
  -5424903.33908  -4227191.07708  22599465.72508  22599472.09908
   9998356.66708   7790910.96308  22099314.52008  22099322.25908
   9795782.01908   7633062.30308  23296900.50208  23296908.25408
  -4576415.58309  -3566038.85908  20427452.46409  20427456.78008
  -5121911.75909  -3991100.88008  19489905.49109  19489908.86908
   1169819.22608    911543.17608  19965602.30908  19965605.51308
 93 04 07 18 04 00.0000000  0  7 27 28 14 22 19 18 29
  -8455934.88408  -6589038.42008  22840626.79808  22840633.85508
  -5551463.44808  -4325809.28708  22575382.10808  22575388.40908
  10422074.61108   8121079.80708  22179946.13208  22179954.11208
  10204244.96008   7951344.46108  23374629.02708  23374636.79508
  -4702614.66609  -3664375.79308  20403437.61209  20403441.90408
  -5249309.13409  -4090371.59508  19465662.62209  19465666.01308
   1290699.16708   1005735.10508  19988605.14108  19988608.48208
 93 04 07 18 06 00.0000000  0  7 27 28 14 22 19 18 29
  -8737486.90608  -6808429.46908  22787049.03908  22787056.18208
  -5671469.31008  -4419320.27208  22552545.68408  22552552.05508
  10847912.33108   8452900.37608  22260981.06908  22260989.36508
  10614278.96907   8270850.83908  23452656.36207  23452664.38108
  -4826014.19809  -3760531.29208  20379955.46409  20379959.69508
  -5370921.63209  -4185134.61108  19442520.52709  19442523.95008
   1417533.37008   1104566.72708  20012741.01708  20012744.46508
 93 04 07 18 08 00.0000000  0  7 27 19 18 29 28 14 22
  -9017746.09508  -7026813.05908  22733717.42608  22733724.45108
  -4946524.92909  -3854435.78608  20357023.02209  20357027.32708
  -5486794.67209  -4275425.34308  19420470.66209  19420474.10208
   1550363.04508   1208070.13608  20038017.86208  20038021.34008
  -5784683.95308  -4507539.40008  22531001.57008  22531008.12808
  11275350.40808   8785967.94408  22342320.66008  22342329.22308
  11025687.38507   8591428.20608  23530945.23707  23530953.38408
 93 04 07 18 10 00.0000000  0  8 27 19 18 29 28 14 22 11
  -9296717.45508  -7244193.07908  22680630.74008  22680637.79308
  -5064663.62809  -3946491.95308  20334541.97509  20334546.37008
  -5597223.02909  -4361473.48509  19399456.91509  19399460.37309
   1689306.68408   1316337.66608  20064458.09808  20064461.66808
  -5891066.31608  -4590434.67508  22510757.57908  22510764.20108
  11704394.72608   9120287.06908  22423965.92808  22423974.72008
  11438314.27207   8912955.06407  23609466.13407  23609474.24607
        -0.76617        -0.07217  24447741.85117  24447758.21317
 93 04 07 18 12 00.0000000  0  8 27 19 18 29 28 14 22 11
  -9574370.29108  -7460545.67108  22627794.91608  22627802.00108
  -5180367.28309  -4036650.71508  20312524.32409  20312528.79408
  -5701738.77909  -4442914.39709  19379568.30609  19379571.75109
   1834004.70308   1429089.11108  20091993.48508  20091997.11308
  -5990540.63508  -4667947.07508  22491828.11908  22491834.74908
  12134698.27708   9455587.37208  22505850.86708  22505859.83308
  11852008.96207   9235314.04307  23688190.02707  23688198.23207
   -330237.01408   -257325.80307  24384899.06608  24384915.19507
 93 04 07 18 14 00.0000000  0  8 27 19 18 29 28 14 22 11
  -9850778.64108  -7675928.58208  22575196.02108  22575203.00608
  -5293332.24209  -4124675.42508  20291027.91909  20291032.33908
  -5800169.94909  -4519614.06609  19360837.50509  19360840.99209
   1984762.89508   1546562.74508  20120682.02708  20120685.68908
  -6082667.45608  -4739734.15008  22474296.91608  22474303.54208
  12565905.78308   9791592.01508  22587907.81508  22587917.11508
  12266651.98407   9558412.02607  23767094.47107  23767102.65907
   -661330.28808   -515319.13507  24321893.06008  24321908.80807
 93 04 07 18 16 00.0000000  0  8 27 19 18 29 28 14 22 11
 -10125956.34808  -7890352.59008  22522831.23108  22522838.19708
  -5403706.91509  -4210681.68508  20270024.33609  20270028.77908
  -5892653.99409  -4591679.59809  19343238.41909  19343241.88609
   2141398.24708   1668615.97908  20150488.96208  20150492.66708
  -6167573.59308  -4805894.72808  22458139.83008  22458146.43808
  12998284.79908  10128509.47308  22670187.76008  22670197.39908
  12682080.37407   9882122.05307  23846148.10707  23846156.49307
   -993089.17108   -773831.09108  24258760.42108  24258775.82508
 93 04 07 18 18 00.0000000  0  8 27 18 19 29 28 14 22 11
 -10400209.38708  -8104056.09508  22470642.50408  22470649.42108
  -5979444.67609  -4659308.75309  19326722.72809  19326726.21209
  -5511433.07909  -4294624.17908  20249524.70809  20249529.16208
   2304361.80708   1795600.26908  20181500.14508  20181503.89608
  -6245401.76608  -4866540.01108  22443329.44708  22443336.15208
  13431369.77808  10465976.98608  22752601.98608  22752611.95708
  13098160.70407  10206340.16607  23925325.90007  23925334.20907
  -1325291.07808  -1032688.39408  24195543.51408  24195558.58708
 93 04 07 18 20 00.0000000  0  7 27 19 18 29 28 14 11
 -10673339.48408  -8316884.55508  22418667.47908  22418674.27708
  -5616813.40109  -4376738.75708  20229471.54309  20229475.95408
  -6059563.79409  -4721739.29609  19311476.63009  19311480.08809
   2473293.87908   1927235.34108  20213647.10508  20213650.93008
  -6315528.75708  -4921184.39508  22429984.75508  22429991.40208
  13864995.45408  10803865.77308  22835119.19908  22835129.56008
  -1657697.56208  -1291705.19908  24132287.63108  24132302.46308
 93 04 07 18 22 00.0000000  0  8 27 18 19 29 28 14 02 11
 -10944956.61008  -8528534.04708  22366980.30708  22366987.08708
  -6133248.84109  -4779156.29309  19297454.91209  19297458.38709
  -5719622.42609  -4456849.70708  20209907.70009  20209912.11508
   2648267.02108   2063577.72208  20246943.61808  20246947.54608
  -6377835.48308  -4969735.08608  22418128.27908  22418134.78608
  14299372.39608  11142339.88808  22917779.37608  22917790.14508
        -0.12617        -0.27817  24297263.96617  24297275.69117
  -1990090.94508  -1550711.79208  24069034.30608  24069048.93808
 93 04 07 18 24 00.0000000  0  8 27 18 19 29 28 14 02 11
 -11215436.59808  -8739297.47408  22315509.54508  22315516.29808
  -6200537.01109  -4831588.69809  19284650.44509  19284653.91009
  -5820164.05109  -4535193.86408  20190775.27409  20190779.75208
   2829554.68508   2204840.50708  20281441.76908  20281445.78708
  -6432582.33308  -5012395.00008  22407710.22108  22407716.79208
  14733804.86608  11480857.20208  23000450.25008  23000461.37008
   -399059.04007   -310955.07007  24221325.32407  24221337.23307
  -2322300.96408  -1809575.52408  24005816.09308  24005830.23208
 93 04 07 18 26 00.0000000  0  8 27 18 19 29 28 14 02 11
 -11484689.01608  -8949104.37008  22264272.38208  22264279.09208
  -6261670.43709  -4879225.20009  19273017.19009  19273020.67209
  -5918293.83009  -4611658.65908  20172101.75909  20172106.29508
   3016823.18708   2350763.66908  20317078.08508  20317082.12408
  -6479625.82208  -5049052.31008  22398758.18208  22398764.82008
  15168391.04808  11819494.20208  23083150.52608  23083161.92108
   -796572.07207   -620705.14107  24145680.87207  24145692.74207
  -2654105.87608  -2068123.65908  23942674.82908  23942688.61608
 93 04 07 18 28 00.0000000  0  8 27 18 19 29 28 14 02 11
 -11752567.85608  -9157840.95008  22213296.62608  22213303.28608
  -6316147.36509  -4921674.81809  19262650.64809  19262654.13209
  -6013807.68809  -4686085.08708  20153926.15409  20153930.67408
   3209902.19108   2501214.48508  20353820.04508  20353824.21408
  -6518831.38408  -5079602.16108  22391297.77808  22391304.36308
  15602708.30908  12157921.59008  23165799.64308  23165811.38308
  -1192551.15607   -929259.91707  24070328.19707  24070339.99507
  -2985265.65608  -2326169.12508  23879656.41608  23879669.92908
 93 04 07 18 30 00.0000000  0  8 27 18 19 29 28 14 02 11
 -12019190.15108  -9365598.43108  22162559.96808  22162566.57608
  -6363724.85909  -4958748.25709  19253597.00209  19253600.48909
  -6107049.29209  -4758740.91808  20136182.98609  20136187.44508
   3409250.39108   2656550.37408  20391755.02308  20391759.24208
  -6550254.58308  -5104087.85208  22385318.16008  22385324.77008
  16036765.66908  12496146.34508  23248399.34508  23248411.47908
  -1587144.45207  -1236734.91407  23995239.39907  23995251.09307
  -3315597.61408  -2583569.54708  23816795.56108  23816808.71908
 93 04 07 18 32 00.0000000  0  8 27 18 19 29 28 14 02 11
 -12285140.28008  -9572832.15508  22111951.25908  22111957.86708
  -6404434.27709  -4990469.96309  19245850.31309  19245853.81509
  -6197634.23409  -4829326.63308  20118945.23909  20118949.70708
   3614676.16708   2816622.01408  20430846.59608  20430850.80208
  -6573651.39008  -5122319.23508  22380865.86208  22380872.42408
  16470324.09408  12833982.22108  23330904.16108  23330916.70708
  -1980081.12608  -1542919.05408  23920466.01908  23920477.46508
  -3644800.42308  -2840090.19108  23754149.50708  23754162.44408
 93 04 07 18 34 00.0000000  0  8 27 28 19 18 29 14 02 11
 -12549734.00708  -9779008.97108  22061600.63108  22061607.15608
  -6588868.66508  -5134176.95708  22377970.29608  22377976.93308
  -6285833.52109  -4898053.38208  20102161.47609  20102166.00308
  -6438157.70609  -5016748.04909  19239433.09509  19239436.61709
   3826154.07408   2981409.58108  20471089.84808  20471094.15408
  16903364.56908  13171414.35008  23413310.51408  23413323.61208
  -2371080.61108  -1847593.64408  23846060.99408  23846072.44808
  -3972612.19908  -3095527.07808  23691768.32008  23691781.06108
 93 04 07 18 36 00.0000000  0  8 27 28 18 19 29 14 02 11
 -12812586.54008  -9983828.95108  22011581.33808  22011587.77808
  -6596084.28108  -5139799.63008  22376597.26708  22376603.99608
  -6464927.65809  -5037607.85809  19234338.97409  19234342.54109
  -6371733.92809  -4964988.79708  20085815.21709  20085819.66608
   4043923.05408   3151099.25908  20512530.20108  20512534.64708
  17335629.54608  13508242.03308  23495569.56508  23495583.05808
  -2760011.39408  -2150656.24208  23772049.70108  23772061.12608
  -4298820.74608  -3349714.71408  23629692.21008  23629704.84608
 93 04 07 18 38 00.0000000  0  8 27 28 18 19 29 14 02 11
 -13074290.94308 -10187754.18608  21961780.45708  21961786.85008
  -6594945.13908  -5138912.11308  22376814.15108  22376820.93308
  -6484583.76809  -5052924.42109  19230598.59809  19230602.19809
  -6455363.87109  -5030154.99208  20069901.00809  20069905.48108
   4267653.40708   3325434.15908  20555104.96808  20555109.55608
  17767167.80108  13844503.33208  23577690.28208  23577704.40608
  -3146749.32308  -2452010.08308  23698455.72508  23698466.91708
  -4623178.69108  -3602460.35308  23567968.38308  23567980.82908
 93 04 07 18 40 00.0000000  0  8 27 28 18 19 29 14 02 11
 -13335000.36408 -10390904.09908  21912168.84308  21912175.23008
  -6585365.89908  -5131447.92608  22378637.03208  22378643.86608
  -6496975.84809  -5062580.69709  19228240.59009  19228244.19909
  -6536535.62009  -5093405.74308  20054454.53309  20054459.09808
   4497410.34308   3504465.07808  20598826.63208  20598831.33808
  18197695.94408  14179977.45008  23659618.81908  23659633.55408
  -3531462.72208  -2751786.34808  23625246.86508  23625258.04008
  -4945427.63208  -3853562.62408  23506645.85408  23506658.13308
 93 04 07 18 42 00.0000000  0  8 27 28 18 19 29 14 02 11
 -13594393.75808 -10593028.44608  21862807.68008  21862813.94408
  -6567541.70608  -5117559.08808  22382028.98408  22382035.90108
  -6502039.23109  -5066526.30109  19227277.12309  19227280.76309
  -6615201.66009  -5154704.00708  20039484.79609  20039489.37408
   4733010.14208   3688048.85608  20643660.13408  20643664.98508
  18626904.64608  14514423.37608  23741296.38208  23741311.75508
  -3913937.12308  -3049817.76708  23552463.93908  23552474.95708
  -5265373.82008  -4102870.62608  23445761.41908  23445773.62508
 93 04 07 18 44 00.0000000  0  8 27 28 18 19 29 14 02 11
 -13852540.43408 -10794181.47208  21813683.79908  21813689.98308
  -6541320.44808  -5097127.08008  22387018.95108  22387025.84508
  -6499803.24509  -5064784.08609  19227702.71709  19227706.35609
  -6691435.12509  -5214106.76108  20024978.14609  20024982.73608
   4974720.25908   3876393.92808  20689656.38808  20689661.36908
  19054765.21108  14847818.78008  23822717.34008  23822733.40408
  -4293862.75908  -3345863.02408  23480166.00308  23480176.81908
  -5582793.10908  -4350209.54408  23385357.93508  23385369.87508
 93 04 07 18 46 00.0000000  0  8 27 28 14 19 18 29 02 11
 -14109260.41308 -10994222.84908  21764831.43108  21764837.66808
  -6506852.09508  -5070268.77208  22393578.17408  22393585.03208
  19481277.93108  15180163.85008  23903881.85808  23903898.54908
  -6765155.89409  -5271551.55508  20010949.65909  20010954.23208
  -6490310.68709  -5057387.41308  19229509.18009  19229512.84308
   5222804.25908   4069705.64508  20736865.55808  20736870.69208
  -4671301.48308  -3639970.41408  23408341.20808  23408351.86408
  -5897475.42808  -4595415.78708  23325475.32008  23325487.10508
 93 04 07 18 48 00.0000000  0  8 27 28 14 19 18 29 02 11
 -14364484.50608 -11193098.59308  21716263.85808  21716269.94808
  -6464042.28608  -5036910.65508  22401724.65208  22401731.59408
  19905920.98608  15511051.96608  23984690.63708  23984708.00508
  -6836565.38309  -5327195.35408  19997360.89209  19997365.49908
  -6473063.53909  -5043948.20608  19232791.28909  19232794.98608
   5476473.42508   4267369.40808  20785137.56108  20785142.83108
  -5046395.88008  -3932251.14108  23336962.67608  23336973.18808
  -6209177.62008  -4838299.89808  23266159.74408  23266171.28408
 93 04 07 18 50 00.0000000  0  8 27 28 14 19 18 29 02 11
 -14618740.94208 -11391220.37608  21667880.42008  21667886.39908
  -6412550.61108  -4996787.48708  22411523.40508  22411530.42608
  20328515.56407  15840343.77908  24065109.64907  24065127.79708
  -6905906.80809  -5381227.67308  19984165.68609  19984170.33808
  -6448346.99009  -5024688.69408  19237494.78209  19237498.51608
   5735980.31808   4469582.01908  20834520.50808  20834525.92408
  -5418853.00508  -4222476.91308  23266086.03508  23266096.34108
  -6517718.57708  -5078720.76108  23207445.83308  23207457.27908
 93 04 07 18 52 00.0000000  0  8 27 28 14 18 19 29 02 11
 -14871961.86408 -11588535.30908  21619694.03608  21619700.09508
  -6352721.01708  -4950167.25708  22422908.84508  22422915.95608
  20749539.21807  16168411.46607  24145229.88907  24145248.43407
  -6416033.61009  -4999509.58408  19243643.93009  19243647.70308
  -6972821.71609  -5433369.20908  19971432.28809  19971436.92808
   6001501.51208   4676481.07108  20885047.99908  20885053.51608
  -5788477.52608  -4510495.43908  23195748.46708  23195758.64108
  -6822863.96008  -5316495.63308  23149378.11008  23149389.29308
 93 04 07 18 54 00.0000000  0  8 27 28 14 18 19 29 02 11
 -15123834.16208 -11784799.35508  21571764.21308  21571770.24108
  -6284400.32908  -4896930.59808  22435910.04808  22435917.15708
  21168188.52507  16494629.01607  24224898.17907  24224917.48107
  -6376278.42609  -4968531.67308  19251209.23009  19251213.06408
  -7037235.91309  -5483562.12708  19959174.71709  19959179.30608
   6272609.83808   4887733.72208  20936638.57408  20936644.22908
  -6155212.25508  -4796262.12308  23125960.68708  23125970.66208
  -7124437.27908  -5551487.05508  23091989.99708  23092001.13908
 93 04 07 18 56 00.0000000  0  8 27 29 18 19 28 14 02 11
 -15374574.08008 -11980180.93708  21524049.90908  21524055.82808
   6549551.71608   5103531.98408  20989339.36308  20989345.16908
  -6328970.14509  -4931668.23408  19260211.80809  19260215.69308
  -7099320.78609  -5531939.98708  19947360.38909  19947365.00508
  -6207941.71908  -4837352.68508  22450459.76308  22450466.87808
  21584183.57307  16818778.30207  24304061.55707  24304081.51607
  -6519280.52008  -5079951.00708  23056680.28208  23056690.11908
  -7422196.66508  -5783506.41708  23035327.66108  23035338.41008
 93 04 07 18 58 00.0000000  0  8 27 29 18 19 28 14 02 11
 -15623877.15208 -12174442.90308  21476609.00108  21476614.86208
   6832022.70208   5323638.60908  21043092.29108  21043098.31808
  -6273818.76209  -4888693.29008  19270706.85909  19270710.76608
  -7159086.83209  -5578510.97708  19935987.29309  19935991.90808
  -6123241.21408  -4771352.48708  22466577.83408  22466585.01208
  21997885.59307  17141140.78007  24382788.51707  24382809.15207
  -6880264.35208  -5361236.45108  22987986.79308  22987996.47408
  -7715973.25708  -6012422.36108  22979423.21508  22979433.70708
 93 04 07 19 00 00.0000000  0  8 27 29 19 18 28 14 02 11
 -15871873.36208 -12367686.51008  21429416.66808  21429422.61208
   7119818.07608   5547894.06408  21097858.37408  21097864.56308
  -7216672.26109  -5623382.78108  19925029.15709  19925033.75808
  -6211154.35209  -4839864.05108  19282631.63309  19282635.56408
  -6030167.73408  -4698827.88808  22484289.14008  22484296.43408
  22408927.23007  17461430.24307  24461009.20407  24461030.43107
  -7238274.86808  -5640205.06208  22919859.30408  22919868.68308
  -8005535.13108  -6238054.29908  22924320.95208  22924331.17008
 93 04 07 19 02 00.0000000  0  8 27 29 28 19 18 14 02 11
 -16118884.49408 -12560162.57108  21382411.90908  21382417.81208
   7413275.44008   5776561.40108  21153702.02008  21153708.35608
  -5928719.31708  -4619777.40008  22503594.53908  22503601.91108
  -7272282.50209  -5666715.47808  19914446.96209  19914451.57108
  -6140944.35909  -4785155.13908  19295992.35709  19295996.30708
  22817117.59407  17779497.86807  24538687.38207  24538709.17407
  -7593110.96108  -5916700.12608  22852335.84108  22852345.05208
  -8290714.20508  -6460271.19308  22870052.69808  22870062.77608
 93 04 07 19 04 00.0000000  0  8 27 29 28 19 18 14 02 11
 -16364717.82008 -12751720.87108  21335631.31008  21335637.15908
   7712041.76008   6009365.64408  21210555.93708  21210562.35908
  -5819135.87308  -4534387.96108  22524447.64108  22524455.07808
  -7325564.14409  -5708233.69408  19904307.86609  19904312.49908
  -6062696.04909  -4724182.60508  19310882.62209  19310886.62008
  23222376.13207  18095280.80107  24615807.67307  24615830.18807
  -7945113.35308  -6190987.16808  22785351.55208  22785360.64408
  -8571249.87908  -6678869.93108  22816668.19208  22816678.14508
 93 04 07 19 06 00.0000000  0  8 27 29 19 18 28 14 02 11
 -16609128.22008 -12942170.34608  21289121.40508  21289127.23508
   8016057.54608   6246260.44108  21268408.65908  21268415.20708
  -7376256.48809  -5747734.28408  19894661.43909  19894666.09508
  -5976923.57009  -4657347.06508  19327204.68509  19327208.75308
  -5701352.32308  -4442608.83708  22546861.28208  22546868.83908
  23624503.38707  18408623.41307  24692332.38307  24692355.80807
  -8293935.60708  -6462796.23808  22718972.46608  22718981.44608
  -8846945.12608  -6893696.95508  22764204.88808  22764214.73508
 93 04 07 19 08 00.0000000  0  7 27 29 28 02 11 19 18
 -16852282.36008 -13131640.94308  21242850.56908  21242856.38708
   8325354.32008   6487270.19508  21327266.42608  21327273.18908
  -5575407.45208  -4344470.25708  22570828.08908  22570835.70908
  -8639178.03108  -6731815.88008  22653274.70708  22653283.72408
  -9117597.52608  -7104594.52608  22712701.12108  22712710.95808
  -7425032.83309  -5785741.89108  19885379.60809  19885384.29608
  -5883800.88909  -4584784.09608  19344925.42609  19344929.51908
 93 04 07 19 10 00.0000000  0  7 27 29 28 02 11 19 18
 -17094510.17608 -13320389.75608  21196756.00708  21196761.77408
   8639577.00408   6732118.28108  21387061.64408  21387068.55108
  -5441357.63708  -4240016.14108  22596337.13708  22596344.63208
  -8981042.69708  -6998203.51508  22588219.77308  22588228.69808
  -9383021.31008  -7311417.87508  22662192.35208  22662202.07608
  -7471430.16309  -5821895.71308  19876550.53009  19876555.26408
  -5782698.98209  -4506003.57108  19364164.53909  19364168.67908
 93 04 07 19 12 00.0000000  0  7 27 29 28 02 11 19 18
 -17335622.20108 -13508269.07808  21150873.76808  21150879.50308
   8958563.75208   6980678.59008  21447763.44608  21447770.56008
  -5299503.44308  -4129480.70808  22623331.35408  22623339.04908
  -9320158.96608  -7262449.49508  22523687.70308  22523696.50508
  -9643399.67608  -7514309.71808  22612643.67308  22612653.36808
  -7515880.26509  -5856532.21108  19868092.03809  19868096.84508
  -5674182.83309  -4421445.72308  19384814.72709  19384818.91008
 93 04 07 19 14 00.0000000  0  7 27 29 19 18 28 02 11
 -17575842.46608 -13695453.53208  21105161.26808  21105166.92008
   9282397.75408   7233015.95608  21509387.57308  21509394.89008
  -7558445.38309  -5889699.87708  19859992.26009  19859997.03908
  -5558104.17509  -4330995.01508  19406903.86909  19406908.12308
  -5150027.30808  -4013006.11708  22651775.93708  22651783.69808
  -9655978.38308  -7524126.44208  22459783.07108  22459791.69008
  -9898378.76108  -7712994.32908  22564122.45408  22564132.06608
 93 04 07 19 16 00.0000000  0  8 27 29 28 16 19 18 02 11
 -17813773.48008 -13880854.15408  21059884.32908  21059890.02808
   9612357.74508   7490126.76608  21572177.58008  21572185.09308
  -4991431.56908  -3889425.33408  22681956.02408  22681963.75008
        -0.39418         0.44418  23493475.49318  23493485.69718
  -7597380.93409  -5920039.28608  19852582.99309  19852587.81108
  -5433250.33109  -4233706.50808  19430662.88509  19430667.21308
  -9986910.61008  -7781995.18108  22396808.28008  22396816.82108
 -10146319.24408  -7906194.35208  22516940.69808  22516950.19008
 93 04 07 19 18 00.0000000  0  8 27 29 28 16 19 18 02 11
 -18049505.27108 -14064541.10608  21015025.92108  21015031.59908
   9947686.59008   7751421.05108  21635989.19308  21635996.96908
  -4824013.09108  -3758969.66608  22713814.96908  22713822.65708
   -218411.49208   -170189.85707  23451913.05808  23451923.12407
  -7633256.11009  -5947994.00108  19845756.18309  19845760.98908
  -5299802.97509  -4129721.76208  19456057.30509  19456061.65908
 -10313523.03308  -8036497.87108  22334655.66508  22334664.11108
 -10387355.43008  -8094014.36508  22471072.76408  22471082.12408
 93 04 07 19 20 00.0000000  0  8 29 28 16 02 19 27 18 11
  10288250.77808   8016794.80108  21700797.09508  21700805.11608
  -4648548.34108  -3622244.19708  22747205.11108  22747212.83508
   -429000.68308   -334285.18007  23411839.08308  23411849.13607
 -10635935.11008  -8287727.60308  22273302.32008  22273310.59408
  -7666518.82709  -5973913.04008  19839426.50409  19839431.32508
 -18283360.49808 -14246765.80808  20970524.64708  20970530.31708
  -5158353.37209  -4019501.51008  19482974.39009  19482978.80408
 -10621683.27808  -8276607.09608  22426481.36408  22426490.57908
 93 04 07 19 22 00.0000000  0  8 29 28 16 02 19 27 18 11
  10633805.62708   8286057.33908  21766554.74108  21766563.00508
  -4464812.96708  -3479074.08508  22782168.83208  22782176.72208
   -632079.65908   -492528.37908  23373194.27208  23373204.43708
 -10954601.29208  -8536038.46108  22212661.79708  22212670.03208
  -7696996.15509  -5997661.65608  19833626.92509  19833631.73708
 -18515665.50708 -14427782.55408  20926318.36308  20926323.93308
  -5008963.35409  -3903093.93608  19511402.56609  19511406.99608
 -10849338.08908  -8454000.05208  22383159.71608  22383168.89108
 93 04 07 19 24 00.0000000  0  8 29 28 16 27 19 18 02 11
  10983290.17608   8558381.93108  21833060.19108  21833068.61708
  -4273779.73408  -3330217.32508  22818521.44708  22818529.52408
   -828100.70608   -645271.87108  23335892.47608  23335902.68008
 -18746931.25708 -14607989.46508  20882309.88308  20882315.34908
  -7725528.77709  -6019894.90608  19828197.28209  19828202.09308
  -4852269.27809  -3780994.89508  19541220.54509  19541225.08008
 -11269640.19808  -8781522.89408  22152711.55208  22152719.69108
 -11070735.67308  -8626517.24008  22341028.76508  22341037.92008
 93 04 07 19 26 00.0000000  0  8 29 28 16 27 19 18 02 11
  11337703.05808   8834546.75008  21900503.47408  21900512.15608
  -4075101.86908  -3175403.68808  22856328.84808  22856336.94408
  -1016079.40408   -791748.59008  23300121.22008  23300131.33708
 -18976205.33508 -14786644.41208  20838680.31308  20838685.75208
  -7751189.22409  -6039890.09008  19823314.29709  19823319.12308
  -4687348.28709  -3652485.27408  19572604.18509  19572608.76808
 -11580216.30708  -9023529.84708  22093610.52308  22093618.55608
 -11284879.21308  -8793381.94208  22300278.31008  22300287.40008
 93 04 07 19 28 00.0000000  0  8 29 28 16 27 19 18 02 11
  11697554.49308   9114949.38008  21968981.84808  21968990.76608
  -3867643.30108  -3013747.95608  22895807.13708  22895815.31108
  -1195323.69708   -931419.28808  23266012.06808  23266022.05208
 -19203237.76608 -14963552.64108  20795477.35908  20795482.79308
  -7773518.26909  -6057289.38708  19819065.30409  19819070.16708
  -4513837.79809  -3517282.55008  19605622.35009  19605626.97808
 -11886245.77908  -9261993.98208  22035374.73608  22035382.72008
 -11490910.00408  -8953925.03108  22261071.64708  22261080.59508
 93 04 07 19 30 00.0000000  0  8 29 28 16 27 19 18 02 11
  12062450.51408   9399282.81608  22038420.12908  22038429.27408
  -3651678.41908  -2845463.94108  22936904.16608  22936912.42808
  -1365601.02208  -1064102.76208  23233609.24208  23233619.27708
 -19427697.91408 -15138456.51108  20752763.91608  20752769.31108
  -7792180.96309  -6071831.79608  19815514.00609  19815518.84408
  -4331708.53309  -3375363.91508  19640280.59909  19640285.28308
 -12186965.30108  -9496320.50608  21978149.42308  21978157.27108
 -11688659.53908  -9108015.23508  22223440.99608  22223449.67008
 93 04 07 19 32 00.0000000  0  8 29 28 16 02 27 19 18 11
  12433005.13108   9688025.49008  22108935.21208  22108944.62508
  -3427108.16208  -2670474.45708  22979638.58008  22979646.96308
  -1526876.50208  -1189771.84108  23202919.41308  23202929.36508
 -12482048.87608  -9726255.40908  21921996.67408  21922004.36408
 -19649001.90608 -15310901.05608  20710651.12808  20710656.42708
  -7807095.96109  -6083453.91408  19812675.77109  19812680.69008
  -4140647.46709  -3226485.45408  19676638.48109  19676643.28308
 -11877697.63708  -9255317.31908  22187468.01608  22187476.63408
